Time,TemperatureF,DewpointF,PressureIn,WindDirection,WindDirectionDegrees,WindSpeedMPH,WindSpeedGustMPH,Humidity,HourlyPrecipIn,Conditions,Clouds,dailyrainin,SoftwareType,DateUTC
2013-12-16 00:00:00,25.8,23.8,30.16,East,82,0.0,0.0,92,0.00,,---,0.00,VWS V14.01,2013-12-16 05:00:00,
2013-12-16 00:01:00,25.7,23.7,30.16,East,82,0.0,0.0,92,0.00,,---,0.00,VWS V14.01,2013-12-16 05:01:00,
2013-12-16 00:02:00,25.7,23.7,30.16,East,82,0.0,0.0,92,0.00,,---,0.00,VWS V14.01,2013-12-16 05:02:00,
2013-12-16 00:03:00,25.7,23.7,30.16,East,82,0.0,0.0,92,0.00,,---,0.00,VWS V14.01,2013-12-16 05:03:00,
2013-12-16 00:04:00,25.7,23.7,30.16,East,82,0.0,0.0,92,0.00,,---,0.00,VWS V14.01,2013-12-16 05:04:00,
2013-12-16 00:05:00,25.7,23.7,30.16,East,82,0.0,0.0,92,0.00,,---,0.00,VWS V14.01,2013-12-16 05:05:00,
2013-12-16 00:06:00,25.7,23.7,30.15,East,82,0.0,0.0,92,0.00,,---,0.00,VWS V14.01,2013-12-16 05:06:00,
2013-12-16 00:07:00,25.6,23.6,30.15,East,82,1.0,1.0,92,0.00,,---,0.00,VWS V14.01,2013-12-16 05:07:00,
2013-12-16 00:08:00,25.7,23.7,30.15,East,82,0.0,0.0,92,0.00,,---,0.00,VWS V14.01,2013-12-16 05:08:00,
2013-12-16 00:09:00,25.7,23.7,30.15,East,82,0.0,0.0,92,0.00,,---,0.00,VWS V14.01,2013-12-16 05:09:00,
2013-12-16 00:10:00,25.6,23.6,30.15,East,82,0.0,0.0,92,0.00,,---,0.00,VWS V14.01,2013-12-16 05:10:00,
2013-12-16 00:11:00,25.6,23.6,30.15,East,82,0.0,1.0,92,0.00,,---,0.00,VWS V14.01,2013-12-16 05:11:00,
2013-12-16 00:12:00,25.5,23.5,30.15,East,82,0.0,0.0,92,0.00,,---,0.00,VWS V14.01,2013-12-16 05:12:00,
2013-12-16 00:13:00,25.6,23.6,30.15,East,82,0.0,0.0,92,0.00,,---,0.00,VWS V14.01,2013-12-16 05:13:00,
2013-12-16 00:14:00,25.5,23.5,30.15,East,82,0.0,0.0,92,0.00,,---,0.00,VWS V14.01,2013-12-16 05:14:00,
2013-12-16 00:15:00,25.5,23.5,30.15,East,82,0.0,1.0,92,0.00,,---,0.00,VWS V14.01,2013-12-16 05:15:00,
2013-12-16 00:16:00,25.6,23.6,30.15,East,82,0.0,0.0,92,0.00,,---,0.00,VWS V14.01,2013-12-16 05:16:00,
2013-12-16 00:17:00,25.6,23.6,30.15,East,83,0.0,0.0,92,0.00,,---,0.00,VWS V14.01,2013-12-16 05:17:00,
2013-12-16 00:18:00,25.6,23.6,30.15,East,82,0.0,0.0,92,0.00,,---,0.00,VWS V14.01,2013-12-16 05:18:00,
2013-12-16 00:19:00,25.6,23.6,30.15,East,83,0.0,0.0,92,0.00,,---,0.00,VWS V14.01,2013-12-16 05:19:00,
2013-12-16 00:20:00,25.6,23.6,30.15,East,83,0.0,1.0,92,0.00,,---,0.00,VWS V14.01,2013-12-16 05:20:00,
2013-12-16 00:21:00,25.6,23.6,30.15,SE,142,1.0,1.0,92,0.00,,---,0.00,VWS V14.01,2013-12-16 05:21:00,
2013-12-16 00:22:00,25.6,23.9,30.15,SSE,166,0.0,0.0,93,0.00,,---,0.00,VWS V14.01,2013-12-16 05:22:00,
2013-12-16 00:23:00,25.6,23.6,30.15,SSE,167,0.0,1.0,92,0.00,,---,0.00,VWS V14.01,2013-12-16 05:23:00,
2013-12-16 00:24:00,25.6,23.9,30.15,SSE,165,0.0,0.0,93,0.00,,---,0.00,VWS V14.01,2013-12-16 05:24:00,
2013-12-16 00:25:00,25.6,23.9,30.15,SSE,166,0.0,0.0,93,0.00,,---,0.00,VWS V14.01,2013-12-16 05:25:00,
2013-12-16 00:26:00,25.6,23.9,30.15,SSE,167,0.0,0.0,93,0.00,,---,0.00,VWS V14.01,2013-12-16 05:26:00,
2013-12-16 00:27:00,25.5,23.8,30.15,SSE,167,0.0,0.0,93,0.00,,---,0.00,VWS V14.01,2013-12-16 05:27:00,
2013-12-16 00:28:00,25.6,23.9,30.15,SSE,167,0.0,0.0,93,0.00,,---,0.00,VWS V14.01,2013-12-16 05:28:00,
2013-12-16 00:29:00,25.6,23.9,30.15,SSE,167,0.0,0.0,93,0.00,,---,0.00,VWS V14.01,2013-12-16 05:29:00,
2013-12-16 00:30:00,25.6,23.9,30.15,SSE,166,0.0,0.0,93,0.00,,---,0.00,VWS V14.01,2013-12-16 05:30:00,
2013-12-16 00:31:00,25.5,23.8,30.15,SSE,166,0.0,0.0,93,0.00,,---,0.00,VWS V14.01,2013-12-16 05:31:00,
2013-12-16 00:32:00,25.4,23.7,30.15,SSE,165,0.0,0.0,93,0.00,,---,0.00,VWS V14.01,2013-12-16 05:32:00,
2013-12-16 00:33:00,25.5,23.8,30.16,SSE,166,0.0,0.0,93,0.00,,---,0.00,VWS V14.01,2013-12-16 05:33:00,
2013-12-16 00:35:00,25.5,23.8,30.15,SSE,166,0.0,0.0,93,0.00,,---,0.00,VWS V14.01,2013-12-16 05:35:00,
2013-12-16 00:36:00,25.4,23.7,30.15,SSE,166,0.0,0.0,93,0.00,,---,0.00,VWS V14.01,2013-12-16 05:36:00,
2013-12-16 00:37:00,25.3,23.6,30.16,SSE,166,0.0,0.0,93,0.00,,---,0.00,VWS V14.01,2013-12-16 05:37:00,
2013-12-16 00:38:00,25.4,23.7,30.15,SSE,166,0.0,0.0,93,0.00,,---,0.00,VWS V14.01,2013-12-16 05:38:00,
2013-12-16 00:39:00,25.3,23.6,30.15,SSE,166,0.0,0.0,93,0.00,,---,0.00,VWS V14.01,2013-12-16 05:39:00,
2013-12-16 00:40:00,25.3,23.6,30.16,SSE,165,0.0,0.0,93,0.00,,---,0.00,VWS V14.01,2013-12-16 05:40:00,
2013-12-16 00:41:00,25.3,23.6,30.16,SSE,166,0.0,0.0,93,0.00,,---,0.00,VWS V14.01,2013-12-16 05:41:00,
2013-12-16 00:42:00,25.2,23.5,30.15,SSE,166,0.0,0.0,93,0.00,,---,0.00,VWS V14.01,2013-12-16 05:42:00,
2013-12-16 00:43:00,25.3,23.6,30.16,SSE,165,0.0,0.0,93,0.00,,---,0.00,VWS V14.01,2013-12-16 05:43:00,
2013-12-16 00:44:00,25.3,23.6,30.15,SSE,166,0.0,0.0,93,0.00,,---,0.00,VWS V14.01,2013-12-16 05:44:00,
2013-12-16 00:45:00,25.3,23.6,30.15,SSE,166,0.0,0.0,93,0.00,,---,0.00,VWS V14.01,2013-12-16 05:45:00,
2013-12-16 00:46:00,25.2,23.5,30.15,SSE,166,0.0,0.0,93,0.00,,---,0.00,VWS V14.01,2013-12-16 05:46:00,
2013-12-16 00:47:00,25.2,23.5,30.15,SSE,167,0.0,0.0,93,0.00,,---,0.00,VWS V14.01,2013-12-16 05:47:00,
2013-12-16 00:48:00,25.2,23.5,30.15,SSE,165,0.0,0.0,93,0.00,,---,0.00,VWS V14.01,2013-12-16 05:48:00,
2013-12-16 00:49:00,25.2,23.5,30.15,SSE,166,0.0,0.0,93,0.00,,---,0.00,VWS V14.01,2013-12-16 05:49:00,
2013-12-16 00:50:00,25.2,23.5,30.15,SSE,167,0.0,0.0,93,0.00,,---,0.00,VWS V14.01,2013-12-16 05:50:00,
2013-12-16 00:51:00,25.1,23.4,30.15,SSE,165,0.0,0.0,93,0.00,,---,0.00,VWS V14.01,2013-12-16 05:51:00,
2013-12-16 00:52:00,25.1,23.4,30.15,SSE,166,0.0,0.0,93,0.00,,---,0.00,VWS V14.01,2013-12-16 05:52:00,
2013-12-16 00:53:00,25.1,23.4,30.15,SSE,166,0.0,0.0,93,0.00,,---,0.00,VWS V14.01,2013-12-16 05:53:00,
2013-12-16 00:54:00,25.1,23.4,30.15,SSE,167,0.0,0.0,93,0.00,,---,0.00,VWS V14.01,2013-12-16 05:54:00,
2013-12-16 00:55:00,25.1,23.4,30.15,SSE,165,0.0,0.0,93,0.00,,---,0.00,VWS V14.01,2013-12-16 05:55:00,
2013-12-16 00:56:00,25.1,23.4,30.15,SSE,166,0.0,0.0,93,0.00,,---,0.00,VWS V14.01,2013-12-16 05:56:00,
2013-12-16 00:57:00,25.0,23.3,30.15,SSE,167,0.0,0.0,93,0.00,,---,0.00,VWS V14.01,2013-12-16 05:57:00,
2013-12-16 00:58:00,25.0,23.3,30.15,SSE,166,0.0,0.0,93,0.00,,---,0.00,VWS V14.01,2013-12-16 05:58:00,
2013-12-16 00:59:00,25.0,23.3,30.15,SSE,166,0.0,0.0,93,0.00,,---,0.00,VWS V14.01,2013-12-16 05:59:00,
2013-12-16 01:00:00,25.0,23.3,30.15,SSE,167,0.0,0.0,93,0.00,,---,0.00,VWS V14.01,2013-12-16 06:00:00,
2013-12-16 01:01:00,25.0,23.3,30.15,SSE,165,0.0,0.0,93,0.00,,---,0.00,VWS V14.01,2013-12-16 06:01:00,
2013-12-16 01:02:00,25.0,23.3,30.15,SSE,165,0.0,0.0,93,0.00,,---,0.00,VWS V14.01,2013-12-16 06:02:00,
2013-12-16 01:03:00,25.0,23.3,30.15,SSE,167,0.0,0.0,93,0.00,,---,0.00,VWS V14.01,2013-12-16 06:03:00,
2013-12-16 01:04:00,25.0,23.3,30.15,SSE,167,0.0,0.0,93,0.00,,---,0.00,VWS V14.01,2013-12-16 06:04:00,
2013-12-16 01:05:00,25.0,23.3,30.15,SSE,165,0.0,0.0,93,0.00,,---,0.00,VWS V14.01,2013-12-16 06:05:00,
2013-12-16 01:06:00,25.0,23.3,30.15,SSE,165,0.0,0.0,93,0.00,,---,0.00,VWS V14.01,2013-12-16 06:06:00,
2013-12-16 01:07:00,25.0,23.3,30.15,SSE,165,0.0,0.0,93,0.00,,---,0.00,VWS V14.01,2013-12-16 06:07:00,
2013-12-16 01:08:00,25.0,23.3,30.15,SSE,165,0.0,0.0,93,0.00,,---,0.00,VWS V14.01,2013-12-16 06:08:00,
2013-12-16 01:09:00,25.0,23.3,30.15,SSE,165,0.0,0.0,93,0.00,,---,0.00,VWS V14.01,2013-12-16 06:09:00,
2013-12-16 01:10:00,25.0,23.3,30.15,SSE,165,0.0,0.0,93,0.00,,---,0.00,VWS V14.01,2013-12-16 06:10:00,
2013-12-16 01:11:00,25.0,23.3,30.15,SSE,165,0.0,0.0,93,0.00,,---,0.00,VWS V14.01,2013-12-16 06:11:00,
2013-12-16 01:12:00,24.9,23.2,30.15,SSE,165,0.0,0.0,93,0.00,,---,0.00,VWS V14.01,2013-12-16 06:12:00,
2013-12-16 01:13:00,25.0,23.3,30.15,SSE,165,0.0,0.0,93,0.00,,---,0.00,VWS V14.01,2013-12-16 06:13:00,
2013-12-16 01:14:00,24.9,23.2,30.15,SSE,165,0.0,0.0,93,0.00,,---,0.00,VWS V14.01,2013-12-16 06:14:00,
2013-12-16 01:15:00,24.9,23.2,30.15,SSE,165,0.0,0.0,93,0.00,,---,0.00,VWS V14.01,2013-12-16 06:15:00,
2013-12-16 01:16:00,24.9,23.2,30.15,SSE,165,0.0,0.0,93,0.00,,---,0.00,VWS V14.01,2013-12-16 06:16:00,
2013-12-16 01:17:00,24.8,23.1,30.15,SSE,165,0.0,0.0,93,0.00,,---,0.00,VWS V14.01,2013-12-16 06:17:00,
2013-12-16 01:18:00,24.8,23.1,30.15,SSE,165,0.0,0.0,93,0.00,,---,0.00,VWS V14.01,2013-12-16 06:18:00,
2013-12-16 01:19:00,24.8,23.1,30.15,SSE,165,0.0,0.0,93,0.00,,---,0.00,VWS V14.01,2013-12-16 06:19:00,
2013-12-16 01:20:00,24.8,23.1,30.15,SSE,165,0.0,0.0,93,0.00,,---,0.00,VWS V14.01,2013-12-16 06:20:00,
2013-12-16 01:21:00,24.8,23.1,30.15,SSE,165,0.0,0.0,93,0.00,,---,0.00,VWS V14.01,2013-12-16 06:21:00,
2013-12-16 01:22:00,24.8,23.1,30.15,SSE,165,0.0,0.0,93,0.00,,---,0.00,VWS V14.01,2013-12-16 06:22:00,
2013-12-16 01:23:00,24.8,23.1,30.15,SSE,165,0.0,0.0,93,0.00,,---,0.00,VWS V14.01,2013-12-16 06:23:00,
2013-12-16 01:24:00,24.8,23.1,30.15,SSE,165,0.0,0.0,93,0.00,,---,0.00,VWS V14.01,2013-12-16 06:24:00,
2013-12-16 01:25:00,24.8,23.1,30.15,SSE,165,0.0,0.0,93,0.00,,---,0.00,VWS V14.01,2013-12-16 06:25:00,
2013-12-16 01:26:00,24.7,23.0,30.15,SSE,165,0.0,0.0,93,0.00,,---,0.00,VWS V14.01,2013-12-16 06:26:00,
2013-12-16 01:27:00,24.6,22.9,30.15,SSE,165,0.0,0.0,93,0.00,,---,0.00,VWS V14.01,2013-12-16 06:27:00,
2013-12-16 01:28:00,24.7,23.0,30.15,SSE,165,0.0,0.0,93,0.00,,---,0.00,VWS V14.01,2013-12-16 06:28:00,
2013-12-16 01:29:00,24.6,22.9,30.15,SSE,165,0.0,0.0,93,0.00,,---,0.00,VWS V14.01,2013-12-16 06:29:00,
2013-12-16 01:30:00,24.6,22.9,30.15,SSE,165,0.0,0.0,93,0.00,,---,0.00,VWS V14.01,2013-12-16 06:30:00,
2013-12-16 01:31:00,24.6,22.9,30.15,SSE,165,0.0,0.0,93,0.00,,---,0.00,VWS V14.01,2013-12-16 06:31:00,
2013-12-16 01:32:00,24.7,23.0,30.15,SSE,165,0.0,0.0,93,0.00,,---,0.00,VWS V14.01,2013-12-16 06:32:00,
2013-12-16 01:33:00,24.6,22.9,30.15,SSE,165,0.0,0.0,93,0.00,,---,0.00,VWS V14.01,2013-12-16 06:33:00,
2013-12-16 01:34:00,24.6,22.9,30.15,SSE,166,0.0,0.0,93,0.00,,---,0.00,VWS V14.01,2013-12-16 06:34:00,
2013-12-16 01:35:00,24.7,23.0,30.15,SSE,165,0.0,0.0,93,0.00,,---,0.00,VWS V14.01,2013-12-16 06:35:00,
2013-12-16 01:36:00,24.7,23.0,30.15,SSE,165,0.0,0.0,93,0.00,,---,0.00,VWS V14.01,2013-12-16 06:36:00,
2013-12-16 01:37:00,24.6,22.9,30.15,SSE,165,0.0,0.0,93,0.00,,---,0.00,VWS V14.01,2013-12-16 06:37:00,
2013-12-16 01:38:00,24.7,23.0,30.15,SSE,165,0.0,0.0,93,0.00,,---,0.00,VWS V14.01,2013-12-16 06:38:00,
2013-12-16 01:39:00,24.6,22.9,30.15,SSE,165,0.0,0.0,93,0.00,,---,0.00,VWS V14.01,2013-12-16 06:39:00,
2013-12-16 01:40:00,24.6,22.9,30.15,SSE,165,0.0,0.0,93,0.00,,---,0.00,VWS V14.01,2013-12-16 06:40:00,
2013-12-16 01:41:00,24.6,22.9,30.15,SSE,165,0.0,0.0,93,0.00,,---,0.00,VWS V14.01,2013-12-16 06:41:00,
2013-12-16 01:42:00,24.5,22.8,30.15,SSE,165,0.0,0.0,93,0.00,,---,0.00,VWS V14.01,2013-12-16 06:42:00,
2013-12-16 01:43:00,24.5,22.8,30.15,SSE,165,0.0,0.0,93,0.00,,---,0.00,VWS V14.01,2013-12-16 06:43:00,
2013-12-16 01:44:00,24.5,22.8,30.15,SSE,166,0.0,0.0,93,0.00,,---,0.00,VWS V14.01,2013-12-16 06:44:00,
2013-12-16 01:45:00,24.5,22.8,30.15,SSE,165,0.0,0.0,93,0.00,,---,0.00,VWS V14.01,2013-12-16 06:45:00,
2013-12-16 01:46:00,24.5,22.8,30.15,SSE,166,0.0,0.0,93,0.00,,---,0.00,VWS V14.01,2013-12-16 06:46:00,
2013-12-16 01:47:00,24.4,22.7,30.15,SSE,165,0.0,0.0,93,0.00,,---,0.00,VWS V14.01,2013-12-16 06:47:00,
2013-12-16 01:48:00,24.4,22.7,30.15,SSE,165,0.0,0.0,93,0.00,,---,0.00,VWS V14.01,2013-12-16 06:48:00,
2013-12-16 01:49:00,24.4,22.7,30.15,SSE,165,0.0,0.0,93,0.00,,---,0.00,VWS V14.01,2013-12-16 06:49:00,
2013-12-16 01:50:00,24.4,22.7,30.15,SSE,165,0.0,0.0,93,0.00,,---,0.00,VWS V14.01,2013-12-16 06:50:00,
2013-12-16 01:51:00,24.4,22.7,30.15,SSE,165,0.0,0.0,93,0.00,,---,0.00,VWS V14.01,2013-12-16 06:51:00,
2013-12-16 01:52:00,24.4,22.7,30.16,SSE,165,0.0,0.0,93,0.00,,---,0.00,VWS V14.01,2013-12-16 06:52:00,
2013-12-16 01:53:00,24.4,22.7,30.16,SSE,165,0.0,0.0,93,0.00,,---,0.00,VWS V14.01,2013-12-16 06:53:00,
2013-12-16 01:54:00,24.4,22.7,30.16,SSE,165,0.0,0.0,93,0.00,,---,0.00,VWS V14.01,2013-12-16 06:54:00,
2013-12-16 01:55:00,24.4,22.7,30.16,SSE,165,0.0,0.0,93,0.00,,---,0.00,VWS V14.01,2013-12-16 06:55:00,
2013-12-16 01:56:00,24.4,22.7,30.16,SSE,165,0.0,0.0,93,0.00,,---,0.00,VWS V14.01,2013-12-16 06:56:00,
2013-12-16 01:57:00,24.3,22.8,30.16,SSE,165,0.0,0.0,94,0.00,,---,0.00,VWS V14.01,2013-12-16 06:57:00,
2013-12-16 01:58:00,24.4,22.7,30.16,SSE,165,0.0,0.0,93,0.00,,---,0.00,VWS V14.01,2013-12-16 06:58:00,
2013-12-16 01:59:00,24.4,22.9,30.16,SSE,165,0.0,0.0,94,0.00,,---,0.00,VWS V14.01,2013-12-16 06:59:00,
2013-12-16 02:00:00,24.4,22.9,30.16,SSE,165,0.0,0.0,94,0.00,,---,0.00,VWS V14.01,2013-12-16 07:00:00,
2013-12-16 02:01:00,24.3,22.8,30.16,SSE,165,0.0,0.0,94,0.00,,---,0.00,VWS V14.01,2013-12-16 07:01:00,
2013-12-16 02:02:00,24.3,22.8,30.16,SSE,165,0.0,0.0,94,0.00,,---,0.00,VWS V14.01,2013-12-16 07:02:00,
2013-12-16 02:03:00,24.3,22.8,30.16,SSE,165,0.0,0.0,94,0.00,,---,0.00,VWS V14.01,2013-12-16 07:03:00,
2013-12-16 02:04:00,24.3,22.8,30.16,SSE,167,0.0,0.0,94,0.00,,---,0.00,VWS V14.01,2013-12-16 07:04:00,
2013-12-16 02:05:00,24.3,22.8,30.16,SSE,167,0.0,0.0,94,0.00,,---,0.00,VWS V14.01,2013-12-16 07:05:00,
2013-12-16 02:06:00,24.3,22.8,30.16,SSE,165,0.0,0.0,94,0.00,,---,0.00,VWS V14.01,2013-12-16 07:06:00,
2013-12-16 02:07:00,24.4,22.9,30.16,SSE,165,0.0,0.0,94,0.00,,---,0.00,VWS V14.01,2013-12-16 07:07:00,
2013-12-16 02:08:00,24.3,22.8,30.16,SSE,165,0.0,0.0,94,0.00,,---,0.00,VWS V14.01,2013-12-16 07:08:00,
2013-12-16 02:09:00,24.4,22.9,30.16,SSE,165,0.0,0.0,94,0.00,,---,0.00,VWS V14.01,2013-12-16 07:09:00,
2013-12-16 02:10:00,24.4,22.9,30.16,SSE,165,0.0,0.0,94,0.00,,---,0.00,VWS V14.01,2013-12-16 07:10:00,
2013-12-16 02:11:00,24.4,22.9,30.16,SSE,165,0.0,0.0,94,0.00,,---,0.00,VWS V14.01,2013-12-16 07:11:00,
2013-12-16 02:12:00,24.4,22.9,30.16,SSE,165,0.0,0.0,94,0.00,,---,0.00,VWS V14.01,2013-12-16 07:12:00,
2013-12-16 02:13:00,24.4,22.9,30.16,SSE,167,0.0,0.0,94,0.00,,---,0.00,VWS V14.01,2013-12-16 07:13:00,
2013-12-16 02:14:00,24.4,22.9,30.16,SSE,165,0.0,0.0,94,0.00,,---,0.00,VWS V14.01,2013-12-16 07:14:00,
2013-12-16 02:15:00,24.4,22.9,30.16,SSE,165,0.0,0.0,94,0.00,,---,0.00,VWS V14.01,2013-12-16 07:15:00,
2013-12-16 02:16:00,24.4,22.9,30.16,SSE,165,0.0,0.0,94,0.00,,---,0.00,VWS V14.01,2013-12-16 07:16:00,
2013-12-16 02:17:00,24.4,22.9,30.16,SSE,165,0.0,0.0,94,0.00,,---,0.00,VWS V14.01,2013-12-16 07:17:00,
2013-12-16 02:18:00,24.4,22.9,30.16,SSE,165,0.0,0.0,94,0.00,,---,0.00,VWS V14.01,2013-12-16 07:18:00,
2013-12-16 02:19:00,24.4,22.9,30.16,SSE,167,0.0,0.0,94,0.00,,---,0.00,VWS V14.01,2013-12-16 07:19:00,
2013-12-16 02:20:00,24.3,22.8,30.16,SSE,167,0.0,0.0,94,0.00,,---,0.00,VWS V14.01,2013-12-16 07:20:00,
2013-12-16 02:21:00,24.4,22.9,30.16,SSE,165,0.0,0.0,94,0.00,,---,0.00,VWS V14.01,2013-12-16 07:21:00,
2013-12-16 02:22:00,24.2,22.7,30.16,SSE,165,0.0,0.0,94,0.00,,---,0.00,VWS V14.01,2013-12-16 07:22:00,
2013-12-16 02:23:00,24.3,22.8,30.16,SSE,165,0.0,0.0,94,0.00,,---,0.00,VWS V14.01,2013-12-16 07:23:00,
2013-12-16 02:24:00,24.3,22.8,30.17,SSE,165,0.0,0.0,94,0.00,,---,0.00,VWS V14.01,2013-12-16 07:24:00,
2013-12-16 02:25:00,24.3,22.8,30.16,SSE,165,0.0,0.0,94,0.00,,---,0.00,VWS V14.01,2013-12-16 07:25:00,
2013-12-16 02:26:00,24.2,22.7,30.16,SSE,165,0.0,0.0,94,0.00,,---,0.00,VWS V14.01,2013-12-16 07:26:00,
2013-12-16 02:27:00,24.2,22.7,30.17,SSE,165,0.0,0.0,94,0.00,,---,0.00,VWS V14.01,2013-12-16 07:27:00,
2013-12-16 02:28:00,24.2,22.7,30.17,SSE,165,0.0,0.0,94,0.00,,---,0.00,VWS V14.01,2013-12-16 07:28:00,
2013-12-16 02:29:00,24.2,22.7,30.17,SSE,166,0.0,0.0,94,0.00,,---,0.00,VWS V14.01,2013-12-16 07:29:00,
2013-12-16 02:30:00,24.2,22.7,30.17,SSE,165,0.0,0.0,94,0.00,,---,0.00,VWS V14.01,2013-12-16 07:30:00,
2013-12-16 02:31:00,24.2,22.7,30.16,SSE,165,0.0,0.0,94,0.00,,---,0.00,VWS V14.01,2013-12-16 07:31:00,
2013-12-16 02:32:00,24.2,22.7,30.17,SSE,167,0.0,0.0,94,0.00,,---,0.00,VWS V14.01,2013-12-16 07:32:00,
2013-12-16 02:33:00,24.2,22.7,30.17,SSE,165,0.0,0.0,94,0.00,,---,0.00,VWS V14.01,2013-12-16 07:33:00,
2013-12-16 02:34:00,24.2,22.7,30.17,SSE,165,0.0,0.0,94,0.00,,---,0.00,VWS V14.01,2013-12-16 07:34:00,
2013-12-16 02:35:00,24.2,22.7,30.17,SSE,165,0.0,0.0,94,0.00,,---,0.00,VWS V14.01,2013-12-16 07:35:00,
2013-12-16 02:36:00,24.2,22.7,30.17,SSE,165,0.0,0.0,94,0.00,,---,0.00,VWS V14.01,2013-12-16 07:36:00,
2013-12-16 02:37:00,24.2,22.7,30.16,SSE,165,0.0,0.0,94,0.00,,---,0.00,VWS V14.01,2013-12-16 07:37:00,
2013-12-16 02:38:00,24.2,22.7,30.17,SSE,165,0.0,0.0,94,0.00,,---,0.00,VWS V14.01,2013-12-16 07:38:00,
2013-12-16 02:39:00,24.2,22.7,30.17,SSE,165,0.0,0.0,94,0.00,,---,0.00,VWS V14.01,2013-12-16 07:39:00,
2013-12-16 02:40:00,24.2,22.7,30.16,SSE,165,0.0,0.0,94,0.00,,---,0.00,VWS V14.01,2013-12-16 07:40:00,
2013-12-16 02:41:00,24.2,22.7,30.17,SSE,166,0.0,0.0,94,0.00,,---,0.00,VWS V14.01,2013-12-16 07:41:00,
2013-12-16 02:42:00,24.2,22.7,30.17,SSE,165,0.0,0.0,94,0.00,,---,0.00,VWS V14.01,2013-12-16 07:42:00,
2013-12-16 02:43:00,24.2,22.7,30.17,SSE,167,0.0,0.0,94,0.00,,---,0.00,VWS V14.01,2013-12-16 07:43:00,
2013-12-16 02:44:00,24.2,22.7,30.17,SSE,166,0.0,0.0,94,0.00,,---,0.00,VWS V14.01,2013-12-16 07:44:00,
2013-12-16 02:45:00,24.2,22.7,30.17,SSE,165,0.0,0.0,94,0.00,,---,0.00,VWS V14.01,2013-12-16 07:45:00,
2013-12-16 02:46:00,24.2,22.7,30.17,SSE,165,0.0,0.0,94,0.00,,---,0.00,VWS V14.01,2013-12-16 07:46:00,
2013-12-16 02:47:00,24.1,22.6,30.17,SSE,165,0.0,0.0,94,0.00,,---,0.00,VWS V14.01,2013-12-16 07:47:00,
2013-12-16 02:48:00,24.1,22.6,30.17,SSE,165,0.0,0.0,94,0.00,,---,0.00,VWS V14.01,2013-12-16 07:48:00,
2013-12-16 02:49:00,24.1,22.6,30.17,SSE,166,0.0,0.0,94,0.00,,---,0.00,VWS V14.01,2013-12-16 07:49:00,
2013-12-16 02:50:00,24.1,22.6,30.17,SSE,165,0.0,0.0,94,0.00,,---,0.00,VWS V14.01,2013-12-16 07:50:00,
2013-12-16 02:51:00,24.1,22.6,30.17,SSE,165,0.0,0.0,94,0.00,,---,0.00,VWS V14.01,2013-12-16 07:51:00,
2013-12-16 02:52:00,24.1,22.6,30.17,SSE,165,0.0,0.0,94,0.00,,---,0.00,VWS V14.01,2013-12-16 07:52:00,
2013-12-16 02:53:00,24.1,22.6,30.17,SSE,165,0.0,0.0,94,0.00,,---,0.00,VWS V14.01,2013-12-16 07:53:00,
2013-12-16 02:54:00,24.1,22.6,30.17,SSE,166,0.0,0.0,94,0.00,,---,0.00,VWS V14.01,2013-12-16 07:54:00,
2013-12-16 02:55:00,24.1,22.6,30.17,SSE,165,0.0,0.0,94,0.00,,---,0.00,VWS V14.01,2013-12-16 07:55:00,
2013-12-16 02:56:00,24.2,22.7,30.17,SSE,165,0.0,0.0,94,0.00,,---,0.00,VWS V14.01,2013-12-16 07:56:00,
2013-12-16 02:57:00,24.2,22.7,30.17,SSE,165,0.0,0.0,94,0.00,,---,0.00,VWS V14.01,2013-12-16 07:57:00,
2013-12-16 02:58:00,24.2,22.7,30.17,SSE,165,0.0,0.0,94,0.00,,---,0.00,VWS V14.01,2013-12-16 07:58:00,
2013-12-16 02:59:00,24.2,22.7,30.17,SSE,165,0.0,0.0,94,0.00,,---,0.00,VWS V14.01,2013-12-16 07:59:00,
2013-12-16 03:00:00,24.2,22.7,30.17,SSE,165,0.0,0.0,94,0.00,,---,0.00,VWS V14.01,2013-12-16 08:00:00,
2013-12-16 03:01:00,24.3,22.8,30.17,SSE,165,0.0,1.0,94,0.00,,---,0.00,VWS V14.01,2013-12-16 08:01:00,
2013-12-16 03:02:00,24.3,22.8,30.16,SSE,165,0.0,0.0,94,0.00,,---,0.00,VWS V14.01,2013-12-16 08:02:00,
2013-12-16 03:03:00,24.3,22.8,30.16,SSE,166,0.0,1.0,94,0.00,,---,0.00,VWS V14.01,2013-12-16 08:03:00,
2013-12-16 03:04:00,24.3,22.8,30.16,SSE,165,0.0,0.0,94,0.00,,---,0.00,VWS V14.01,2013-12-16 08:04:00,
2013-12-16 03:05:00,24.3,22.8,30.16,SSE,165,0.0,0.0,94,0.00,,---,0.00,VWS V14.01,2013-12-16 08:05:00,
2013-12-16 03:06:00,24.3,22.8,30.16,SSE,165,0.0,0.0,94,0.00,,---,0.00,VWS V14.01,2013-12-16 08:06:00,
2013-12-16 03:07:00,24.4,22.9,30.17,SSE,165,0.0,0.0,94,0.00,,---,0.00,VWS V14.01,2013-12-16 08:07:00,
2013-12-16 03:08:00,24.3,22.8,30.17,SSE,165,0.0,0.0,94,0.00,,---,0.00,VWS V14.01,2013-12-16 08:08:00,
2013-12-16 03:09:00,24.3,22.8,30.17,SSE,165,0.0,0.0,94,0.00,,---,0.00,VWS V14.01,2013-12-16 08:09:00,
2013-12-16 03:10:00,24.3,22.8,30.17,SSE,165,0.0,0.0,94,0.00,,---,0.00,VWS V14.01,2013-12-16 08:10:00,
2013-12-16 03:11:00,24.4,22.9,30.17,SSE,165,0.0,0.0,94,0.00,,---,0.00,VWS V14.01,2013-12-16 08:11:00,
2013-12-16 03:12:00,24.5,23.0,30.17,SSE,160,1.0,1.0,94,0.00,,---,0.00,VWS V14.01,2013-12-16 08:12:00,
2013-12-16 03:13:00,24.4,22.9,30.17,SSE,165,0.0,0.0,94,0.00,,---,0.00,VWS V14.01,2013-12-16 08:13:00,
2013-12-16 03:14:00,24.4,22.9,30.17,SSE,165,0.0,0.0,94,0.00,,---,0.00,VWS V14.01,2013-12-16 08:14:00,
2013-12-16 03:15:00,24.4,22.9,30.17,SSE,165,0.0,0.0,94,0.00,,---,0.00,VWS V14.01,2013-12-16 08:15:00,
2013-12-16 03:16:00,24.5,23.0,30.17,SSE,160,0.0,1.0,94,0.00,,---,0.00,VWS V14.01,2013-12-16 08:16:00,
2013-12-16 03:17:00,24.6,23.1,30.17,SSE,160,1.0,1.0,94,0.00,,---,0.00,VWS V14.01,2013-12-16 08:17:00,
2013-12-16 03:18:00,24.5,23.0,30.17,SSE,160,0.0,0.0,94,0.00,,---,0.00,VWS V14.01,2013-12-16 08:18:00,
2013-12-16 03:19:00,24.6,23.1,30.17,SSE,160,0.0,0.0,94,0.00,,---,0.00,VWS V14.01,2013-12-16 08:19:00,
2013-12-16 03:20:00,24.6,23.1,30.17,SSE,160,1.0,1.0,94,0.00,,---,0.00,VWS V14.01,2013-12-16 08:20:00,
2013-12-16 03:21:00,24.6,23.1,30.17,SSE,160,0.0,1.0,94,0.00,,---,0.00,VWS V14.01,2013-12-16 08:21:00,
2013-12-16 03:22:00,24.6,23.1,30.17,SSE,162,0.0,0.0,94,0.00,,---,0.00,VWS V14.01,2013-12-16 08:22:00,
2013-12-16 03:23:00,24.6,23.1,30.17,SSE,160,0.0,0.0,94,0.00,,---,0.00,VWS V14.01,2013-12-16 08:23:00,
2013-12-16 03:24:00,24.6,23.1,30.17,SSE,160,0.0,0.0,94,0.00,,---,0.00,VWS V14.01,2013-12-16 08:24:00,
2013-12-16 03:25:00,24.6,23.1,30.17,SSE,160,0.0,0.0,94,0.00,,---,0.00,VWS V14.01,2013-12-16 08:25:00,
2013-12-16 03:26:00,24.6,23.1,30.17,SSE,160,0.0,0.0,94,0.00,,---,0.00,VWS V14.01,2013-12-16 08:26:00,
2013-12-16 03:27:00,24.4,22.9,30.17,SSE,160,0.0,0.0,94,0.00,,---,0.00,VWS V14.01,2013-12-16 08:27:00,
2013-12-16 03:28:00,24.5,23.0,30.17,SSE,160,0.0,0.0,94,0.00,,---,0.00,VWS V14.01,2013-12-16 08:28:00,
2013-12-16 03:29:00,24.5,23.0,30.17,SSE,160,0.0,0.0,94,0.00,,---,0.00,VWS V14.01,2013-12-16 08:29:00,
2013-12-16 03:30:00,24.5,23.0,30.17,SSE,160,0.0,0.0,94,0.00,,---,0.00,VWS V14.01,2013-12-16 08:30:00,
2013-12-16 03:31:00,24.4,22.9,30.17,SSE,160,0.0,0.0,94,0.00,,---,0.00,VWS V14.01,2013-12-16 08:31:00,
2013-12-16 03:32:00,24.4,22.9,30.17,SSE,160,0.0,0.0,94,0.00,,---,0.00,VWS V14.01,2013-12-16 08:32:00,
2013-12-16 03:33:00,24.4,22.9,30.17,SSE,162,0.0,0.0,94,0.00,,---,0.00,VWS V14.01,2013-12-16 08:33:00,
2013-12-16 03:34:00,24.5,23.0,30.17,SSE,162,0.0,0.0,94,0.00,,---,0.00,VWS V14.01,2013-12-16 08:34:00,
2013-12-16 03:35:00,24.5,23.0,30.17,SSE,162,0.0,0.0,94,0.00,,---,0.00,VWS V14.01,2013-12-16 08:35:00,
2013-12-16 03:36:00,24.4,22.9,30.17,SSE,160,0.0,0.0,94,0.00,,---,0.00,VWS V14.01,2013-12-16 08:36:00,
2013-12-16 03:37:00,24.5,23.0,30.17,SSE,160,0.0,0.0,94,0.00,,---,0.00,VWS V14.01,2013-12-16 08:37:00,
2013-12-16 03:38:00,24.4,22.9,30.17,SSE,160,0.0,0.0,94,0.00,,---,0.00,VWS V14.01,2013-12-16 08:38:00,
2013-12-16 03:39:00,24.4,22.9,30.17,SSE,160,0.0,0.0,94,0.00,,---,0.00,VWS V14.01,2013-12-16 08:39:00,
2013-12-16 03:40:00,24.5,23.0,30.17,SSE,162,0.0,0.0,94,0.00,,---,0.00,VWS V14.01,2013-12-16 08:40:00,
2013-12-16 03:41:00,24.5,23.0,30.17,SSE,162,1.0,1.0,94,0.00,,---,0.00,VWS V14.01,2013-12-16 08:41:00,
2013-12-16 03:42:00,24.5,23.0,30.16,East,93,0.0,0.0,94,0.00,,---,0.00,VWS V14.01,2013-12-16 08:42:00,
2013-12-16 03:43:00,24.5,23.0,30.17,East,94,0.0,0.0,94,0.00,,---,0.00,VWS V14.01,2013-12-16 08:43:00,
2013-12-16 03:44:00,24.5,23.0,30.17,East,93,0.0,1.0,94,0.00,,---,0.00,VWS V14.01,2013-12-16 08:44:00,
2013-12-16 03:45:00,24.5,23.0,30.16,East,93,0.0,0.0,94,0.00,,---,0.00,VWS V14.01,2013-12-16 08:45:00,
2013-12-16 03:46:00,24.5,23.0,30.16,East,94,1.0,1.0,94,0.00,,---,0.00,VWS V14.01,2013-12-16 08:46:00,
2013-12-16 03:47:00,24.5,23.0,30.16,East,94,0.0,0.0,94,0.00,,---,0.00,VWS V14.01,2013-12-16 08:47:00,
2013-12-16 03:48:00,24.5,23.0,30.17,East,93,0.0,0.0,94,0.00,,---,0.00,VWS V14.01,2013-12-16 08:48:00,
2013-12-16 03:49:00,24.5,23.0,30.16,East,93,0.0,0.0,94,0.00,,---,0.00,VWS V14.01,2013-12-16 08:49:00,
2013-12-16 03:50:00,24.5,23.0,30.16,East,94,0.0,0.0,94,0.00,,---,0.00,VWS V14.01,2013-12-16 08:50:00,
2013-12-16 03:51:00,24.4,22.9,30.16,East,94,0.0,0.0,94,0.00,,---,0.00,VWS V14.01,2013-12-16 08:51:00,
2013-12-16 03:52:00,24.5,23.0,30.16,SSE,167,0.0,0.0,94,0.00,,---,0.00,VWS V14.01,2013-12-16 08:52:00,
2013-12-16 03:53:00,24.4,22.9,30.16,East,94,0.0,1.0,94,0.00,,---,0.00,VWS V14.01,2013-12-16 08:53:00,
2013-12-16 03:54:00,24.4,22.9,30.16,SSE,166,0.0,1.0,94,0.00,,---,0.00,VWS V14.01,2013-12-16 08:54:00,
2013-12-16 03:55:00,24.5,23.0,30.16,SSE,166,0.0,0.0,94,0.00,,---,0.00,VWS V14.01,2013-12-16 08:55:00,
2013-12-16 03:56:00,24.5,23.0,30.16,SSE,167,0.0,0.0,94,0.00,,---,0.00,VWS V14.01,2013-12-16 08:56:00,
2013-12-16 03:57:00,24.5,23.0,30.16,SSE,167,0.0,0.0,94,0.00,,---,0.00,VWS V14.01,2013-12-16 08:57:00,
2013-12-16 03:58:00,24.6,23.1,30.16,SSE,166,0.0,0.0,94,0.00,,---,0.00,VWS V14.01,2013-12-16 08:58:00,
2013-12-16 03:59:00,24.5,23.0,30.16,SSE,167,0.0,0.0,94,0.00,,---,0.00,VWS V14.01,2013-12-16 08:59:00,
2013-12-16 04:00:00,24.5,23.0,30.16,SSE,167,0.0,0.0,94,0.00,,---,0.00,VWS V14.01,2013-12-16 09:00:00,
2013-12-16 04:01:00,24.4,22.9,30.16,SSE,166,0.0,0.0,94,0.00,,---,0.00,VWS V14.01,2013-12-16 09:01:00,
2013-12-16 04:02:00,24.4,22.9,30.16,SSE,150,1.0,1.0,94,0.00,,---,0.00,VWS V14.01,2013-12-16 09:02:00,
2013-12-16 04:03:00,24.4,22.9,30.17,SSE,166,0.0,0.0,94,0.00,,---,0.00,VWS V14.01,2013-12-16 09:03:00,
2013-12-16 04:04:00,24.4,22.9,30.17,SSE,166,0.0,0.0,94,0.00,,---,0.00,VWS V14.01,2013-12-16 09:04:00,
2013-12-16 04:05:00,24.4,22.9,30.16,SSE,161,1.0,1.0,94,0.00,,---,0.00,VWS V14.01,2013-12-16 09:05:00,
2013-12-16 04:06:00,24.4,22.9,30.16,SSE,150,0.0,1.0,94,0.00,,---,0.00,VWS V14.01,2013-12-16 09:06:00,
2013-12-16 04:07:00,24.5,23.0,30.17,SSE,150,1.0,1.0,94,0.00,,---,0.00,VWS V14.01,2013-12-16 09:07:00,
2013-12-16 04:08:00,24.4,22.9,30.16,SSE,150,0.0,0.0,94,0.00,,---,0.00,VWS V14.01,2013-12-16 09:08:00,
2013-12-16 04:09:00,24.5,23.0,30.17,SSE,150,0.0,0.0,94,0.00,,---,0.00,VWS V14.01,2013-12-16 09:09:00,
2013-12-16 04:10:00,24.5,23.0,30.17,SSE,150,0.0,0.0,94,0.00,,---,0.00,VWS V14.01,2013-12-16 09:10:00,
2013-12-16 04:11:00,24.5,23.0,30.17,SSE,150,1.0,1.0,94,0.00,,---,0.00,VWS V14.01,2013-12-16 09:11:00,
2013-12-16 04:12:00,24.5,23.0,30.16,SE,129,0.0,0.0,94,0.00,,---,0.00,VWS V14.01,2013-12-16 09:12:00,
2013-12-16 04:13:00,24.5,23.0,30.17,SE,129,0.0,0.0,94,0.00,,---,0.00,VWS V14.01,2013-12-16 09:13:00,
2013-12-16 04:14:00,24.5,23.0,30.16,SE,130,0.0,1.0,94,0.00,,---,0.00,VWS V14.01,2013-12-16 09:14:00,
2013-12-16 04:15:00,24.5,23.0,30.16,SE,129,0.0,1.0,94,0.00,,---,0.00,VWS V14.01,2013-12-16 09:15:00,
2013-12-16 04:16:00,24.5,23.0,30.16,SE,129,0.0,0.0,94,0.00,,---,0.00,VWS V14.01,2013-12-16 09:16:00,
2013-12-16 04:17:00,24.6,23.1,30.16,SE,129,0.0,0.0,94,0.00,,---,0.00,VWS V14.01,2013-12-16 09:17:00,
2013-12-16 04:18:00,24.5,23.0,30.16,SE,129,0.0,0.0,94,0.00,,---,0.00,VWS V14.01,2013-12-16 09:18:00,
2013-12-16 04:19:00,24.6,23.1,30.16,SE,130,0.0,1.0,94,0.00,,---,0.00,VWS V14.01,2013-12-16 09:19:00,
2013-12-16 04:20:00,24.5,23.0,30.16,SE,130,0.0,0.0,94,0.00,,---,0.00,VWS V14.01,2013-12-16 09:20:00,
2013-12-16 04:21:00,24.6,23.1,30.16,SE,129,0.0,0.0,94,0.00,,---,0.00,VWS V14.01,2013-12-16 09:21:00,
2013-12-16 04:22:00,24.5,23.0,30.16,SE,129,0.0,0.0,94,0.00,,---,0.00,VWS V14.01,2013-12-16 09:22:00,
2013-12-16 04:23:00,24.6,23.1,30.16,SE,130,0.0,0.0,94,0.00,,---,0.00,VWS V14.01,2013-12-16 09:23:00,
2013-12-16 04:24:00,24.6,23.1,30.16,SE,130,0.0,0.0,94,0.00,,---,0.00,VWS V14.01,2013-12-16 09:24:00,
2013-12-16 04:25:00,24.5,23.0,30.16,SE,129,0.0,0.0,94,0.00,,---,0.00,VWS V14.01,2013-12-16 09:25:00,
2013-12-16 04:26:00,24.5,23.0,30.16,SE,130,0.0,0.0,94,0.00,,---,0.00,VWS V14.01,2013-12-16 09:26:00,
2013-12-16 04:27:00,24.4,22.9,30.16,SE,130,0.0,0.0,94,0.00,,---,0.00,VWS V14.01,2013-12-16 09:27:00,
2013-12-16 04:28:00,24.4,22.9,30.16,SE,129,0.0,0.0,94,0.00,,---,0.00,VWS V14.01,2013-12-16 09:28:00,
2013-12-16 04:29:00,24.4,22.9,30.16,SE,130,0.0,0.0,94,0.00,,---,0.00,VWS V14.01,2013-12-16 09:29:00,
2013-12-16 04:30:00,24.4,22.9,30.16,SE,129,0.0,1.0,94,0.00,,---,0.00,VWS V14.01,2013-12-16 09:30:00,
2013-12-16 04:31:00,24.3,22.8,30.16,SE,130,0.0,0.0,94,0.00,,---,0.00,VWS V14.01,2013-12-16 09:31:00,
2013-12-16 04:32:00,24.4,22.9,30.17,SE,129,0.0,1.0,94,0.00,,---,0.00,VWS V14.01,2013-12-16 09:32:00,
2013-12-16 04:33:00,24.3,22.8,30.17,SE,129,0.0,0.0,94,0.00,,---,0.00,VWS V14.01,2013-12-16 09:33:00,
2013-12-16 04:34:00,24.4,22.9,30.17,SE,129,0.0,0.0,94,0.00,,---,0.00,VWS V14.01,2013-12-16 09:34:00,
2013-12-16 04:35:00,24.4,22.9,30.17,SE,129,0.0,1.0,94,0.00,,---,0.00,VWS V14.01,2013-12-16 09:35:00,
2013-12-16 04:36:00,24.4,22.9,30.17,SE,129,0.0,1.0,94,0.00,,---,0.00,VWS V14.01,2013-12-16 09:36:00,
2013-12-16 04:37:00,24.3,22.8,30.17,SE,130,0.0,0.0,94,0.00,,---,0.00,VWS V14.01,2013-12-16 09:37:00,
2013-12-16 04:38:00,24.4,22.9,30.17,SE,130,0.0,0.0,94,0.00,,---,0.00,VWS V14.01,2013-12-16 09:38:00,
2013-12-16 04:39:00,24.3,22.8,30.17,SE,130,0.0,0.0,94,0.00,,---,0.00,VWS V14.01,2013-12-16 09:39:00,
2013-12-16 04:40:00,24.3,22.8,30.17,SE,130,0.0,0.0,94,0.00,,---,0.00,VWS V14.01,2013-12-16 09:40:00,
2013-12-16 04:41:00,24.3,22.8,30.17,SE,129,0.0,0.0,94,0.00,,---,0.00,VWS V14.01,2013-12-16 09:41:00,
2013-12-16 04:42:00,24.1,22.6,30.17,SE,129,0.0,0.0,94,0.00,,---,0.00,VWS V14.01,2013-12-16 09:42:00,
2013-12-16 04:43:00,24.2,22.7,30.17,SE,129,0.0,0.0,94,0.00,,---,0.00,VWS V14.01,2013-12-16 09:43:00,
2013-12-16 04:44:00,24.2,22.7,30.17,SE,129,0.0,0.0,94,0.00,,---,0.00,VWS V14.01,2013-12-16 09:44:00,
2013-12-16 04:45:00,24.2,22.7,30.17,SE,130,0.0,0.0,94,0.00,,---,0.00,VWS V14.01,2013-12-16 09:45:00,
2013-12-16 04:46:00,24.1,22.6,30.17,SE,130,0.0,0.0,94,0.00,,---,0.00,VWS V14.01,2013-12-16 09:46:00,
2013-12-16 04:47:00,24.0,22.5,30.16,SE,129,0.0,0.0,94,0.00,,---,0.00,VWS V14.01,2013-12-16 09:47:00,
2013-12-16 04:48:00,24.1,22.6,30.17,SE,129,0.0,0.0,94,0.00,,---,0.00,VWS V14.01,2013-12-16 09:48:00,
2013-12-16 04:49:00,24.1,22.6,30.17,SE,129,0.0,0.0,94,0.00,,---,0.00,VWS V14.01,2013-12-16 09:49:00,
2013-12-16 04:50:00,24.0,22.5,30.16,SE,129,0.0,0.0,94,0.00,,---,0.00,VWS V14.01,2013-12-16 09:50:00,
2013-12-16 04:51:00,24.0,22.5,30.16,SE,129,0.0,0.0,94,0.00,,---,0.00,VWS V14.01,2013-12-16 09:51:00,
2013-12-16 04:52:00,24.0,22.5,30.17,SE,129,0.0,0.0,94,0.00,,---,0.00,VWS V14.01,2013-12-16 09:52:00,
2013-12-16 04:53:00,24.0,22.5,30.16,SE,129,1.0,1.0,94,0.00,,---,0.00,VWS V14.01,2013-12-16 09:53:00,
2013-12-16 04:54:00,24.0,22.5,30.17,SE,130,1.0,1.0,94,0.00,,---,0.00,VWS V14.01,2013-12-16 09:54:00,
2013-12-16 04:55:00,24.0,22.5,30.17,SE,129,0.0,1.0,94,0.00,,---,0.00,VWS V14.01,2013-12-16 09:55:00,
2013-12-16 04:56:00,24.0,22.5,30.17,SE,130,0.0,0.0,94,0.00,,---,0.00,VWS V14.01,2013-12-16 09:56:00,
2013-12-16 04:57:00,24.1,22.6,30.17,ENE,72,0.0,0.0,94,0.00,,---,0.00,VWS V14.01,2013-12-16 09:57:00,
2013-12-16 04:58:00,24.0,22.5,30.17,ENE,72,1.0,1.0,94,0.00,,---,0.00,VWS V14.01,2013-12-16 09:58:00,
2013-12-16 04:59:00,24.0,22.5,30.17,ENE,72,0.0,1.0,94,0.00,,---,0.00,VWS V14.01,2013-12-16 09:59:00,
2013-12-16 05:00:00,24.0,22.5,30.17,ENE,72,0.0,0.0,94,0.00,,---,0.00,VWS V14.01,2013-12-16 10:00:00,
2013-12-16 05:01:00,24.1,22.6,30.17,ENE,72,0.0,0.0,94,0.00,,---,0.00,VWS V14.01,2013-12-16 10:01:00,
2013-12-16 05:02:00,24.1,22.6,30.17,ENE,72,0.0,0.0,94,0.00,,---,0.00,VWS V14.01,2013-12-16 10:02:00,
2013-12-16 05:03:00,24.1,22.6,30.17,ENE,72,1.0,1.0,94,0.00,,---,0.00,VWS V14.01,2013-12-16 10:03:00,
2013-12-16 05:04:00,24.1,22.6,30.17,ENE,72,0.0,1.0,94,0.00,,---,0.00,VWS V14.01,2013-12-16 10:04:00,
2013-12-16 05:05:00,24.1,22.6,30.17,ENE,72,0.0,0.0,94,0.00,,---,0.00,VWS V14.01,2013-12-16 10:05:00,
2013-12-16 05:06:00,24.1,22.6,30.17,ENE,72,0.0,0.0,94,0.00,,---,0.00,VWS V14.01,2013-12-16 10:06:00,
2013-12-16 05:07:00,24.1,22.6,30.17,ENE,72,0.0,1.0,94,0.00,,---,0.00,VWS V14.01,2013-12-16 10:07:00,
2013-12-16 05:08:00,24.1,22.6,30.16,ENE,72,0.0,1.0,94,0.00,,---,0.00,VWS V14.01,2013-12-16 10:08:00,
2013-12-16 05:09:00,24.2,22.7,30.17,ENE,72,0.0,0.0,94,0.00,,---,0.00,VWS V14.01,2013-12-16 10:09:00,
2013-12-16 05:10:00,24.1,22.6,30.17,ENE,72,1.0,1.0,94,0.00,,---,0.00,VWS V14.01,2013-12-16 10:10:00,
2013-12-16 05:11:00,24.1,22.6,30.17,ENE,72,0.0,1.0,94,0.00,,---,0.00,VWS V14.01,2013-12-16 10:11:00,
2013-12-16 05:12:00,24.0,22.5,30.17,ENE,72,0.0,0.0,94,0.00,,---,0.00,VWS V14.01,2013-12-16 10:12:00,
2013-12-16 05:13:00,24.0,22.5,30.17,ENE,72,0.0,1.0,94,0.00,,---,0.00,VWS V14.01,2013-12-16 10:13:00,
2013-12-16 05:14:00,24.1,22.6,30.17,ENE,72,0.0,0.0,94,0.00,,---,0.00,VWS V14.01,2013-12-16 10:14:00,
2013-12-16 05:15:00,24.1,22.6,30.17,ENE,72,0.0,0.0,94,0.00,,---,0.00,VWS V14.01,2013-12-16 10:15:00,
2013-12-16 05:16:00,24.0,22.5,30.17,ENE,72,0.0,0.0,94,0.00,,---,0.00,VWS V14.01,2013-12-16 10:16:00,
2013-12-16 05:17:00,24.0,22.5,30.17,ENE,72,0.0,0.0,94,0.00,,---,0.00,VWS V14.01,2013-12-16 10:17:00,
2013-12-16 05:18:00,24.0,22.5,30.17,ENE,72,0.0,0.0,94,0.00,,---,0.00,VWS V14.01,2013-12-16 10:18:00,
2013-12-16 05:19:00,24.0,22.5,30.17,ENE,72,0.0,1.0,94,0.00,,---,0.00,VWS V14.01,2013-12-16 10:19:00,
2013-12-16 05:20:00,24.0,22.5,30.17,ENE,72,0.0,0.0,94,0.00,,---,0.00,VWS V14.01,2013-12-16 10:20:00,
2013-12-16 05:21:00,24.0,22.5,30.17,ENE,72,0.0,1.0,94,0.00,,---,0.00,VWS V14.01,2013-12-16 10:21:00,
2013-12-16 05:22:00,24.0,22.5,30.17,ENE,72,0.0,0.0,94,0.00,,---,0.00,VWS V14.01,2013-12-16 10:22:00,
2013-12-16 05:23:00,24.0,22.5,30.17,ENE,72,0.0,1.0,94,0.00,,---,0.00,VWS V14.01,2013-12-16 10:23:00,
2013-12-16 05:24:00,24.0,22.5,30.17,ENE,72,0.0,0.0,94,0.00,,---,0.00,VWS V14.01,2013-12-16 10:24:00,
2013-12-16 05:25:00,24.0,22.5,30.17,ENE,72,0.0,0.0,94,0.00,,---,0.00,VWS V14.01,2013-12-16 10:25:00,
2013-12-16 05:26:00,24.0,22.5,30.17,ENE,72,0.0,0.0,94,0.00,,---,0.00,VWS V14.01,2013-12-16 10:26:00,
2013-12-16 05:27:00,23.9,22.4,30.17,ENE,72,0.0,0.0,94,0.00,,---,0.00,VWS V14.01,2013-12-16 10:27:00,
2013-12-16 05:28:00,23.9,22.4,30.17,ENE,72,0.0,0.0,94,0.00,,---,0.00,VWS V14.01,2013-12-16 10:28:00,
2013-12-16 05:29:00,23.9,22.4,30.17,ENE,72,0.0,0.0,94,0.00,,---,0.00,VWS V14.01,2013-12-16 10:29:00,
2013-12-16 05:30:00,23.9,22.4,30.17,ENE,72,0.0,0.0,94,0.00,,---,0.00,VWS V14.01,2013-12-16 10:30:00,
2013-12-16 05:31:00,23.9,22.4,30.17,ENE,72,0.0,0.0,94,0.00,,---,0.00,VWS V14.01,2013-12-16 10:31:00,
2013-12-16 05:32:00,24.0,22.5,30.17,ENE,72,0.0,0.0,94,0.00,,---,0.00,VWS V14.01,2013-12-16 10:32:00,
2013-12-16 05:33:00,23.9,22.4,30.17,ENE,72,1.0,1.0,94,0.00,,---,0.00,VWS V14.01,2013-12-16 10:33:00,
2013-12-16 05:34:00,23.9,22.4,30.17,ENE,72,0.0,1.0,94,0.00,,---,0.00,VWS V14.01,2013-12-16 10:34:00,
2013-12-16 05:35:00,24.0,22.5,30.17,ENE,72,0.0,0.0,94,0.00,,---,0.00,VWS V14.01,2013-12-16 10:35:00,
2013-12-16 05:36:00,23.9,22.4,30.17,ENE,72,0.0,0.0,94,0.00,,---,0.00,VWS V14.01,2013-12-16 10:36:00,
2013-12-16 05:37:00,23.9,22.4,30.17,ENE,72,0.0,0.0,94,0.00,,---,0.00,VWS V14.01,2013-12-16 10:37:00,
2013-12-16 05:38:00,23.9,22.4,30.17,ENE,72,0.0,0.0,94,0.00,,---,0.00,VWS V14.01,2013-12-16 10:38:00,
2013-12-16 05:39:00,23.9,22.4,30.17,ENE,72,0.0,0.0,94,0.00,,---,0.00,VWS V14.01,2013-12-16 10:39:00,
2013-12-16 05:40:00,23.9,22.4,30.17,ENE,72,0.0,0.0,94,0.00,,---,0.00,VWS V14.01,2013-12-16 10:40:00,
2013-12-16 05:41:00,23.8,22.3,30.17,ENE,72,0.0,0.0,94,0.00,,---,0.00,VWS V14.01,2013-12-16 10:41:00,
2013-12-16 05:42:00,23.9,22.4,30.18,ENE,72,0.0,0.0,94,0.00,,---,0.00,VWS V14.01,2013-12-16 10:42:00,
2013-12-16 05:43:00,23.8,22.3,30.18,ENE,72,0.0,0.0,94,0.00,,---,0.00,VWS V14.01,2013-12-16 10:43:00,
2013-12-16 05:44:00,23.8,22.3,30.18,ENE,72,0.0,0.0,94,0.00,,---,0.00,VWS V14.01,2013-12-16 10:44:00,
2013-12-16 05:45:00,23.9,22.4,30.18,ENE,72,0.0,0.0,94,0.00,,---,0.00,VWS V14.01,2013-12-16 10:45:00,
2013-12-16 05:46:00,23.9,22.4,30.18,ENE,72,0.0,0.0,94,0.00,,---,0.00,VWS V14.01,2013-12-16 10:46:00,
2013-12-16 05:47:00,23.8,22.3,30.18,ENE,72,0.0,0.0,94,0.00,,---,0.00,VWS V14.01,2013-12-16 10:47:00,
2013-12-16 05:48:00,23.8,22.3,30.18,ENE,72,0.0,0.0,94,0.00,,---,0.00,VWS V14.01,2013-12-16 10:48:00,
2013-12-16 05:49:00,23.8,22.3,30.18,ENE,72,0.0,0.0,94,0.00,,---,0.00,VWS V14.01,2013-12-16 10:49:00,
2013-12-16 05:50:00,23.8,22.3,30.18,ENE,72,0.0,0.0,94,0.00,,---,0.00,VWS V14.01,2013-12-16 10:50:00,
2013-12-16 05:51:00,23.8,22.3,30.18,ENE,72,0.0,0.0,94,0.00,,---,0.00,VWS V14.01,2013-12-16 10:51:00,
2013-12-16 05:52:00,23.7,22.2,30.18,ENE,72,0.0,0.0,94,0.00,,---,0.00,VWS V14.01,2013-12-16 10:52:00,
2013-12-16 05:53:00,23.7,22.2,30.18,ENE,72,0.0,0.0,94,0.00,,---,0.00,VWS V14.01,2013-12-16 10:53:00,
2013-12-16 05:54:00,23.7,22.2,30.18,ENE,72,0.0,0.0,94,0.00,,---,0.00,VWS V14.01,2013-12-16 10:54:00,
2013-12-16 05:55:00,23.7,22.2,30.18,ENE,72,0.0,0.0,94,0.00,,---,0.00,VWS V14.01,2013-12-16 10:55:00,
2013-12-16 05:56:00,23.7,22.2,30.18,ENE,72,0.0,0.0,94,0.00,,---,0.00,VWS V14.01,2013-12-16 10:56:00,
2013-12-16 05:57:00,23.7,22.2,30.18,ENE,72,0.0,0.0,94,0.00,,---,0.00,VWS V14.01,2013-12-16 10:57:00,
2013-12-16 05:58:00,23.7,22.2,30.18,ENE,72,0.0,0.0,94,0.00,,---,0.00,VWS V14.01,2013-12-16 10:58:00,
2013-12-16 05:59:00,23.7,22.2,30.18,ENE,72,0.0,0.0,94,0.00,,---,0.00,VWS V14.01,2013-12-16 10:59:00,
2013-12-16 06:00:00,23.7,22.2,30.18,ENE,72,0.0,0.0,94,0.00,,---,0.00,VWS V14.01,2013-12-16 11:00:00,
2013-12-16 06:01:00,23.7,22.2,30.18,ENE,72,0.0,0.0,94,0.00,,---,0.00,VWS V14.01,2013-12-16 11:01:00,
2013-12-16 06:02:00,23.6,22.1,30.18,ENE,72,0.0,0.0,94,0.00,,---,0.00,VWS V14.01,2013-12-16 11:02:00,
2013-12-16 06:03:00,23.6,22.1,30.18,ENE,72,0.0,0.0,94,0.00,,---,0.00,VWS V14.01,2013-12-16 11:03:00,
2013-12-16 06:04:00,23.6,22.1,30.18,ENE,72,0.0,0.0,94,0.00,,---,0.00,VWS V14.01,2013-12-16 11:04:00,
2013-12-16 06:05:00,23.6,22.1,30.18,ENE,72,0.0,0.0,94,0.00,,---,0.00,VWS V14.01,2013-12-16 11:05:00,
2013-12-16 06:06:00,23.6,22.1,30.18,ENE,72,0.0,0.0,94,0.00,,---,0.00,VWS V14.01,2013-12-16 11:06:00,
2013-12-16 06:07:00,23.5,22.0,30.18,ENE,72,0.0,0.0,94,0.00,,---,0.00,VWS V14.01,2013-12-16 11:07:00,
2013-12-16 06:08:00,23.6,22.1,30.18,ENE,72,0.0,0.0,94,0.00,,---,0.00,VWS V14.01,2013-12-16 11:08:00,
2013-12-16 06:09:00,23.6,22.1,30.18,ENE,72,0.0,0.0,94,0.00,,---,0.00,VWS V14.01,2013-12-16 11:09:00,
2013-12-16 06:10:00,23.6,22.1,30.18,ENE,72,0.0,0.0,94,0.00,,---,0.00,VWS V14.01,2013-12-16 11:10:00,
2013-12-16 06:11:00,23.5,22.0,30.18,ENE,72,0.0,0.0,94,0.00,,---,0.00,VWS V14.01,2013-12-16 11:11:00,
2013-12-16 06:12:00,23.4,21.9,30.18,ENE,72,0.0,0.0,94,0.00,,---,0.00,VWS V14.01,2013-12-16 11:12:00,
2013-12-16 06:13:00,23.5,22.0,30.18,ENE,72,0.0,0.0,94,0.00,,---,0.00,VWS V14.01,2013-12-16 11:13:00,
2013-12-16 06:14:00,23.5,22.0,30.18,ENE,72,0.0,0.0,94,0.00,,---,0.00,VWS V14.01,2013-12-16 11:14:00,
2013-12-16 06:15:00,23.5,22.0,30.18,ENE,72,0.0,0.0,94,0.00,,---,0.00,VWS V14.01,2013-12-16 11:15:00,
2013-12-16 06:16:00,23.4,21.9,30.18,ENE,72,0.0,0.0,94,0.00,,---,0.00,VWS V14.01,2013-12-16 11:16:00,
2013-12-16 06:17:00,23.3,21.8,30.18,ENE,72,0.0,0.0,94,0.00,,---,0.00,VWS V14.01,2013-12-16 11:17:00,
2013-12-16 06:18:00,23.4,21.9,30.18,ENE,72,0.0,0.0,94,0.00,,---,0.00,VWS V14.01,2013-12-16 11:18:00,
2013-12-16 06:19:00,23.4,21.9,30.18,ENE,72,0.0,0.0,94,0.00,,---,0.00,VWS V14.01,2013-12-16 11:19:00,
2013-12-16 06:20:00,23.4,21.9,30.18,ENE,72,0.0,0.0,94,0.00,,---,0.00,VWS V14.01,2013-12-16 11:20:00,
2013-12-16 06:21:00,23.4,21.9,30.18,ENE,72,0.0,0.0,94,0.00,,---,0.00,VWS V14.01,2013-12-16 11:21:00,
2013-12-16 06:22:00,23.4,21.9,30.18,ENE,72,0.0,0.0,94,0.00,,---,0.00,VWS V14.01,2013-12-16 11:22:00,
2013-12-16 06:23:00,23.4,21.9,30.18,ENE,72,0.0,0.0,94,0.00,,---,0.00,VWS V14.01,2013-12-16 11:23:00,
2013-12-16 06:24:00,23.4,21.9,30.18,ENE,72,0.0,0.0,94,0.00,,---,0.00,VWS V14.01,2013-12-16 11:24:00,
2013-12-16 06:25:00,23.4,21.9,30.18,ENE,72,0.0,0.0,94,0.00,,---,0.00,VWS V14.01,2013-12-16 11:25:00,
2013-12-16 06:26:00,23.4,21.9,30.18,ENE,72,0.0,0.0,94,0.00,,---,0.00,VWS V14.01,2013-12-16 11:26:00,
2013-12-16 06:27:00,23.4,22.2,30.18,ENE,72,0.0,0.0,95,0.00,,---,0.00,VWS V14.01,2013-12-16 11:27:00,
2013-12-16 06:28:00,23.4,21.9,30.18,ENE,72,0.0,0.0,94,0.00,,---,0.00,VWS V14.01,2013-12-16 11:28:00,
2013-12-16 06:29:00,23.4,21.9,30.18,ENE,72,0.0,0.0,94,0.00,,---,0.00,VWS V14.01,2013-12-16 11:29:00,
2013-12-16 06:30:00,23.4,21.9,30.18,ENE,72,0.0,0.0,94,0.00,,---,0.00,VWS V14.01,2013-12-16 11:30:00,
2013-12-16 06:31:00,23.4,22.2,30.18,ENE,72,0.0,0.0,95,0.00,,---,0.00,VWS V14.01,2013-12-16 11:31:00,
2013-12-16 06:32:00,23.4,22.2,30.18,ENE,72,0.0,0.0,95,0.00,,---,0.00,VWS V14.01,2013-12-16 11:32:00,
2013-12-16 06:33:00,23.4,22.2,30.18,ENE,72,0.0,0.0,95,0.00,,---,0.00,VWS V14.01,2013-12-16 11:33:00,
2013-12-16 06:34:00,23.4,22.2,30.18,ENE,72,0.0,0.0,95,0.00,,---,0.00,VWS V14.01,2013-12-16 11:34:00,
2013-12-16 06:35:00,23.4,22.2,30.18,ENE,72,0.0,0.0,95,0.00,,---,0.00,VWS V14.01,2013-12-16 11:35:00,
2013-12-16 06:36:00,23.3,22.1,30.18,ENE,72,0.0,0.0,95,0.00,,---,0.00,VWS V14.01,2013-12-16 11:36:00,
2013-12-16 06:37:00,23.2,22.0,30.18,ENE,72,0.0,1.0,95,0.00,,---,0.00,VWS V14.01,2013-12-16 11:37:00,
2013-12-16 06:38:00,23.3,22.1,30.18,ENE,72,0.0,0.0,95,0.00,,---,0.00,VWS V14.01,2013-12-16 11:38:00,
2013-12-16 06:39:00,23.2,22.0,30.18,ENE,72,0.0,0.0,95,0.00,,---,0.00,VWS V14.01,2013-12-16 11:39:00,
2013-12-16 06:40:00,23.2,22.0,30.18,ENE,72,1.0,1.0,95,0.00,,---,0.00,VWS V14.01,2013-12-16 11:40:00,
2013-12-16 06:41:00,23.2,22.0,30.18,ENE,72,0.0,1.0,95,0.00,,---,0.00,VWS V14.01,2013-12-16 11:41:00,
2013-12-16 06:42:00,23.2,22.0,30.18,ENE,72,0.0,0.0,95,0.00,,---,0.00,VWS V14.01,2013-12-16 11:42:00,
2013-12-16 06:43:00,23.2,22.0,30.18,ENE,72,0.0,1.0,95,0.00,,---,0.00,VWS V14.01,2013-12-16 11:43:00,
2013-12-16 06:44:00,23.2,22.0,30.18,ENE,72,0.0,0.0,95,0.00,,---,0.00,VWS V14.01,2013-12-16 11:44:00,
2013-12-16 06:45:00,23.2,22.0,30.18,ENE,72,0.0,0.0,95,0.00,,---,0.00,VWS V14.01,2013-12-16 11:45:00,
2013-12-16 06:46:00,23.2,22.0,30.18,ENE,72,0.0,0.0,95,0.00,,---,0.00,VWS V14.01,2013-12-16 11:46:00,
2013-12-16 06:47:00,23.2,22.0,30.18,ENE,72,0.0,0.0,95,0.00,,---,0.00,VWS V14.01,2013-12-16 11:47:00,
2013-12-16 06:48:00,23.2,22.0,30.18,ENE,72,0.0,0.0,95,0.00,,---,0.00,VWS V14.01,2013-12-16 11:48:00,
2013-12-16 06:49:00,23.2,22.0,30.18,ENE,72,0.0,0.0,95,0.00,,---,0.00,VWS V14.01,2013-12-16 11:49:00,
2013-12-16 06:50:00,23.2,22.0,30.18,ENE,72,0.0,0.0,95,0.00,,---,0.00,VWS V14.01,2013-12-16 11:50:00,
2013-12-16 06:51:00,23.2,22.0,30.17,ENE,72,0.0,0.0,95,0.00,,---,0.00,VWS V14.01,2013-12-16 11:51:00,
2013-12-16 06:52:00,23.2,22.0,30.18,ENE,72,0.0,0.0,95,0.00,,---,0.00,VWS V14.01,2013-12-16 11:52:00,
2013-12-16 06:53:00,23.2,22.0,30.18,ENE,72,0.0,0.0,95,0.00,,---,0.00,VWS V14.01,2013-12-16 11:53:00,
2013-12-16 06:54:00,23.2,22.0,30.18,ENE,72,1.0,1.0,95,0.00,,---,0.00,VWS V14.01,2013-12-16 11:54:00,
2013-12-16 06:55:00,23.2,22.0,30.18,ENE,72,0.0,1.0,95,0.00,,---,0.00,VWS V14.01,2013-12-16 11:55:00,
2013-12-16 06:56:00,23.2,22.0,30.18,ENE,72,0.0,0.0,95,0.00,,---,0.00,VWS V14.01,2013-12-16 11:56:00,
2013-12-16 06:57:00,23.1,21.9,30.18,ENE,72,0.0,0.0,95,0.00,,---,0.00,VWS V14.01,2013-12-16 11:57:00,
2013-12-16 06:58:00,23.2,22.0,30.18,ENE,72,0.0,0.0,95,0.00,,---,0.00,VWS V14.01,2013-12-16 11:58:00,
2013-12-16 06:59:00,23.1,21.9,30.18,ENE,72,0.0,0.0,95,0.00,,---,0.00,VWS V14.01,2013-12-16 11:59:00,
2013-12-16 07:00:00,23.1,21.9,30.18,ENE,72,0.0,0.0,95,0.00,,---,0.00,VWS V14.01,2013-12-16 12:00:00,
2013-12-16 07:01:00,23.1,21.9,30.18,ENE,72,0.0,0.0,95,0.00,,---,0.00,VWS V14.01,2013-12-16 12:01:00,
2013-12-16 07:02:00,23.0,21.8,30.18,ENE,72,0.0,0.0,95,0.00,,---,0.00,VWS V14.01,2013-12-16 12:02:00,
2013-12-16 07:03:00,23.1,21.9,30.18,ENE,72,0.0,0.0,95,0.00,,---,0.00,VWS V14.01,2013-12-16 12:03:00,
2013-12-16 07:04:00,23.1,21.9,30.18,ENE,72,0.0,0.0,95,0.00,,---,0.00,VWS V14.01,2013-12-16 12:04:00,
2013-12-16 07:05:00,23.0,21.8,30.18,ENE,72,0.0,0.0,95,0.00,,---,0.00,VWS V14.01,2013-12-16 12:05:00,
2013-12-16 07:06:00,23.1,21.9,30.18,ENE,72,0.0,0.0,95,0.00,,---,0.00,VWS V14.01,2013-12-16 12:06:00,
2013-12-16 07:07:00,23.0,21.8,30.18,ENE,72,0.0,0.0,95,0.00,,---,0.00,VWS V14.01,2013-12-16 12:07:00,
2013-12-16 07:08:00,23.1,21.9,30.19,ENE,72,0.0,0.0,95,0.00,,---,0.00,VWS V14.01,2013-12-16 12:08:00,
2013-12-16 07:09:00,23.0,21.8,30.19,ENE,72,0.0,0.0,95,0.00,,---,0.00,VWS V14.01,2013-12-16 12:09:00,
2013-12-16 07:10:00,23.0,21.8,30.18,ENE,72,0.0,0.0,95,0.00,,---,0.00,VWS V14.01,2013-12-16 12:10:00,
2013-12-16 07:11:00,23.0,21.8,30.18,ENE,72,0.0,0.0,95,0.00,,---,0.00,VWS V14.01,2013-12-16 12:11:00,
2013-12-16 07:12:00,23.0,21.8,30.19,ENE,72,0.0,0.0,95,0.00,,---,0.00,VWS V14.01,2013-12-16 12:12:00,
2013-12-16 07:13:00,23.0,21.8,30.19,ENE,72,0.0,0.0,95,0.00,,---,0.00,VWS V14.01,2013-12-16 12:13:00,
2013-12-16 07:14:00,23.0,21.8,30.18,ENE,72,0.0,0.0,95,0.00,,---,0.00,VWS V14.01,2013-12-16 12:14:00,
2013-12-16 07:15:00,23.0,21.8,30.18,ENE,72,0.0,1.0,95,0.00,,---,0.00,VWS V14.01,2013-12-16 12:15:00,
2013-12-16 07:16:00,23.0,21.8,30.19,ENE,72,0.0,0.0,95,0.00,,---,0.00,VWS V14.01,2013-12-16 12:16:00,
2013-12-16 07:17:00,23.1,21.9,30.19,ENE,72,0.0,0.0,95,0.00,,---,0.00,VWS V14.01,2013-12-16 12:17:00,
2013-12-16 07:18:00,23.0,21.8,30.19,ENE,72,0.0,1.0,95,0.00,,---,0.00,VWS V14.01,2013-12-16 12:18:00,
2013-12-16 07:19:00,23.0,21.8,30.18,ENE,72,0.0,0.0,95,0.00,,---,0.00,VWS V14.01,2013-12-16 12:19:00,
2013-12-16 07:20:00,23.1,21.9,30.19,ENE,72,0.0,0.0,95,0.00,,---,0.00,VWS V14.01,2013-12-16 12:20:00,
2013-12-16 07:21:00,23.1,21.9,30.19,ENE,72,0.0,0.0,95,0.00,,---,0.00,VWS V14.01,2013-12-16 12:21:00,
2013-12-16 07:22:00,23.1,21.9,30.19,ENE,72,0.0,0.0,95,0.00,,---,0.00,VWS V14.01,2013-12-16 12:22:00,
2013-12-16 07:23:00,23.1,21.9,30.19,ENE,72,0.0,0.0,95,0.00,,---,0.00,VWS V14.01,2013-12-16 12:23:00,
2013-12-16 07:24:00,23.1,21.9,30.19,ENE,72,0.0,0.0,95,0.00,,---,0.00,VWS V14.01,2013-12-16 12:24:00,
2013-12-16 07:25:00,23.1,21.9,30.19,ENE,72,0.0,0.0,95,0.00,,---,0.00,VWS V14.01,2013-12-16 12:25:00,
2013-12-16 07:26:00,23.2,22.0,30.19,ENE,72,0.0,0.0,95,0.00,,---,0.00,VWS V14.01,2013-12-16 12:26:00,
2013-12-16 07:27:00,23.2,22.0,30.19,ENE,72,0.0,0.0,95,0.00,,---,0.00,VWS V14.01,2013-12-16 12:27:00,
2013-12-16 07:28:00,23.2,22.0,30.19,ENE,72,0.0,0.0,95,0.00,,---,0.00,VWS V14.01,2013-12-16 12:28:00,
2013-12-16 07:29:00,23.2,22.0,30.19,ENE,72,0.0,0.0,95,0.00,,---,0.00,VWS V14.01,2013-12-16 12:29:00,
2013-12-16 07:30:00,23.2,22.0,30.19,ENE,72,0.0,0.0,95,0.00,,---,0.00,VWS V14.01,2013-12-16 12:30:00,
2013-12-16 07:31:00,23.2,22.0,30.19,ENE,72,0.0,0.0,95,0.00,,---,0.00,VWS V14.01,2013-12-16 12:31:00,
2013-12-16 07:32:00,23.4,22.2,30.19,ENE,72,0.0,0.0,95,0.00,,---,0.00,VWS V14.01,2013-12-16 12:32:00,
2013-12-16 07:33:00,23.3,22.1,30.19,ENE,72,0.0,0.0,95,0.00,,---,0.00,VWS V14.01,2013-12-16 12:33:00,
2013-12-16 07:34:00,23.4,22.2,30.19,ENE,72,1.0,1.0,95,0.00,,---,0.00,VWS V14.01,2013-12-16 12:34:00,
2013-12-16 07:35:00,23.4,22.2,30.19,ENE,72,0.0,1.0,95,0.00,,---,0.00,VWS V14.01,2013-12-16 12:35:00,
2013-12-16 07:36:00,23.4,22.2,30.19,ENE,72,0.0,0.0,95,0.00,,---,0.00,VWS V14.01,2013-12-16 12:36:00,
2013-12-16 07:37:00,23.6,22.4,30.19,ENE,72,0.0,0.0,95,0.00,,---,0.00,VWS V14.01,2013-12-16 12:37:00,
2013-12-16 07:38:00,23.5,22.3,30.19,ENE,72,0.0,1.0,95,0.00,,---,0.00,VWS V14.01,2013-12-16 12:38:00,
2013-12-16 07:39:00,23.6,22.4,30.19,ENE,72,0.0,1.0,95,0.00,,---,0.00,VWS V14.01,2013-12-16 12:39:00,
2013-12-16 07:40:00,23.6,22.4,30.19,ENE,72,0.0,1.0,95,0.00,,---,0.00,VWS V14.01,2013-12-16 12:40:00,
2013-12-16 07:41:00,23.7,22.5,30.19,ENE,72,0.0,0.0,95,0.00,,---,0.00,VWS V14.01,2013-12-16 12:41:00,
2013-12-16 07:42:00,23.9,22.7,30.19,ENE,72,0.0,0.0,95,0.00,,---,0.00,VWS V14.01,2013-12-16 12:42:00,
2013-12-16 07:43:00,23.8,22.6,30.19,ENE,72,0.0,0.0,95,0.00,,---,0.00,VWS V14.01,2013-12-16 12:43:00,
2013-12-16 07:44:00,23.8,22.6,30.19,ENE,72,0.0,0.0,95,0.00,,---,0.00,VWS V14.01,2013-12-16 12:44:00,
2013-12-16 07:45:00,23.8,22.6,30.19,ENE,72,0.0,0.0,95,0.00,,---,0.00,VWS V14.01,2013-12-16 12:45:00,
2013-12-16 07:46:00,23.9,22.7,30.19,ENE,72,0.0,0.0,95,0.00,,---,0.00,VWS V14.01,2013-12-16 12:46:00,
2013-12-16 07:47:00,24.1,22.9,30.19,ENE,72,0.0,0.0,95,0.00,,---,0.00,VWS V14.01,2013-12-16 12:47:00,
2013-12-16 07:48:00,24.0,22.8,30.19,ENE,72,0.0,0.0,95,0.00,,---,0.00,VWS V14.01,2013-12-16 12:48:00,
2013-12-16 07:49:00,24.1,22.9,30.19,ENE,72,0.0,0.0,95,0.00,,---,0.00,VWS V14.01,2013-12-16 12:49:00,
2013-12-16 07:50:00,24.1,22.9,30.19,ENE,72,0.0,1.0,95,0.00,,---,0.00,VWS V14.01,2013-12-16 12:50:00,
2013-12-16 07:51:00,24.2,23.0,30.19,ENE,72,0.0,0.0,95,0.00,,---,0.00,VWS V14.01,2013-12-16 12:51:00,
2013-12-16 07:52:00,24.4,23.2,30.19,ENE,72,1.0,1.0,95,0.00,,---,0.00,VWS V14.01,2013-12-16 12:52:00,
2013-12-16 07:53:00,24.3,23.1,30.19,ENE,72,0.0,0.0,95,0.00,,---,0.00,VWS V14.01,2013-12-16 12:53:00,
2013-12-16 07:54:00,24.3,23.1,30.19,ENE,72,1.0,1.0,95,0.00,,---,0.00,VWS V14.01,2013-12-16 12:54:00,
2013-12-16 07:55:00,24.4,23.2,30.19,ENE,72,0.0,1.0,95,0.00,,---,0.00,VWS V14.01,2013-12-16 12:55:00,
2013-12-16 07:56:00,24.5,23.3,30.19,ENE,72,0.0,1.0,95,0.00,,---,0.00,VWS V14.01,2013-12-16 12:56:00,
2013-12-16 07:57:00,24.7,23.5,30.19,ENE,72,0.0,0.0,95,0.00,,---,0.00,VWS V14.01,2013-12-16 12:57:00,
2013-12-16 07:58:00,24.6,23.4,30.19,ENE,72,0.0,0.0,95,0.00,,---,0.00,VWS V14.01,2013-12-16 12:58:00,
2013-12-16 07:59:00,24.7,23.5,30.19,ENE,72,0.0,0.0,95,0.00,,---,0.00,VWS V14.01,2013-12-16 12:59:00,
2013-12-16 08:00:00,24.7,23.5,30.19,ENE,72,0.0,0.0,95,0.00,,---,0.00,VWS V14.01,2013-12-16 13:00:00,
2013-12-16 08:01:00,24.8,23.6,30.19,ENE,72,0.0,0.0,95,0.00,,---,0.00,VWS V14.01,2013-12-16 13:01:00,
2013-12-16 08:02:00,25.1,23.9,30.19,ENE,72,0.0,0.0,95,0.00,,---,0.00,VWS V14.01,2013-12-16 13:02:00,
2013-12-16 08:03:00,24.9,23.7,30.19,ENE,72,0.0,0.0,95,0.00,,---,0.00,VWS V14.01,2013-12-16 13:03:00,
2013-12-16 08:04:00,25.0,23.8,30.19,ENE,72,0.0,0.0,95,0.00,,---,0.00,VWS V14.01,2013-12-16 13:04:00,
2013-12-16 08:05:00,25.1,23.9,30.19,ENE,72,0.0,1.0,95,0.00,,---,0.00,VWS V14.01,2013-12-16 13:05:00,
2013-12-16 08:06:00,25.2,24.0,30.19,ENE,72,0.0,0.0,95,0.00,,---,0.00,VWS V14.01,2013-12-16 13:06:00,
2013-12-16 08:07:00,25.6,24.4,30.19,ENE,72,0.0,0.0,95,0.00,,---,0.00,VWS V14.01,2013-12-16 13:07:00,
2013-12-16 08:08:00,25.4,24.2,30.19,ENE,72,0.0,0.0,95,0.00,,---,0.00,VWS V14.01,2013-12-16 13:08:00,
2013-12-16 08:09:00,25.5,24.3,30.19,ENE,72,0.0,0.0,95,0.00,,---,0.00,VWS V14.01,2013-12-16 13:09:00,
2013-12-16 08:10:00,25.6,24.4,30.19,ENE,72,0.0,0.0,95,0.00,,---,0.00,VWS V14.01,2013-12-16 13:10:00,
2013-12-16 08:11:00,25.7,24.5,30.19,ENE,72,0.0,0.0,95,0.00,,---,0.00,VWS V14.01,2013-12-16 13:11:00,
2013-12-16 08:12:00,26.2,25.0,30.19,ENE,72,0.0,0.0,95,0.00,,---,0.00,VWS V14.01,2013-12-16 13:12:00,
2013-12-16 08:13:00,25.9,24.7,30.19,ENE,72,0.0,1.0,95,0.00,,---,0.00,VWS V14.01,2013-12-16 13:13:00,
2013-12-16 08:14:00,26.0,24.8,30.19,ENE,72,0.0,1.0,95,0.00,,---,0.00,VWS V14.01,2013-12-16 13:14:00,
2013-12-16 08:15:00,26.1,24.9,30.19,ENE,72,0.0,0.0,95,0.00,,---,0.00,VWS V14.01,2013-12-16 13:15:00,
2013-12-16 08:16:00,26.3,25.1,30.19,ENE,72,0.0,0.0,95,0.00,,---,0.00,VWS V14.01,2013-12-16 13:16:00,
2013-12-16 08:17:00,26.8,25.6,30.19,ENE,72,0.0,0.0,95,0.00,,---,0.00,VWS V14.01,2013-12-16 13:17:00,
2013-12-16 08:18:00,26.5,25.3,30.19,ENE,72,0.0,0.0,95,0.00,,---,0.00,VWS V14.01,2013-12-16 13:18:00,
2013-12-16 08:19:00,26.6,25.4,30.19,ENE,72,0.0,1.0,95,0.00,,---,0.00,VWS V14.01,2013-12-16 13:19:00,
2013-12-16 08:20:00,26.7,25.5,30.19,ENE,72,0.0,0.0,95,0.00,,---,0.00,VWS V14.01,2013-12-16 13:20:00,
2013-12-16 08:21:00,26.8,25.6,30.19,ENE,72,0.0,0.0,95,0.00,,---,0.00,VWS V14.01,2013-12-16 13:21:00,
2013-12-16 08:22:00,27.3,26.1,30.20,ENE,72,0.0,0.0,95,0.00,,---,0.00,VWS V14.01,2013-12-16 13:22:00,
2013-12-16 08:23:00,27.1,25.9,30.19,ENE,72,0.0,0.0,95,0.00,,---,0.00,VWS V14.01,2013-12-16 13:23:00,
2013-12-16 08:24:00,27.2,26.0,30.19,ENE,72,0.0,0.0,95,0.00,,---,0.00,VWS V14.01,2013-12-16 13:24:00,
2013-12-16 08:25:00,27.3,26.1,30.19,ENE,72,0.0,0.0,95,0.00,,---,0.00,VWS V14.01,2013-12-16 13:25:00,
2013-12-16 08:26:00,27.4,26.4,30.20,ENE,72,0.0,0.0,96,0.00,,---,0.00,VWS V14.01,2013-12-16 13:26:00,
2013-12-16 08:27:00,27.9,26.9,30.20,ENE,72,0.0,0.0,96,0.00,,---,0.00,VWS V14.01,2013-12-16 13:27:00,
2013-12-16 08:28:00,27.7,26.7,30.20,ENE,72,0.0,0.0,96,0.00,,---,0.00,VWS V14.01,2013-12-16 13:28:00,
2013-12-16 08:29:00,27.7,26.7,30.20,ENE,72,0.0,0.0,96,0.00,,---,0.00,VWS V14.01,2013-12-16 13:29:00,
2013-12-16 08:30:00,27.9,26.9,30.20,ENE,72,0.0,0.0,96,0.00,,---,0.00,VWS V14.01,2013-12-16 13:30:00,
2013-12-16 08:31:00,28.0,27.0,30.20,ENE,72,0.0,0.0,96,0.00,,---,0.00,VWS V14.01,2013-12-16 13:31:00,
2013-12-16 08:32:00,28.5,27.5,30.20,ENE,72,0.0,0.0,96,0.00,,---,0.00,VWS V14.01,2013-12-16 13:32:00,
2013-12-16 08:33:00,28.2,27.2,30.20,ENE,72,0.0,0.0,96,0.00,,---,0.00,VWS V14.01,2013-12-16 13:33:00,
2013-12-16 08:34:00,28.3,27.3,30.20,ENE,72,0.0,0.0,96,0.00,,---,0.00,VWS V14.01,2013-12-16 13:34:00,
2013-12-16 08:35:00,28.4,27.4,30.20,ENE,72,0.0,0.0,96,0.00,,---,0.00,VWS V14.01,2013-12-16 13:35:00,
2013-12-16 08:36:00,28.5,27.5,30.20,ENE,72,0.0,0.0,96,0.00,,---,0.00,VWS V14.01,2013-12-16 13:36:00,
2013-12-16 08:37:00,29.1,28.1,30.20,ENE,72,0.0,0.0,96,0.00,,---,0.00,VWS V14.01,2013-12-16 13:37:00,
2013-12-16 08:38:00,28.8,27.8,30.20,ENE,72,0.0,0.0,96,0.00,,---,0.00,VWS V14.01,2013-12-16 13:38:00,
2013-12-16 08:39:00,28.9,27.9,30.20,ENE,72,0.0,0.0,96,0.00,,---,0.00,VWS V14.01,2013-12-16 13:39:00,
2013-12-16 08:40:00,29.1,28.1,30.20,ENE,72,0.0,1.0,96,0.00,,---,0.00,VWS V14.01,2013-12-16 13:40:00,
2013-12-16 08:41:00,29.2,28.2,30.20,ENE,72,0.0,0.0,96,0.00,,---,0.00,VWS V14.01,2013-12-16 13:41:00,
2013-12-16 08:42:00,29.7,28.7,30.20,ENE,72,0.0,0.0,96,0.00,,---,0.00,VWS V14.01,2013-12-16 13:42:00,
2013-12-16 08:43:00,29.4,28.4,30.20,ENE,72,0.0,0.0,96,0.00,,---,0.00,VWS V14.01,2013-12-16 13:43:00,
2013-12-16 08:44:00,29.6,28.6,30.20,ENE,72,0.0,0.0,96,0.00,,---,0.00,VWS V14.01,2013-12-16 13:44:00,
2013-12-16 08:45:00,29.7,28.7,30.20,ENE,72,0.0,0.0,96,0.00,,---,0.00,VWS V14.01,2013-12-16 13:45:00,
2013-12-16 08:46:00,29.9,28.9,30.20,ENE,72,0.0,0.0,96,0.00,,---,0.00,VWS V14.01,2013-12-16 13:46:00,
2013-12-16 08:47:00,30.6,29.6,30.21,ENE,72,0.0,0.0,96,0.00,,---,0.00,VWS V14.01,2013-12-16 13:47:00,
2013-12-16 08:48:00,30.2,29.2,30.21,ENE,72,0.0,0.0,96,0.00,,---,0.00,VWS V14.01,2013-12-16 13:48:00,
2013-12-16 08:49:00,30.4,29.4,30.21,ENE,72,0.0,0.0,96,0.00,,---,0.00,VWS V14.01,2013-12-16 13:49:00,
2013-12-16 08:50:00,30.5,29.5,30.21,ENE,72,0.0,0.0,96,0.00,,---,0.00,VWS V14.01,2013-12-16 13:50:00,
2013-12-16 08:51:00,30.7,29.7,30.21,ENE,72,0.0,0.0,96,0.00,,---,0.00,VWS V14.01,2013-12-16 13:51:00,
2013-12-16 08:52:00,31.3,30.3,30.21,ENE,72,0.0,0.0,96,0.00,,---,0.00,VWS V14.01,2013-12-16 13:52:00,
2013-12-16 08:53:00,30.9,29.9,30.21,ENE,72,0.0,0.0,96,0.00,,---,0.00,VWS V14.01,2013-12-16 13:53:00,
2013-12-16 08:54:00,31.0,30.0,30.21,ENE,72,0.0,0.0,96,0.00,,---,0.00,VWS V14.01,2013-12-16 13:54:00,
2013-12-16 08:55:00,31.2,30.2,30.21,ENE,72,0.0,0.0,96,0.00,,---,0.00,VWS V14.01,2013-12-16 13:55:00,
2013-12-16 08:56:00,31.3,30.3,30.21,ENE,72,0.0,0.0,96,0.00,,---,0.00,VWS V14.01,2013-12-16 13:56:00,
2013-12-16 08:57:00,31.9,30.6,30.21,ENE,72,0.0,0.0,95,0.00,,---,0.00,VWS V14.01,2013-12-16 13:57:00,
2013-12-16 08:58:00,31.6,30.6,30.21,ENE,72,0.0,0.0,96,0.00,,---,0.00,VWS V14.01,2013-12-16 13:58:00,
2013-12-16 08:59:00,31.7,30.4,30.21,ENE,72,0.0,0.0,95,0.00,,---,0.00,VWS V14.01,2013-12-16 13:59:00,
2013-12-16 09:00:00,31.8,30.5,30.21,ENE,72,0.0,0.0,95,0.00,,---,0.00,VWS V14.01,2013-12-16 14:00:00,
2013-12-16 09:01:00,32.0,30.7,30.21,ENE,72,0.0,0.0,95,0.00,,---,0.00,VWS V14.01,2013-12-16 14:01:00,
2013-12-16 09:02:00,32.5,31.2,30.21,ENE,72,0.0,0.0,95,0.00,,---,0.00,VWS V14.01,2013-12-16 14:02:00,
2013-12-16 09:03:00,32.2,30.9,30.21,ENE,72,0.0,0.0,95,0.00,,---,0.00,VWS V14.01,2013-12-16 14:03:00,
2013-12-16 09:04:00,32.4,31.1,30.21,ENE,72,0.0,0.0,95,0.00,,---,0.00,VWS V14.01,2013-12-16 14:04:00,
2013-12-16 09:05:00,32.5,31.2,30.21,ENE,72,0.0,0.0,95,0.00,,---,0.00,VWS V14.01,2013-12-16 14:05:00,
2013-12-16 09:06:00,32.6,31.3,30.21,ENE,72,1.0,1.0,95,0.00,,---,0.00,VWS V14.01,2013-12-16 14:06:00,
2013-12-16 09:07:00,33.1,31.6,30.22,ENE,72,0.0,0.0,94,0.00,,---,0.00,VWS V14.01,2013-12-16 14:07:00,
2013-12-16 09:08:00,32.8,31.3,30.21,ENE,72,0.0,0.0,94,0.00,,---,0.00,VWS V14.01,2013-12-16 14:08:00,
2013-12-16 09:09:00,32.9,31.4,30.22,ENE,72,0.0,0.0,94,0.00,,---,0.00,VWS V14.01,2013-12-16 14:09:00,
2013-12-16 09:10:00,33.0,31.5,30.22,ENE,72,0.0,0.0,94,0.00,,---,0.00,VWS V14.01,2013-12-16 14:10:00,
2013-12-16 09:11:00,33.1,31.6,30.22,ENE,72,0.0,1.0,94,0.00,,---,0.00,VWS V14.01,2013-12-16 14:11:00,
2013-12-16 09:12:00,33.7,31.6,30.21,ENE,72,0.0,0.0,92,0.00,,---,0.00,VWS V14.01,2013-12-16 14:12:00,
2013-12-16 09:13:00,33.3,31.5,30.22,ENE,72,0.0,1.0,93,0.00,,---,0.00,VWS V14.01,2013-12-16 14:13:00,
2013-12-16 09:14:00,33.5,31.7,30.22,ENE,72,0.0,0.0,93,0.00,,---,0.00,VWS V14.01,2013-12-16 14:14:00,
2013-12-16 09:15:00,33.6,31.8,30.22,ENE,72,0.0,0.0,93,0.00,,---,0.00,VWS V14.01,2013-12-16 14:15:00,
2013-12-16 09:16:00,33.8,31.7,30.21,ENE,72,0.0,0.0,92,0.00,,---,0.00,VWS V14.01,2013-12-16 14:16:00,
2013-12-16 09:17:00,34.7,31.8,30.21,East,80,0.0,0.0,89,0.00,,---,0.00,VWS V14.01,2013-12-16 14:17:00,
2013-12-16 09:18:00,34.2,31.6,30.21,ENE,76,1.0,1.0,90,0.00,,---,0.00,VWS V14.01,2013-12-16 14:18:00,
2013-12-16 09:19:00,34.4,31.8,30.22,East,80,0.0,1.0,90,0.00,,---,0.00,VWS V14.01,2013-12-16 14:19:00,
2013-12-16 09:20:00,34.7,31.8,30.21,East,80,0.0,1.0,89,0.00,,---,0.00,VWS V14.01,2013-12-16 14:20:00,
2013-12-16 09:21:00,34.9,31.7,30.22,East,80,0.0,1.0,88,0.00,,---,0.00,VWS V14.01,2013-12-16 14:21:00,
2013-12-16 09:22:00,36.1,32.3,30.21,SE,142,1.0,1.0,86,0.00,,---,0.00,VWS V14.01,2013-12-16 14:22:00,
2013-12-16 09:23:00,35.5,32.0,30.22,East,80,0.0,1.0,87,0.00,,---,0.00,VWS V14.01,2013-12-16 14:23:00,
2013-12-16 09:24:00,35.8,32.3,30.22,East,80,0.0,1.0,87,0.00,,---,0.00,VWS V14.01,2013-12-16 14:24:00,
2013-12-16 09:25:00,36.0,32.2,30.21,East,80,0.0,0.0,86,0.00,,---,0.00,VWS V14.01,2013-12-16 14:25:00,
2013-12-16 09:26:00,36.4,32.6,30.21,SE,141,0.0,1.0,86,0.00,,---,0.00,VWS V14.01,2013-12-16 14:26:00,
2013-12-16 09:27:00,37.4,33.6,30.22,SW,226,0.0,0.0,86,0.00,,---,0.00,VWS V14.01,2013-12-16 14:27:00,
2013-12-16 09:28:00,36.8,33.0,30.22,South,187,1.0,1.0,86,0.00,,---,0.00,VWS V14.01,2013-12-16 14:28:00,
2013-12-16 09:29:00,37.1,33.0,30.22,SW,226,0.0,1.0,85,0.00,,---,0.00,VWS V14.01,2013-12-16 14:29:00,
2013-12-16 09:30:00,37.4,33.3,30.22,SW,226,0.0,0.0,85,0.00,,---,0.00,VWS V14.01,2013-12-16 14:30:00,
2013-12-16 09:31:00,37.7,33.9,30.22,SW,226,0.0,1.0,86,0.00,,---,0.00,VWS V14.01,2013-12-16 14:31:00,
2013-12-16 09:32:00,38.5,33.8,30.22,SW,226,0.0,0.0,83,0.00,,---,0.00,VWS V14.01,2013-12-16 14:32:00,
2013-12-16 09:33:00,38.1,33.4,30.22,SW,226,0.0,0.0,83,0.00,,---,0.00,VWS V14.01,2013-12-16 14:33:00,
2013-12-16 09:34:00,38.3,33.6,30.22,SW,226,0.0,0.0,83,0.00,,---,0.00,VWS V14.01,2013-12-16 14:34:00,
2013-12-16 09:35:00,38.5,33.8,30.22,SW,226,0.0,0.0,83,0.00,,---,0.00,VWS V14.01,2013-12-16 14:35:00,
2013-12-16 09:36:00,38.6,33.9,30.22,SW,226,0.0,0.0,83,0.00,,---,0.00,VWS V14.01,2013-12-16 14:36:00,
2013-12-16 09:37:00,39.3,33.7,30.22,SW,221,0.0,0.0,80,0.00,,---,0.00,VWS V14.01,2013-12-16 14:37:00,
2013-12-16 09:38:00,38.9,33.6,30.22,SW,226,0.0,1.0,81,0.00,,---,0.00,VWS V14.01,2013-12-16 14:38:00,
2013-12-16 09:39:00,39.1,33.5,30.22,SW,219,1.0,1.0,80,0.00,,---,0.00,VWS V14.01,2013-12-16 14:39:00,
2013-12-16 09:40:00,39.3,33.7,30.22,SW,221,0.0,1.0,80,0.00,,---,0.00,VWS V14.01,2013-12-16 14:40:00,
2013-12-16 09:41:00,39.5,33.8,30.22,SW,221,0.0,1.0,80,0.00,,---,0.00,VWS V14.01,2013-12-16 14:41:00,
2013-12-16 09:42:00,40.2,34.8,30.22,SW,221,0.0,0.0,81,0.00,,---,0.00,VWS V14.01,2013-12-16 14:42:00,
2013-12-16 09:43:00,39.8,34.1,30.22,SW,221,0.0,0.0,80,0.00,,---,0.00,VWS V14.01,2013-12-16 14:43:00,
2013-12-16 09:44:00,40.0,34.3,30.22,SW,221,0.0,0.0,80,0.00,,---,0.00,VWS V14.01,2013-12-16 14:44:00,
2013-12-16 09:45:00,40.1,34.4,30.22,SW,221,0.0,0.0,80,0.00,,---,0.00,VWS V14.01,2013-12-16 14:45:00,
2013-12-16 09:46:00,40.4,35.0,30.22,SW,221,0.0,0.0,81,0.00,,---,0.00,VWS V14.01,2013-12-16 14:46:00,
2013-12-16 09:47:00,40.8,33.8,30.22,SW,215,2.0,3.0,76,0.00,,---,0.00,VWS V14.01,2013-12-16 14:47:00,
2013-12-16 09:48:00,40.6,34.3,30.22,SW,221,0.0,1.0,78,0.00,,---,0.00,VWS V14.01,2013-12-16 14:48:00,
2013-12-16 09:49:00,40.7,33.7,30.22,SW,221,0.0,0.0,76,0.00,,---,0.00,VWS V14.01,2013-12-16 14:49:00,
2013-12-16 09:50:00,40.8,33.8,30.22,SSW,207,2.0,2.0,76,0.00,,---,0.00,VWS V14.01,2013-12-16 14:50:00,
2013-12-16 09:51:00,40.9,33.3,30.22,SSW,200,1.0,3.0,74,0.00,,---,0.00,VWS V14.01,2013-12-16 14:51:00,
2013-12-16 09:52:00,41.4,33.4,30.22,SSW,210,1.0,1.0,73,0.00,,---,0.00,VWS V14.01,2013-12-16 14:52:00,
2013-12-16 09:53:00,41.2,32.9,30.22,SW,225,1.0,1.0,72,0.00,,---,0.00,VWS V14.01,2013-12-16 14:53:00,
2013-12-16 09:54:00,41.3,33.3,30.22,SW,224,0.0,1.0,73,0.00,,---,0.00,VWS V14.01,2013-12-16 14:54:00,
2013-12-16 09:55:00,41.4,33.4,30.22,SSW,210,1.0,2.0,73,0.00,,---,0.00,VWS V14.01,2013-12-16 14:55:00,
2013-12-16 09:56:00,41.5,33.5,30.22,ESE,122,1.0,2.0,73,0.00,,---,0.00,VWS V14.01,2013-12-16 14:56:00,
2013-12-16 09:57:00,42.0,33.6,30.22,South,172,0.0,0.0,72,0.00,,---,0.00,VWS V14.01,2013-12-16 14:57:00,
2013-12-16 09:58:00,41.7,32.7,30.22,South,173,0.0,0.0,70,0.00,,---,0.00,VWS V14.01,2013-12-16 14:58:00,
2013-12-16 09:59:00,41.9,33.2,30.22,South,173,0.0,0.0,71,0.00,,---,0.00,VWS V14.01,2013-12-16 14:59:00,
2013-12-16 10:00:00,42.0,33.3,30.22,South,173,0.0,0.0,71,0.00,,---,0.00,VWS V14.01,2013-12-16 15:00:00,
2013-12-16 10:01:00,42.1,33.7,30.22,South,173,0.0,0.0,72,0.00,,---,0.00,VWS V14.01,2013-12-16 15:01:00,
2013-12-16 10:02:00,42.9,32.7,30.22,SSE,165,3.0,3.0,67,0.00,,---,0.00,VWS V14.01,2013-12-16 15:02:00,
2013-12-16 10:03:00,42.5,33.4,30.22,SW,218,3.0,3.0,70,0.00,,---,0.00,VWS V14.01,2013-12-16 15:03:00,
2013-12-16 10:04:00,42.7,32.9,30.22,SW,233,3.0,3.0,68,0.00,,---,0.00,VWS V14.01,2013-12-16 15:04:00,
2013-12-16 10:05:00,42.9,32.7,30.22,SW,215,2.0,3.0,67,0.00,,---,0.00,VWS V14.01,2013-12-16 15:05:00,
2013-12-16 10:06:00,43.0,32.4,30.22,SSW,204,1.0,3.0,66,0.00,,---,0.00,VWS V14.01,2013-12-16 15:06:00,
2013-12-16 10:07:00,43.9,33.3,30.22,West,266,1.0,2.0,66,0.00,,---,0.00,VWS V14.01,2013-12-16 15:07:00,
2013-12-16 10:08:00,43.4,32.8,30.22,South,174,0.0,1.0,66,0.00,,---,0.00,VWS V14.01,2013-12-16 15:08:00,
2013-12-16 10:09:00,43.6,32.6,30.22,WSW,252,0.0,2.0,65,0.00,,---,0.00,VWS V14.01,2013-12-16 15:09:00,
2013-12-16 10:10:00,43.8,33.2,30.22,West,266,2.0,4.0,66,0.00,,---,0.00,VWS V14.01,2013-12-16 15:10:00,
2013-12-16 10:11:00,44.0,33.0,30.22,WSW,256,2.0,2.0,65,0.00,,---,0.00,VWS V14.01,2013-12-16 15:11:00,
2013-12-16 10:12:00,44.8,33.0,30.22,South,181,5.0,5.0,63,0.00,,---,0.00,VWS V14.01,2013-12-16 15:12:00,
2013-12-16 10:13:00,44.4,32.6,30.22,West,259,1.0,5.0,63,0.00,,---,0.00,VWS V14.01,2013-12-16 15:13:00,
2013-12-16 10:14:00,44.6,33.6,30.22,West,268,1.0,1.0,65,0.00,,---,0.00,VWS V14.01,2013-12-16 15:14:00,
2013-12-16 10:15:00,44.8,33.8,30.22,SSE,156,4.0,4.0,65,0.00,,---,0.00,VWS V14.01,2013-12-16 15:15:00,
2013-12-16 10:16:00,44.9,33.1,30.22,SW,222,4.0,6.0,63,0.00,,---,0.00,VWS V14.01,2013-12-16 15:16:00,
2013-12-16 10:17:00,45.4,32.3,30.21,SW,232,3.0,3.0,60,0.00,,---,0.00,VWS V14.01,2013-12-16 15:17:00,
2013-12-16 10:18:00,45.1,32.1,30.21,SW,218,0.0,2.0,60,0.00,,---,0.00,VWS V14.01,2013-12-16 15:18:00,
2013-12-16 10:19:00,45.2,32.2,30.21,West,262,1.0,2.0,60,0.00,,---,0.00,VWS V14.01,2013-12-16 15:19:00,
2013-12-16 10:20:00,45.3,32.2,30.21,SW,217,3.0,4.0,60,0.00,,---,0.00,VWS V14.01,2013-12-16 15:20:00,
2013-12-16 10:21:00,45.5,32.8,30.21,SSE,148,3.0,4.0,61,0.00,,---,0.00,VWS V14.01,2013-12-16 15:21:00,
2013-12-16 10:22:00,46.1,32.6,30.21,SW,233,1.0,1.0,59,0.00,,---,0.00,VWS V14.01,2013-12-16 15:22:00,
2013-12-16 10:23:00,45.8,32.3,30.21,SSE,149,3.0,6.0,59,0.00,,---,0.00,VWS V14.01,2013-12-16 15:23:00,
2013-12-16 10:24:00,46.0,32.1,30.22,SW,228,3.0,5.0,58,0.00,,---,0.00,VWS V14.01,2013-12-16 15:24:00,
2013-12-16 10:25:00,46.1,32.6,30.21,SSW,210,0.0,3.0,59,0.00,,---,0.00,VWS V14.01,2013-12-16 15:25:00,
2013-12-16 10:26:00,46.3,32.8,30.21,WSW,257,2.0,3.0,59,0.00,,---,0.00,VWS V14.01,2013-12-16 15:26:00,
2013-12-16 10:27:00,46.7,32.3,30.21,West,280,3.0,3.0,57,0.00,,---,0.00,VWS V14.01,2013-12-16 15:27:00,
2013-12-16 10:28:00,46.5,33.0,30.21,West,261,2.0,2.0,59,0.00,,---,0.00,VWS V14.01,2013-12-16 15:28:00,
2013-12-16 10:29:00,46.7,33.2,30.21,SSW,197,2.0,3.0,59,0.00,,---,0.00,VWS V14.01,2013-12-16 15:29:00,
2013-12-16 10:30:00,46.7,32.3,30.21,SW,234,1.0,3.0,57,0.00,,---,0.00,VWS V14.01,2013-12-16 15:30:00,
2013-12-16 10:31:00,46.8,32.4,30.21,WSW,238,3.0,5.0,57,0.00,,---,0.00,VWS V14.01,2013-12-16 15:31:00,
2013-12-16 10:32:00,47.0,31.7,30.22,South,186,1.0,1.0,55,0.00,,---,0.00,VWS V14.01,2013-12-16 15:32:00,
2013-12-16 10:33:00,46.9,32.0,30.21,SSE,152,3.0,5.0,56,0.00,,---,0.00,VWS V14.01,2013-12-16 15:33:00,
2013-12-16 10:34:00,47.0,32.1,30.21,SW,233,2.0,4.0,56,0.00,,---,0.00,VWS V14.01,2013-12-16 15:34:00,
2013-12-16 10:35:00,47.0,31.7,30.22,SSW,207,1.0,2.0,55,0.00,,---,0.00,VWS V14.01,2013-12-16 15:35:00,
2013-12-16 10:36:00,47.1,32.2,30.21,SE,134,4.0,5.0,56,0.00,,---,0.00,VWS V14.01,2013-12-16 15:36:00,
2013-12-16 10:37:00,47.6,31.3,30.21,South,172,3.0,3.0,53,0.00,,---,0.00,VWS V14.01,2013-12-16 15:37:00,
2013-12-16 10:38:00,47.4,32.5,30.21,SSE,152,5.0,5.0,56,0.00,,---,0.00,VWS V14.01,2013-12-16 15:38:00,
2013-12-16 10:39:00,47.5,31.7,30.21,SSE,148,6.0,8.0,54,0.00,,---,0.00,VWS V14.01,2013-12-16 15:39:00,
2013-12-16 10:40:00,47.6,31.3,30.21,SSE,167,2.0,7.0,53,0.00,,---,0.00,VWS V14.01,2013-12-16 15:40:00,
2013-12-16 10:41:00,47.7,31.9,30.21,SSW,198,6.0,6.0,54,0.00,,---,0.00,VWS V14.01,2013-12-16 15:41:00,
2013-12-16 10:42:00,48.1,31.8,30.21,WSW,254,4.0,4.0,53,0.00,,---,0.00,VWS V14.01,2013-12-16 15:42:00,
2013-12-16 10:43:00,47.9,32.1,30.21,SSE,150,4.0,6.0,54,0.00,,---,0.00,VWS V14.01,2013-12-16 15:43:00,
2013-12-16 10:44:00,48.0,32.2,30.21,SSE,147,2.0,5.0,54,0.00,,---,0.00,VWS V14.01,2013-12-16 15:44:00,
2013-12-16 10:45:00,48.1,31.8,30.21,WSW,254,4.0,5.0,53,0.00,,---,0.00,VWS V14.01,2013-12-16 15:45:00,
2013-12-16 10:46:00,48.2,31.4,30.21,SW,226,1.0,4.0,52,0.00,,---,0.00,VWS V14.01,2013-12-16 15:46:00,
2013-12-16 10:47:00,48.8,32.4,30.20,South,174,2.0,2.0,53,0.00,,---,0.00,VWS V14.01,2013-12-16 15:47:00,
2013-12-16 10:48:00,48.5,31.7,30.21,SE,136,1.0,4.0,52,0.00,,---,0.00,VWS V14.01,2013-12-16 15:48:00,
2013-12-16 10:49:00,48.7,32.3,30.21,SW,232,3.0,5.0,53,0.00,,---,0.00,VWS V14.01,2013-12-16 15:49:00,
2013-12-16 10:50:00,48.8,32.4,30.21,SSW,210,1.0,3.0,53,0.00,,---,0.00,VWS V14.01,2013-12-16 15:50:00,
2013-12-16 10:51:00,49.0,32.2,30.21,NW,323,4.0,8.0,52,0.00,,---,0.00,VWS V14.01,2013-12-16 15:51:00,
2013-12-16 10:52:00,49.4,31.6,30.20,South,183,4.0,4.0,50,0.00,,---,0.00,VWS V14.01,2013-12-16 15:52:00,
2013-12-16 10:53:00,49.3,32.0,30.20,SSW,202,2.0,3.0,51,0.00,,---,0.00,VWS V14.01,2013-12-16 15:53:00,
2013-12-16 10:54:00,49.3,32.0,30.20,SSE,149,5.0,5.0,51,0.00,,---,0.00,VWS V14.01,2013-12-16 15:54:00,
2013-12-16 10:55:00,49.4,31.6,30.20,South,169,4.0,5.0,50,0.00,,---,0.00,VWS V14.01,2013-12-16 15:55:00,
2013-12-16 10:56:00,49.5,31.1,30.20,SW,226,4.0,7.0,49,0.00,,---,0.00,VWS V14.01,2013-12-16 15:56:00,
2013-12-16 10:57:00,49.8,30.9,30.20,SSE,165,1.0,2.0,48,0.00,,---,0.00,VWS V14.01,2013-12-16 15:57:00,
2013-12-16 10:58:00,49.6,32.2,30.20,South,170,3.0,7.0,51,0.00,,---,0.00,VWS V14.01,2013-12-16 15:58:00,
2013-12-16 10:59:00,49.7,31.3,30.20,SSW,194,3.0,7.0,49,0.00,,---,0.00,VWS V14.01,2013-12-16 15:59:00,
2013-12-16 11:00:00,49.8,30.9,30.20,SW,233,2.0,7.0,48,0.00,,---,0.00,VWS V14.01,2013-12-16 16:00:00,
2013-12-16 11:01:00,49.8,30.9,30.20,SW,217,1.0,5.0,48,0.00,,---,0.00,VWS V14.01,2013-12-16 16:01:00,
2013-12-16 11:02:00,50.1,31.2,30.20,West,262,3.0,5.0,48,0.00,,---,0.00,VWS V14.01,2013-12-16 16:02:00,
2013-12-16 11:03:00,50.0,31.1,30.20,SW,219,4.0,5.0,48,0.00,,---,0.00,VWS V14.01,2013-12-16 16:03:00,
2013-12-16 11:04:00,50.1,31.2,30.20,West,261,2.0,8.0,48,0.00,,---,0.00,VWS V14.01,2013-12-16 16:04:00,
2013-12-16 11:05:00,50.1,31.2,30.20,West,281,5.0,6.0,48,0.00,,---,0.00,VWS V14.01,2013-12-16 16:05:00,
2013-12-16 11:06:00,50.1,30.7,30.20,SW,232,4.0,6.0,47,0.00,,---,0.00,VWS V14.01,2013-12-16 16:06:00,
2013-12-16 11:07:00,50.3,30.9,30.20,SSE,151,4.0,4.0,47,0.00,,---,0.00,VWS V14.01,2013-12-16 16:07:00,
2013-12-16 11:08:00,50.2,30.8,30.20,SSW,207,3.0,7.0,47,0.00,,---,0.00,VWS V14.01,2013-12-16 16:08:00,
2013-12-16 11:09:00,50.3,30.9,30.20,SSE,155,3.0,6.0,47,0.00,,---,0.00,VWS V14.01,2013-12-16 16:09:00,
2013-12-16 11:10:00,50.3,30.9,30.20,ESE,120,3.0,5.0,47,0.00,,---,0.00,VWS V14.01,2013-12-16 16:10:00,
2013-12-16 11:11:00,50.4,31.5,30.20,SE,143,2.0,4.0,48,0.00,,---,0.00,VWS V14.01,2013-12-16 16:11:00,
2013-12-16 11:12:00,50.6,30.6,30.20,SW,226,5.0,5.0,46,0.00,,---,0.00,VWS V14.01,2013-12-16 16:12:00,
2013-12-16 11:13:00,50.5,31.0,30.20,West,259,4.0,6.0,47,0.00,,---,0.00,VWS V14.01,2013-12-16 16:13:00,
2013-12-16 11:14:00,50.5,31.0,30.20,SSW,194,3.0,6.0,47,0.00,,---,0.00,VWS V14.01,2013-12-16 16:14:00,
2013-12-16 11:15:00,50.6,30.6,30.20,SW,219,4.0,5.0,46,0.00,,---,0.00,VWS V14.01,2013-12-16 16:15:00,
2013-12-16 11:16:00,50.6,31.1,30.20,SSW,198,5.0,8.0,47,0.00,,---,0.00,VWS V14.01,2013-12-16 16:16:00,
2013-12-16 11:17:00,51.0,32.0,30.20,SW,233,2.0,3.0,48,0.00,,---,0.00,VWS V14.01,2013-12-16 16:17:00,
2013-12-16 11:18:00,50.7,31.7,30.20,SE,139,2.0,6.0,48,0.00,,---,0.00,VWS V14.01,2013-12-16 16:18:00,
2013-12-16 11:19:00,50.9,31.4,30.20,SSW,201,1.0,3.0,47,0.00,,---,0.00,VWS V14.01,2013-12-16 16:19:00,
2013-12-16 11:20:00,51.0,32.0,30.20,SW,233,2.0,3.0,48,0.00,,---,0.00,VWS V14.01,2013-12-16 16:20:00,
2013-12-16 11:21:00,51.7,31.6,30.19,WNW,301,1.0,4.0,46,0.00,,---,0.00,VWS V14.01,2013-12-16 16:21:00,
2013-12-16 11:22:00,51.4,31.3,30.19,SSW,210,3.0,4.0,46,0.00,,---,0.00,VWS V14.01,2013-12-16 16:22:00,
2013-12-16 11:23:00,51.5,31.4,30.19,WNW,301,2.0,4.0,46,0.00,,---,0.00,VWS V14.01,2013-12-16 16:23:00,
2013-12-16 11:24:00,51.5,31.4,30.19,WNW,294,1.0,3.0,46,0.00,,---,0.00,VWS V14.01,2013-12-16 16:24:00,
2013-12-16 11:25:00,51.7,31.6,30.19,WNW,301,1.0,4.0,46,0.00,,---,0.00,VWS V14.01,2013-12-16 16:25:00,
2013-12-16 11:26:00,51.8,32.2,30.19,SSW,205,2.0,6.0,47,0.00,,---,0.00,VWS V14.01,2013-12-16 16:26:00,
2013-12-16 11:27:00,51.7,30.5,30.19,SSW,201,3.0,5.0,44,0.00,,---,0.00,VWS V14.01,2013-12-16 16:27:00,
2013-12-16 11:28:00,51.8,31.1,30.20,South,174,4.0,6.0,45,0.00,,---,0.00,VWS V14.01,2013-12-16 16:28:00,
2013-12-16 11:29:00,51.8,30.6,30.19,SW,231,3.0,5.0,44,0.00,,---,0.00,VWS V14.01,2013-12-16 16:29:00,
2013-12-16 11:30:00,51.7,30.5,30.19,SSW,201,3.0,5.0,44,0.00,,---,0.00,VWS V14.01,2013-12-16 16:30:00,
2013-12-16 11:31:00,51.7,31.1,30.19,SSW,200,1.0,4.0,45,0.00,,---,0.00,VWS V14.01,2013-12-16 16:31:00,
2013-12-16 11:32:00,52.0,31.3,30.19,WNW,293,3.0,5.0,45,0.00,,---,0.00,VWS V14.01,2013-12-16 16:32:00,
2013-12-16 11:33:00,51.8,31.1,30.19,WSW,255,3.0,5.0,45,0.00,,---,0.00,VWS V14.01,2013-12-16 16:33:00,
2013-12-16 11:34:00,51.9,31.2,30.19,SW,215,2.0,3.0,45,0.00,,---,0.00,VWS V14.01,2013-12-16 16:34:00,
2013-12-16 11:35:00,52.0,31.3,30.19,WNW,298,5.0,5.0,45,0.00,,---,0.00,VWS V14.01,2013-12-16 16:35:00,
2013-12-16 11:36:00,52.0,31.3,30.19,WSW,239,1.0,5.0,45,0.00,,---,0.00,VWS V14.01,2013-12-16 16:36:00,
2013-12-16 11:37:00,52.3,31.0,30.19,SSE,149,4.0,4.0,44,0.00,,---,0.00,VWS V14.01,2013-12-16 16:37:00,
2013-12-16 11:38:00,52.1,30.9,30.19,WSW,258,0.0,2.0,44,0.00,,---,0.00,VWS V14.01,2013-12-16 16:38:00,
2013-12-16 11:39:00,52.2,31.0,30.19,SSW,210,4.0,4.0,44,0.00,,---,0.00,VWS V14.01,2013-12-16 16:39:00,
2013-12-16 11:40:00,52.2,31.0,30.19,South,186,4.0,6.0,44,0.00,,---,0.00,VWS V14.01,2013-12-16 16:40:00,
2013-12-16 11:41:00,52.4,31.7,30.19,NW,319,1.0,4.0,45,0.00,,---,0.00,VWS V14.01,2013-12-16 16:41:00,
2013-12-16 11:42:00,52.7,31.4,30.19,South,169,4.0,6.0,44,0.00,,---,0.00,VWS V14.01,2013-12-16 16:42:00,
2013-12-16 11:43:00,52.4,31.1,30.19,SSW,201,3.0,7.0,44,0.00,,---,0.00,VWS V14.01,2013-12-16 16:43:00,
2013-12-16 11:44:00,52.6,31.9,30.19,SSW,198,1.0,4.0,45,0.00,,---,0.00,VWS V14.01,2013-12-16 16:44:00,
2013-12-16 11:45:00,52.7,31.4,30.19,South,169,4.0,6.0,44,0.00,,---,0.00,VWS V14.01,2013-12-16 16:45:00,
2013-12-16 11:46:00,52.7,31.4,30.19,West,269,1.0,4.0,44,0.00,,---,0.00,VWS V14.01,2013-12-16 16:46:00,
2013-12-16 11:47:00,53.0,30.5,30.18,SE,141,6.0,6.0,42,0.00,,---,0.00,VWS V14.01,2013-12-16 16:47:00,
2013-12-16 11:48:00,52.9,31.6,30.18,South,188,1.0,3.0,44,0.00,,---,0.00,VWS V14.01,2013-12-16 16:48:00,
2013-12-16 11:49:00,53.0,31.1,30.18,NNW,330,3.0,6.0,43,0.00,,---,0.00,VWS V14.01,2013-12-16 16:49:00,
2013-12-16 11:50:00,53.0,30.5,30.18,SE,141,6.0,6.0,42,0.00,,---,0.00,VWS V14.01,2013-12-16 16:50:00,
2013-12-16 11:51:00,52.9,31.0,30.18,West,264,2.0,7.0,43,0.00,,---,0.00,VWS V14.01,2013-12-16 16:51:00,
2013-12-16 11:52:00,52.9,30.5,30.18,NNW,330,2.0,4.0,42,0.00,,---,0.00,VWS V14.01,2013-12-16 16:52:00,
2013-12-16 11:53:00,52.9,30.5,30.18,SW,224,4.0,5.0,42,0.00,,---,0.00,VWS V14.01,2013-12-16 16:53:00,
2013-12-16 11:54:00,52.9,29.9,30.18,SSW,195,3.0,6.0,41,0.00,,---,0.00,VWS V14.01,2013-12-16 16:54:00,
2013-12-16 11:55:00,52.9,30.5,30.18,NNW,330,2.0,4.0,42,0.00,,---,0.00,VWS V14.01,2013-12-16 16:55:00,
2013-12-16 11:56:00,53.0,31.1,30.18,SE,136,3.0,6.0,43,0.00,,---,0.00,VWS V14.01,2013-12-16 16:56:00,
2013-12-16 11:57:00,53.1,29.4,30.18,West,274,3.0,7.0,40,0.00,,---,0.00,VWS V14.01,2013-12-16 16:57:00,
2013-12-16 11:58:00,53.1,30.0,30.18,WNW,294,3.0,6.0,41,0.00,,---,0.00,VWS V14.01,2013-12-16 16:58:00,
2013-12-16 11:59:00,53.1,30.0,30.18,South,190,4.0,6.0,41,0.00,,---,0.00,VWS V14.01,2013-12-16 16:59:00,
2013-12-16 12:00:00,53.1,29.4,30.18,West,274,3.0,7.0,40,0.00,,---,0.00,VWS V14.01,2013-12-16 17:00:00,
2013-12-16 12:01:00,53.0,30.0,30.18,SW,228,1.0,8.0,41,0.00,,---,0.00,VWS V14.01,2013-12-16 17:01:00,
2013-12-16 12:02:00,53.2,29.5,30.17,SW,225,7.0,7.0,40,0.00,,---,0.00,VWS V14.01,2013-12-16 17:02:00,
2013-12-16 12:03:00,53.1,30.0,30.17,WSW,243,4.0,5.0,41,0.00,,---,0.00,VWS V14.01,2013-12-16 17:03:00,
2013-12-16 12:04:00,53.2,29.5,30.17,SW,226,6.0,7.0,40,0.00,,---,0.00,VWS V14.01,2013-12-16 17:04:00,
2013-12-16 12:05:00,53.2,29.5,30.17,WSW,249,6.0,7.0,40,0.00,,---,0.00,VWS V14.01,2013-12-16 17:05:00,
2013-12-16 12:06:00,53.4,29.7,30.17,West,263,2.0,2.0,40,0.00,,---,0.00,VWS V14.01,2013-12-16 17:06:00,
2013-12-16 12:07:00,53.2,30.1,30.17,SSE,152,4.0,5.0,41,0.00,,---,0.00,VWS V14.01,2013-12-16 17:07:00,
2013-12-16 12:08:00,53.2,29.5,30.17,WSW,237,5.0,5.0,40,0.00,,---,0.00,VWS V14.01,2013-12-16 17:08:00,
2013-12-16 12:09:00,53.3,29.6,30.17,West,271,2.0,5.0,40,0.00,,---,0.00,VWS V14.01,2013-12-16 17:09:00,
2013-12-16 12:10:00,53.4,29.7,30.17,West,270,2.0,4.0,40,0.00,,---,0.00,VWS V14.01,2013-12-16 17:10:00,
2013-12-16 12:11:00,53.5,29.8,30.17,SSW,205,3.0,6.0,40,0.00,,---,0.00,VWS V14.01,2013-12-16 17:11:00,
2013-12-16 12:12:00,53.6,29.3,30.17,SE,143,9.0,9.0,39,0.00,,---,0.00,VWS V14.01,2013-12-16 17:12:00,
2013-12-16 12:13:00,53.6,28.6,30.17,SW,227,4.0,6.0,38,0.00,,---,0.00,VWS V14.01,2013-12-16 17:13:00,
2013-12-16 12:14:00,53.6,29.3,30.17,West,276,3.0,5.0,39,0.00,,---,0.00,VWS V14.01,2013-12-16 17:14:00,
2013-12-16 12:15:00,53.7,29.4,30.17,SE,139,4.0,10.0,39,0.00,,---,0.00,VWS V14.01,2013-12-16 17:15:00,
2013-12-16 12:16:00,53.6,28.6,30.17,SSW,198,4.0,9.0,38,0.00,,---,0.00,VWS V14.01,2013-12-16 17:16:00,
2013-12-16 12:17:00,53.8,28.8,30.17,West,274,1.0,2.0,38,0.00,,---,0.00,VWS V14.01,2013-12-16 17:17:00,
2013-12-16 12:18:00,53.7,28.7,30.17,WSW,242,3.0,6.0,38,0.00,,---,0.00,VWS V14.01,2013-12-16 17:18:00,
2013-12-16 12:19:00,53.8,29.4,30.17,SW,232,2.0,3.0,39,0.00,,---,0.00,VWS V14.01,2013-12-16 17:19:00,
2013-12-16 12:20:00,53.8,28.8,30.17,SW,235,2.0,6.0,38,0.00,,---,0.00,VWS V14.01,2013-12-16 17:20:00,
2013-12-16 12:21:00,53.8,29.4,30.17,West,260,2.0,2.0,39,0.00,,---,0.00,VWS V14.01,2013-12-16 17:21:00,
2013-12-16 12:22:00,54.5,29.4,30.17,WSW,245,3.0,4.0,38,0.00,,---,0.00,VWS V14.01,2013-12-16 17:22:00,
2013-12-16 12:23:00,54.2,29.8,30.17,WSW,248,2.0,3.0,39,0.00,,---,0.00,VWS V14.01,2013-12-16 17:23:00,
2013-12-16 12:24:00,54.3,29.9,30.16,South,177,3.0,7.0,39,0.00,,---,0.00,VWS V14.01,2013-12-16 17:24:00,
2013-12-16 12:25:00,54.5,29.4,30.16,West,260,4.0,5.0,38,0.00,,---,0.00,VWS V14.01,2013-12-16 17:25:00,
2013-12-16 12:26:00,54.5,29.4,30.16,West,277,2.0,4.0,38,0.00,,---,0.00,VWS V14.01,2013-12-16 17:26:00,
2013-12-16 12:27:00,54.6,28.9,30.16,SSW,210,7.0,7.0,37,0.00,,---,0.00,VWS V14.01,2013-12-16 17:27:00,
2013-12-16 12:28:00,54.5,29.4,30.16,SSE,167,4.0,5.0,38,0.00,,---,0.00,VWS V14.01,2013-12-16 17:28:00,
2013-12-16 12:29:00,54.7,30.9,30.17,WSW,248,6.0,7.0,40,0.00,,---,0.00,VWS V14.01,2013-12-16 17:29:00,
2013-12-16 12:30:00,54.6,28.9,30.16,SW,215,7.0,7.0,37,0.00,,---,0.00,VWS V14.01,2013-12-16 17:30:00,
2013-12-16 12:31:00,54.6,28.9,30.16,West,259,4.0,7.0,37,0.00,,---,0.00,VWS V14.01,2013-12-16 17:31:00,
2013-12-16 12:32:00,54.6,29.5,30.16,WSW,252,1.0,2.0,38,0.00,,---,0.00,VWS V14.01,2013-12-16 17:32:00,
2013-12-16 12:33:00,54.5,28.8,30.16,WNW,300,3.0,7.0,37,0.00,,---,0.00,VWS V14.01,2013-12-16 17:33:00,
2013-12-16 12:34:00,54.5,28.8,30.16,SSW,204,3.0,7.0,37,0.00,,---,0.00,VWS V14.01,2013-12-16 17:34:00,
2013-12-16 12:35:00,54.6,29.5,30.16,WSW,252,2.0,4.0,38,0.00,,---,0.00,VWS V14.01,2013-12-16 17:35:00,
2013-12-16 12:36:00,54.6,29.5,30.16,South,176,2.0,3.0,38,0.00,,---,0.00,VWS V14.01,2013-12-16 17:36:00,
2013-12-16 12:37:00,54.8,29.0,30.16,NW,317,3.0,3.0,37,0.00,,---,0.00,VWS V14.01,2013-12-16 17:37:00,
2013-12-16 12:38:00,54.7,29.0,30.16,WSW,255,2.0,5.0,37,0.00,,---,0.00,VWS V14.01,2013-12-16 17:38:00,
2013-12-16 12:39:00,54.8,29.0,30.16,South,177,2.0,4.0,37,0.00,,---,0.00,VWS V14.01,2013-12-16 17:39:00,
2013-12-16 12:40:00,54.8,29.0,30.16,NNW,333,2.0,8.0,37,0.00,,---,0.00,VWS V14.01,2013-12-16 17:40:00,
2013-12-16 12:41:00,55.1,28.6,30.16,WSW,240,4.0,6.0,36,0.00,,---,0.00,VWS V14.01,2013-12-16 17:41:00,
2013-12-16 12:42:00,54.9,29.1,30.16,ESE,122,0.0,4.0,37,0.00,,---,0.00,VWS V14.01,2013-12-16 17:42:00,
2013-12-16 12:43:00,55.1,30.6,30.16,SW,214,3.0,3.0,39,0.00,,---,0.00,VWS V14.01,2013-12-16 17:43:00,
2013-12-16 12:44:00,55.1,29.3,30.16,SSW,201,3.0,10.0,37,0.00,,---,0.00,VWS V14.01,2013-12-16 17:44:00,
2013-12-16 12:45:00,55.1,28.6,30.16,WSW,240,4.0,6.0,36,0.00,,---,0.00,VWS V14.01,2013-12-16 17:45:00,
2013-12-16 12:46:00,55.2,29.4,30.16,WNW,302,3.0,4.0,37,0.00,,---,0.00,VWS V14.01,2013-12-16 17:46:00,
2013-12-16 12:47:00,55.1,28.6,30.16,South,169,6.0,7.0,36,0.00,,---,0.00,VWS V14.01,2013-12-16 17:47:00,
2013-12-16 12:48:00,55.1,30.0,30.16,SSW,205,3.0,6.0,38,0.00,,---,0.00,VWS V14.01,2013-12-16 17:48:00,
2013-12-16 12:49:00,55.2,28.7,30.16,WNW,289,4.0,6.0,36,0.00,,---,0.00,VWS V14.01,2013-12-16 17:49:00,
2013-12-16 12:50:00,55.2,29.4,30.16,WNW,302,3.0,4.0,37,0.00,,---,0.00,VWS V14.01,2013-12-16 17:50:00,
2013-12-16 12:51:00,55.5,29.0,30.16,NNW,328,1.0,6.0,36,0.00,,---,0.00,VWS V14.01,2013-12-16 17:51:00,
2013-12-16 12:52:00,55.4,29.6,30.16,SW,221,3.0,3.0,37,0.00,,---,0.00,VWS V14.01,2013-12-16 17:52:00,
2013-12-16 12:53:00,55.4,29.6,30.16,SSW,193,0.0,4.0,37,0.00,,---,0.00,VWS V14.01,2013-12-16 17:53:00,
2013-12-16 12:54:00,55.5,29.7,30.16,NW,323,6.0,6.0,37,0.00,,---,0.00,VWS V14.01,2013-12-16 17:54:00,
2013-12-16 12:55:00,55.5,29.0,30.16,NNW,328,1.0,6.0,36,0.00,,---,0.00,VWS V14.01,2013-12-16 17:55:00,
2013-12-16 12:56:00,55.5,29.0,30.15,WNW,300,0.0,7.0,36,0.00,,---,0.00,VWS V14.01,2013-12-16 17:56:00,
2013-12-16 12:57:00,55.6,29.8,30.15,WNW,302,3.0,5.0,37,0.00,,---,0.00,VWS V14.01,2013-12-16 17:57:00,
2013-12-16 12:58:00,55.6,29.1,30.15,WSW,254,4.0,7.0,36,0.00,,---,0.00,VWS V14.01,2013-12-16 17:58:00,
2013-12-16 12:59:00,55.5,29.0,30.15,SW,215,7.0,8.0,36,0.00,,---,0.00,VWS V14.01,2013-12-16 17:59:00,
2013-12-16 13:00:00,55.5,29.0,30.15,WNW,300,0.0,7.0,36,0.00,,---,0.00,VWS V14.01,2013-12-16 18:00:00,
2013-12-16 13:01:00,55.6,29.1,30.15,NW,311,4.0,8.0,36,0.00,,---,0.00,VWS V14.01,2013-12-16 18:01:00,
2013-12-16 13:02:00,55.5,29.0,30.15,West,276,2.0,2.0,36,0.00,,---,0.00,VWS V14.01,2013-12-16 18:02:00,
2013-12-16 13:03:00,55.6,29.8,30.15,WNW,285,2.0,4.0,37,0.00,,---,0.00,VWS V14.01,2013-12-16 18:03:00,
2013-12-16 13:04:00,55.6,29.1,30.15,WSW,248,3.0,4.0,36,0.00,,---,0.00,VWS V14.01,2013-12-16 18:04:00,
2013-12-16 13:05:00,55.6,29.1,30.15,West,278,5.0,8.0,36,0.00,,---,0.00,VWS V14.01,2013-12-16 18:05:00,
2013-12-16 13:06:00,55.7,29.9,30.14,SSW,198,1.0,6.0,37,0.00,,---,0.00,VWS V14.01,2013-12-16 18:06:00,
2013-12-16 13:07:00,55.6,29.8,30.15,WSW,247,1.0,5.0,37,0.00,,---,0.00,VWS V14.01,2013-12-16 18:07:00,
2013-12-16 13:08:00,55.7,29.2,30.15,West,269,2.0,5.0,36,0.00,,---,0.00,VWS V14.01,2013-12-16 18:08:00,
2013-12-16 13:09:00,55.7,29.2,30.15,SSE,149,1.0,2.0,36,0.00,,---,0.00,VWS V14.01,2013-12-16 18:09:00,
2013-12-16 13:10:00,55.7,29.9,30.14,SSW,198,1.0,6.0,37,0.00,,---,0.00,VWS V14.01,2013-12-16 18:10:00,
2013-12-16 13:11:00,56.0,29.4,30.14,WNW,293,2.0,2.0,36,0.00,,---,0.00,VWS V14.01,2013-12-16 18:11:00,
2013-12-16 13:12:00,55.8,29.3,30.14,WSW,240,5.0,6.0,36,0.00,,---,0.00,VWS V14.01,2013-12-16 18:12:00,
2013-12-16 13:13:00,55.9,29.4,30.14,West,269,2.0,6.0,36,0.00,,---,0.00,VWS V14.01,2013-12-16 18:13:00,
2013-12-16 13:14:00,55.9,29.4,30.14,ESE,117,1.0,5.0,36,0.00,,---,0.00,VWS V14.01,2013-12-16 18:14:00,
2013-12-16 13:15:00,56.0,29.4,30.15,WNW,297,2.0,2.0,36,0.00,,---,0.00,VWS V14.01,2013-12-16 18:15:00,
2013-12-16 13:16:00,56.1,30.2,30.14,SSW,197,2.0,5.0,37,0.00,,---,0.00,VWS V14.01,2013-12-16 18:16:00,
2013-12-16 13:17:00,56.0,28.8,30.15,WNW,302,3.0,6.0,35,0.00,,---,0.00,VWS V14.01,2013-12-16 18:17:00,
2013-12-16 13:18:00,56.0,29.4,30.14,WSW,239,6.0,7.0,36,0.00,,---,0.00,VWS V14.01,2013-12-16 18:18:00,
2013-12-16 13:19:00,56.0,28.8,30.14,NW,308,5.0,8.0,35,0.00,,---,0.00,VWS V14.01,2013-12-16 18:19:00,
2013-12-16 13:20:00,56.1,30.2,30.14,SSW,197,2.0,5.0,37,0.00,,---,0.00,VWS V14.01,2013-12-16 18:20:00,
2013-12-16 13:21:00,56.4,30.5,30.14,WNW,302,3.0,3.0,37,0.00,,---,0.00,VWS V14.01,2013-12-16 18:21:00,
2013-12-16 13:22:00,56.2,28.9,30.14,SW,235,4.0,7.0,35,0.00,,---,0.00,VWS V14.01,2013-12-16 18:22:00,
2013-12-16 13:23:00,56.2,28.9,30.14,South,186,3.0,5.0,35,0.00,,---,0.00,VWS V14.01,2013-12-16 18:23:00,
2013-12-16 13:24:00,56.3,29.0,30.14,SW,226,1.0,6.0,35,0.00,,---,0.00,VWS V14.01,2013-12-16 18:24:00,
2013-12-16 13:25:00,56.4,30.5,30.14,WNW,302,3.0,3.0,37,0.00,,---,0.00,VWS V14.01,2013-12-16 18:25:00,
2013-12-16 13:26:00,56.4,29.1,30.14,South,180,3.0,6.0,35,0.00,,---,0.00,VWS V14.01,2013-12-16 18:26:00,
2013-12-16 13:27:00,56.4,29.1,30.14,WSW,248,1.0,6.0,35,0.00,,---,0.00,VWS V14.01,2013-12-16 18:27:00,
2013-12-16 13:28:00,56.3,29.0,30.14,West,266,2.0,8.0,35,0.00,,---,0.00,VWS V14.01,2013-12-16 18:28:00,
2013-12-16 13:29:00,56.3,29.0,30.14,West,274,2.0,4.0,35,0.00,,---,0.00,VWS V14.01,2013-12-16 18:29:00,
2013-12-16 13:30:00,56.4,29.1,30.14,SW,226,6.0,6.0,35,0.00,,---,0.00,VWS V14.01,2013-12-16 18:30:00,
2013-12-16 13:31:00,56.5,28.5,30.14,WNW,293,2.0,7.0,34,0.00,,---,0.00,VWS V14.01,2013-12-16 18:31:00,
2013-12-16 13:32:00,56.5,29.2,30.14,WSW,257,1.0,6.0,35,0.00,,---,0.00,VWS V14.01,2013-12-16 18:32:00,
2013-12-16 13:33:00,56.5,29.2,30.14,SW,221,5.0,8.0,35,0.00,,---,0.00,VWS V14.01,2013-12-16 18:33:00,
2013-12-16 13:34:00,56.6,28.6,30.14,WSW,247,5.0,9.0,34,0.00,,---,0.00,VWS V14.01,2013-12-16 18:34:00,
2013-12-16 13:35:00,56.5,28.5,30.14,WNW,293,2.0,7.0,34,0.00,,---,0.00,VWS V14.01,2013-12-16 18:35:00,
2013-12-16 13:36:00,56.4,28.4,30.14,SSW,198,8.0,8.0,34,0.00,,---,0.00,VWS V14.01,2013-12-16 18:36:00,
2013-12-16 13:37:00,56.5,28.5,30.14,WNW,295,5.0,7.0,34,0.00,,---,0.00,VWS V14.01,2013-12-16 18:37:00,
2013-12-16 13:38:00,56.5,28.5,30.14,NW,308,4.0,6.0,34,0.00,,---,0.00,VWS V14.01,2013-12-16 18:38:00,
2013-12-16 13:39:00,56.4,28.4,30.14,SW,235,2.0,5.0,34,0.00,,---,0.00,VWS V14.01,2013-12-16 18:39:00,
2013-12-16 13:40:00,56.4,28.4,30.14,SSW,202,9.0,9.0,34,0.00,,---,0.00,VWS V14.01,2013-12-16 18:40:00,
2013-12-16 13:41:00,56.5,29.2,30.14,SSW,208,6.0,6.0,35,0.00,,---,0.00,VWS V14.01,2013-12-16 18:41:00,
2013-12-16 13:42:00,56.4,28.4,30.14,ESE,106,5.0,10.0,34,0.00,,---,0.00,VWS V14.01,2013-12-16 18:42:00,
2013-12-16 13:43:00,56.5,29.2,30.14,South,186,4.0,10.0,35,0.00,,---,0.00,VWS V14.01,2013-12-16 18:43:00,
2013-12-16 13:44:00,56.5,28.5,30.14,SW,236,2.0,6.0,34,0.00,,---,0.00,VWS V14.01,2013-12-16 18:44:00,
2013-12-16 13:45:00,56.5,29.2,30.14,WSW,243,4.0,6.0,35,0.00,,---,0.00,VWS V14.01,2013-12-16 18:45:00,
2013-12-16 13:46:00,56.7,28.7,30.14,SSW,198,4.0,5.0,34,0.00,,---,0.00,VWS V14.01,2013-12-16 18:46:00,
2013-12-16 13:47:00,56.6,28.6,30.14,WSW,240,1.0,5.0,34,0.00,,---,0.00,VWS V14.01,2013-12-16 18:47:00,
2013-12-16 13:48:00,56.7,29.4,30.14,SW,217,3.0,5.0,35,0.00,,---,0.00,VWS V14.01,2013-12-16 18:48:00,
2013-12-16 13:49:00,56.7,28.7,30.14,WSW,246,3.0,7.0,34,0.00,,---,0.00,VWS V14.01,2013-12-16 18:49:00,
2013-12-16 13:50:00,56.7,28.7,30.14,SW,218,6.0,6.0,34,0.00,,---,0.00,VWS V14.01,2013-12-16 18:50:00,
2013-12-16 13:51:00,57.0,29.6,30.14,West,274,1.0,2.0,35,0.00,,---,0.00,VWS V14.01,2013-12-16 18:51:00,
2013-12-16 13:52:00,56.7,28.7,30.14,WSW,257,5.0,5.0,34,0.00,,---,0.00,VWS V14.01,2013-12-16 18:52:00,
2013-12-16 13:53:00,56.7,29.4,30.14,West,264,1.0,5.0,35,0.00,,---,0.00,VWS V14.01,2013-12-16 18:53:00,
2013-12-16 13:54:00,56.8,29.5,30.14,West,273,2.0,2.0,35,0.00,,---,0.00,VWS V14.01,2013-12-16 18:54:00,
2013-12-16 13:55:00,57.0,29.6,30.14,West,274,3.0,3.0,35,0.00,,---,0.00,VWS V14.01,2013-12-16 18:55:00,
2013-12-16 13:56:00,57.0,28.2,30.14,West,259,3.0,5.0,33,0.00,,---,0.00,VWS V14.01,2013-12-16 18:56:00,
2013-12-16 13:57:00,57.1,29.0,30.14,SW,221,6.0,9.0,34,0.00,,---,0.00,VWS V14.01,2013-12-16 18:57:00,
2013-12-16 13:58:00,57.1,29.0,30.14,South,187,4.0,7.0,34,0.00,,---,0.00,VWS V14.01,2013-12-16 18:58:00,
2013-12-16 13:59:00,57.1,29.0,30.14,WSW,237,5.0,7.0,34,0.00,,---,0.00,VWS V14.01,2013-12-16 18:59:00,
2013-12-16 14:00:00,57.0,28.2,30.14,WSW,250,3.0,5.0,33,0.00,,---,0.00,VWS V14.01,2013-12-16 19:00:00,
2013-12-16 14:01:00,57.4,30.0,30.14,SSE,155,3.0,3.0,35,0.00,,---,0.00,VWS V14.01,2013-12-16 19:01:00,
2013-12-16 14:02:00,57.1,29.0,30.14,West,273,2.0,3.0,34,0.00,,---,0.00,VWS V14.01,2013-12-16 19:02:00,
2013-12-16 14:03:00,57.2,29.8,30.13,WSW,242,3.0,5.0,35,0.00,,---,0.00,VWS V14.01,2013-12-16 19:03:00,
2013-12-16 14:04:00,57.4,29.3,30.14,SSE,160,3.0,4.0,34,0.00,,---,0.00,VWS V14.01,2013-12-16 19:04:00,
2013-12-16 14:05:00,57.5,30.1,30.13,South,185,3.0,3.0,35,0.00,,---,0.00,VWS V14.01,2013-12-16 19:05:00,
2013-12-16 14:06:00,57.8,29.6,30.14,West,277,1.0,2.0,34,0.00,,---,0.00,VWS V14.01,2013-12-16 19:06:00,
2013-12-16 14:07:00,57.8,29.6,30.14,South,170,4.0,7.0,34,0.00,,---,0.00,VWS V14.01,2013-12-16 19:07:00,
2013-12-16 14:08:00,57.8,28.9,30.14,SW,219,4.0,8.0,33,0.00,,---,0.00,VWS V14.01,2013-12-16 19:08:00,
2013-12-16 14:09:00,57.8,28.9,30.14,South,177,2.0,9.0,33,0.00,,---,0.00,VWS V14.01,2013-12-16 19:09:00,
2013-12-16 14:10:00,57.8,29.6,30.14,West,277,1.0,2.0,34,0.00,,---,0.00,VWS V14.01,2013-12-16 19:10:00,
2013-12-16 14:11:00,57.9,29.0,30.14,WNW,290,3.0,4.0,33,0.00,,---,0.00,VWS V14.01,2013-12-16 19:11:00,
2013-12-16 14:12:00,57.9,29.0,30.14,SSW,205,6.0,6.0,33,0.00,,---,0.00,VWS V14.01,2013-12-16 19:12:00,
2013-12-16 14:13:00,58.0,29.1,30.14,SW,227,3.0,9.0,33,0.00,,---,0.00,VWS V14.01,2013-12-16 19:13:00,
2013-12-16 14:14:00,58.0,29.1,30.14,North,358,2.0,3.0,33,0.00,,---,0.00,VWS V14.01,2013-12-16 19:14:00,
2013-12-16 14:15:00,57.9,29.0,30.14,WNW,290,3.0,4.0,33,0.00,,---,0.00,VWS V14.01,2013-12-16 19:15:00,
2013-12-16 14:16:00,57.9,29.7,30.14,WSW,255,2.0,2.0,34,0.00,,---,0.00,VWS V14.01,2013-12-16 19:16:00,
2013-12-16 14:17:00,57.8,28.9,30.14,WSW,238,2.0,8.0,33,0.00,,---,0.00,VWS V14.01,2013-12-16 19:17:00,
2013-12-16 14:18:00,57.8,28.9,30.13,SW,222,2.0,5.0,33,0.00,,---,0.00,VWS V14.01,2013-12-16 19:18:00,
2013-12-16 14:19:00,57.8,29.6,30.14,WNW,293,1.0,3.0,34,0.00,,---,0.00,VWS V14.01,2013-12-16 19:19:00,
2013-12-16 14:20:00,57.9,29.7,30.14,WSW,255,1.0,2.0,34,0.00,,---,0.00,VWS V14.01,2013-12-16 19:20:00,
2013-12-16 14:21:00,58.1,29.2,30.14,WNW,291,2.0,3.0,33,0.00,,---,0.00,VWS V14.01,2013-12-16 19:21:00,
2013-12-16 14:22:00,58.0,29.1,30.13,WNW,303,4.0,4.0,33,0.00,,---,0.00,VWS V14.01,2013-12-16 19:22:00,
2013-12-16 14:23:00,58.0,29.1,30.13,WNW,285,2.0,4.0,33,0.00,,---,0.00,VWS V14.01,2013-12-16 19:23:00,
2013-12-16 14:24:00,58.0,29.8,30.14,West,266,0.0,4.0,34,0.00,,---,0.00,VWS V14.01,2013-12-16 19:24:00,
2013-12-16 14:25:00,58.2,29.3,30.14,SW,229,2.0,3.0,33,0.00,,---,0.00,VWS V14.01,2013-12-16 19:25:00,
2013-12-16 14:26:00,58.2,29.3,30.14,WNW,283,2.0,2.0,33,0.00,,---,0.00,VWS V14.01,2013-12-16 19:26:00,
2013-12-16 14:27:00,58.2,29.3,30.14,WSW,242,3.0,7.0,33,0.00,,---,0.00,VWS V14.01,2013-12-16 19:27:00,
2013-12-16 14:28:00,58.2,29.3,30.14,WSW,238,5.0,6.0,33,0.00,,---,0.00,VWS V14.01,2013-12-16 19:28:00,
2013-12-16 14:29:00,58.2,29.3,30.14,WSW,257,2.0,5.0,33,0.00,,---,0.00,VWS V14.01,2013-12-16 19:29:00,
2013-12-16 14:30:00,58.2,29.3,30.14,WNW,283,2.0,2.0,33,0.00,,---,0.00,VWS V14.01,2013-12-16 19:30:00,
2013-12-16 14:31:00,58.7,28.9,30.14,SSW,207,7.0,8.0,32,0.00,,---,0.00,VWS V14.01,2013-12-16 19:31:00,
2013-12-16 14:32:00,58.4,29.4,30.14,SW,235,1.0,3.0,33,0.00,,---,0.00,VWS V14.01,2013-12-16 19:32:00,
2013-12-16 14:33:00,58.5,30.2,30.14,SSE,162,2.0,3.0,34,0.00,,---,0.00,VWS V14.01,2013-12-16 19:33:00,
2013-12-16 14:34:00,58.6,28.9,30.14,SSE,158,3.0,4.0,32,0.00,,---,0.00,VWS V14.01,2013-12-16 19:34:00,
2013-12-16 14:35:00,58.7,28.9,30.14,South,181,7.0,8.0,32,0.00,,---,0.00,VWS V14.01,2013-12-16 19:35:00,
2013-12-16 14:36:00,58.8,29.0,30.14,WNW,283,4.0,6.0,32,0.00,,---,0.00,VWS V14.01,2013-12-16 19:36:00,
2013-12-16 14:37:00,58.7,28.9,30.14,NNW,328,2.0,4.0,32,0.00,,---,0.00,VWS V14.01,2013-12-16 19:37:00,
2013-12-16 14:38:00,58.7,28.9,30.14,WSW,238,2.0,2.0,32,0.00,,---,0.00,VWS V14.01,2013-12-16 19:38:00,
2013-12-16 14:39:00,58.7,28.9,30.14,WNW,295,2.0,2.0,32,0.00,,---,0.00,VWS V14.01,2013-12-16 19:39:00,
2013-12-16 14:40:00,58.8,29.0,30.14,WNW,285,4.0,6.0,32,0.00,,---,0.00,VWS V14.01,2013-12-16 19:40:00,
2013-12-16 14:41:00,58.8,29.0,30.14,SW,222,2.0,4.0,32,0.00,,---,0.00,VWS V14.01,2013-12-16 19:41:00,
2013-12-16 14:42:00,58.6,28.1,30.14,SSW,210,4.0,4.0,31,0.00,,---,0.00,VWS V14.01,2013-12-16 19:42:00,
2013-12-16 14:43:00,58.7,28.9,30.14,SSW,207,2.0,6.0,32,0.00,,---,0.00,VWS V14.01,2013-12-16 19:43:00,
2013-12-16 14:44:00,58.7,28.9,30.14,NNW,345,3.0,5.0,32,0.00,,---,0.00,VWS V14.01,2013-12-16 19:44:00,
2013-12-16 14:45:00,58.8,29.0,30.14,SW,222,2.0,4.0,32,0.00,,---,0.00,VWS V14.01,2013-12-16 19:45:00,
2013-12-16 14:46:00,59.1,28.5,30.14,SSW,198,3.0,6.0,31,0.00,,---,0.00,VWS V14.01,2013-12-16 19:46:00,
2013-12-16 14:47:00,59.0,29.2,30.14,WSW,257,1.0,3.0,32,0.00,,---,0.00,VWS V14.01,2013-12-16 19:47:00,
2013-12-16 14:48:00,59.0,29.2,30.14,SW,232,3.0,4.0,32,0.00,,---,0.00,VWS V14.01,2013-12-16 19:48:00,
2013-12-16 14:49:00,59.1,28.5,30.14,SW,219,4.0,4.0,31,0.00,,---,0.00,VWS V14.01,2013-12-16 19:49:00,
2013-12-16 14:50:00,59.1,28.5,30.14,SSW,198,3.0,6.0,31,0.00,,---,0.00,VWS V14.01,2013-12-16 19:50:00,
2013-12-16 14:51:00,59.2,28.6,30.14,West,259,4.0,7.0,31,0.00,,---,0.00,VWS V14.01,2013-12-16 19:51:00,
2013-12-16 14:52:00,59.2,29.4,30.14,South,181,5.0,6.0,32,0.00,,---,0.00,VWS V14.01,2013-12-16 19:52:00,
2013-12-16 14:53:00,59.2,28.6,30.14,SW,235,5.0,5.0,31,0.00,,---,0.00,VWS V14.01,2013-12-16 19:53:00,
2013-12-16 14:54:00,59.3,29.5,30.14,NW,322,4.0,5.0,32,0.00,,---,0.00,VWS V14.01,2013-12-16 19:54:00,
2013-12-16 14:55:00,59.2,28.6,30.14,West,276,3.0,7.0,31,0.00,,---,0.00,VWS V14.01,2013-12-16 19:55:00,
2013-12-16 14:56:00,59.0,29.2,30.14,WSW,242,5.0,7.0,32,0.00,,---,0.00,VWS V14.01,2013-12-16 19:56:00,
2013-12-16 14:57:00,59.0,29.2,30.14,South,176,2.0,4.0,32,0.00,,---,0.00,VWS V14.01,2013-12-16 19:57:00,
2013-12-16 14:58:00,59.0,30.0,30.14,SW,232,2.0,3.0,33,0.00,,---,0.00,VWS V14.01,2013-12-16 19:58:00,
2013-12-16 14:59:00,59.0,30.0,30.14,West,266,2.0,4.0,33,0.00,,---,0.00,VWS V14.01,2013-12-16 19:59:00,
2013-12-16 15:00:00,59.0,29.2,30.13,WSW,255,4.0,7.0,32,0.00,,---,0.00,VWS V14.01,2013-12-16 20:00:00,
2013-12-16 15:01:00,58.7,28.9,30.13,SSW,193,3.0,7.0,32,0.00,,---,0.00,VWS V14.01,2013-12-16 20:01:00,
2013-12-16 15:02:00,58.8,28.3,30.14,SSW,205,1.0,3.0,31,0.00,,---,0.00,VWS V14.01,2013-12-16 20:02:00,
2013-12-16 15:03:00,58.7,28.9,30.14,SW,214,4.0,5.0,32,0.00,,---,0.00,VWS V14.01,2013-12-16 20:03:00,
2013-12-16 15:04:00,58.7,28.2,30.13,SW,220,3.0,3.0,31,0.00,,---,0.00,VWS V14.01,2013-12-16 20:04:00,
2013-12-16 15:05:00,58.6,28.9,30.13,SW,226,3.0,7.0,32,0.00,,---,0.00,VWS V14.01,2013-12-16 20:05:00,
2013-12-16 15:06:00,58.6,28.9,30.14,NNW,328,4.0,6.0,32,0.00,,---,0.00,VWS V14.01,2013-12-16 20:06:00,
2013-12-16 15:07:00,58.6,28.9,30.14,SSE,165,6.0,6.0,32,0.00,,---,0.00,VWS V14.01,2013-12-16 20:07:00,
2013-12-16 15:08:00,58.6,28.9,30.14,SSW,197,6.0,7.0,32,0.00,,---,0.00,VWS V14.01,2013-12-16 20:08:00,
2013-12-16 15:09:00,58.6,28.9,30.14,WNW,295,3.0,7.0,32,0.00,,---,0.00,VWS V14.01,2013-12-16 20:09:00,
2013-12-16 15:10:00,58.6,28.9,30.14,NW,326,4.0,6.0,32,0.00,,---,0.00,VWS V14.01,2013-12-16 20:10:00,
2013-12-16 15:11:00,58.7,28.9,30.14,WSW,256,4.0,8.0,32,0.00,,---,0.00,VWS V14.01,2013-12-16 20:11:00,
2013-12-16 15:12:00,58.5,28.8,30.14,WSW,239,1.0,4.0,32,0.00,,---,0.00,VWS V14.01,2013-12-16 20:12:00,
2013-12-16 15:13:00,58.6,29.6,30.14,WSW,239,0.0,1.0,33,0.00,,---,0.00,VWS V14.01,2013-12-16 20:13:00,
2013-12-16 15:14:00,58.7,29.7,30.14,South,190,3.0,3.0,33,0.00,,---,0.00,VWS V14.01,2013-12-16 20:14:00,
2013-12-16 15:15:00,58.8,29.0,30.14,SSW,198,7.0,8.0,32,0.00,,---,0.00,VWS V14.01,2013-12-16 20:15:00,
2013-12-16 15:16:00,58.8,29.8,30.14,South,170,3.0,4.0,33,0.00,,---,0.00,VWS V14.01,2013-12-16 20:16:00,
2013-12-16 15:17:00,58.7,28.2,30.14,NW,311,1.0,4.0,31,0.00,,---,0.00,VWS V14.01,2013-12-16 20:17:00,
2013-12-16 15:18:00,58.7,30.4,30.14,West,276,0.0,1.0,34,0.00,,---,0.00,VWS V14.01,2013-12-16 20:18:00,
2013-12-16 15:19:00,58.8,29.8,30.14,SW,232,2.0,2.0,33,0.00,,---,0.00,VWS V14.01,2013-12-16 20:19:00,
2013-12-16 15:20:00,58.9,29.9,30.14,South,176,3.0,4.0,33,0.00,,---,0.00,VWS V14.01,2013-12-16 20:20:00,
2013-12-16 15:21:00,59.1,28.5,30.14,SW,225,5.0,6.0,31,0.00,,---,0.00,VWS V14.01,2013-12-16 20:21:00,
2013-12-16 15:22:00,59.1,29.3,30.14,South,186,4.0,5.0,32,0.00,,---,0.00,VWS V14.01,2013-12-16 20:22:00,
2013-12-16 15:23:00,59.1,29.3,30.14,SSE,165,4.0,6.0,32,0.00,,---,0.00,VWS V14.01,2013-12-16 20:23:00,
2013-12-16 15:24:00,59.1,28.5,30.14,SSW,210,4.0,6.0,31,0.00,,---,0.00,VWS V14.01,2013-12-16 20:24:00,
2013-12-16 15:25:00,59.0,28.4,30.14,SSW,207,4.0,6.0,31,0.00,,---,0.00,VWS V14.01,2013-12-16 20:25:00,
2013-12-16 15:26:00,59.0,29.2,30.14,SSE,153,0.0,3.0,32,0.00,,---,0.00,VWS V14.01,2013-12-16 20:26:00,
2013-12-16 15:27:00,58.9,29.1,30.14,SSW,203,2.0,4.0,32,0.00,,---,0.00,VWS V14.01,2013-12-16 20:27:00,
2013-12-16 15:28:00,58.9,29.1,30.14,WSW,256,1.0,2.0,32,0.00,,---,0.00,VWS V14.01,2013-12-16 20:28:00,
2013-12-16 15:29:00,58.9,29.1,30.14,SE,143,2.0,4.0,32,0.00,,---,0.00,VWS V14.01,2013-12-16 20:29:00,
2013-12-16 15:30:00,59.0,29.2,30.14,SSE,153,0.0,3.0,32,0.00,,---,0.00,VWS V14.01,2013-12-16 20:30:00,
2013-12-16 15:31:00,59.0,29.2,30.14,SE,126,6.0,7.0,32,0.00,,---,0.00,VWS V14.01,2013-12-16 20:31:00,
2013-12-16 15:32:00,59.0,30.0,30.14,West,274,0.0,1.0,33,0.00,,---,0.00,VWS V14.01,2013-12-16 20:32:00,
2013-12-16 15:33:00,59.0,30.0,30.14,SSE,158,3.0,4.0,33,0.00,,---,0.00,VWS V14.01,2013-12-16 20:33:00,
2013-12-16 15:34:00,59.1,30.0,30.14,SSE,166,7.0,7.0,33,0.00,,---,0.00,VWS V14.01,2013-12-16 20:34:00,
2013-12-16 15:35:00,59.0,29.2,30.14,SSW,198,4.0,7.0,32,0.00,,---,0.00,VWS V14.01,2013-12-16 20:35:00,
2013-12-16 15:36:00,58.8,29.0,30.14,SSW,195,2.0,5.0,32,0.00,,---,0.00,VWS V14.01,2013-12-16 20:36:00,
2013-12-16 15:37:00,58.9,29.1,30.14,West,279,1.0,5.0,32,0.00,,---,0.00,VWS V14.01,2013-12-16 20:37:00,
2013-12-16 15:38:00,58.9,30.6,30.14,SSW,208,5.0,5.0,34,0.00,,---,0.00,VWS V14.01,2013-12-16 20:38:00,
2013-12-16 15:39:00,58.8,29.0,30.14,WSW,256,4.0,7.0,32,0.00,,---,0.00,VWS V14.01,2013-12-16 20:39:00,
2013-12-16 15:41:00,58.7,28.9,30.14,South,179,2.0,3.0,32,0.00,,---,0.00,VWS V14.01,2013-12-16 20:41:00,
2013-12-16 15:42:00,58.8,29.0,30.14,SSE,162,3.0,7.0,32,0.00,,---,0.00,VWS V14.01,2013-12-16 20:42:00,
2013-12-16 15:43:00,58.8,29.0,30.14,SE,145,3.0,5.0,32,0.00,,---,0.00,VWS V14.01,2013-12-16 20:43:00,
2013-12-16 15:44:00,58.7,29.7,30.14,SW,227,2.0,6.0,33,0.00,,---,0.00,VWS V14.01,2013-12-16 20:44:00,
2013-12-16 15:45:00,58.7,28.9,30.14,South,179,2.0,3.0,32,0.00,,---,0.00,VWS V14.01,2013-12-16 20:45:00,
2013-12-16 15:46:00,58.9,29.1,30.14,SSW,210,6.0,6.0,32,0.00,,---,0.00,VWS V14.01,2013-12-16 20:46:00,
2013-12-16 15:47:00,58.8,29.8,30.14,SW,231,3.0,3.0,33,0.00,,---,0.00,VWS V14.01,2013-12-16 20:47:00,
2013-12-16 15:48:00,58.9,29.9,30.14,SSW,194,3.0,3.0,33,0.00,,---,0.00,VWS V14.01,2013-12-16 20:48:00,
2013-12-16 15:49:00,58.9,29.1,30.14,SSE,153,5.0,5.0,32,0.00,,---,0.00,VWS V14.01,2013-12-16 20:49:00,
2013-12-16 15:50:00,59.0,29.2,30.14,SW,236,6.0,6.0,32,0.00,,---,0.00,VWS V14.01,2013-12-16 20:50:00,
2013-12-16 15:51:00,58.7,28.2,30.14,SSE,153,2.0,5.0,31,0.00,,---,0.00,VWS V14.01,2013-12-16 20:51:00,
2013-12-16 15:52:00,58.9,29.1,30.14,WSW,238,3.0,5.0,32,0.00,,---,0.00,VWS V14.01,2013-12-16 20:52:00,
2013-12-16 15:53:00,58.9,29.1,30.14,SSW,200,9.0,11.0,32,0.00,,---,0.00,VWS V14.01,2013-12-16 20:53:00,
2013-12-16 15:55:00,58.8,28.3,30.14,SE,139,2.0,5.0,31,0.00,,---,0.00,VWS V14.01,2013-12-16 20:55:00,
2013-12-16 15:56:00,58.6,28.9,30.14,SE,134,4.0,5.0,32,0.00,,---,0.00,VWS V14.01,2013-12-16 20:56:00,
2013-12-16 15:57:00,58.6,28.9,30.14,SSW,197,1.0,2.0,32,0.00,,---,0.00,VWS V14.01,2013-12-16 20:57:00,
2013-12-16 15:58:00,58.6,28.9,30.14,SSW,211,2.0,3.0,32,0.00,,---,0.00,VWS V14.01,2013-12-16 20:58:00,
2013-12-16 15:59:00,58.7,28.9,30.14,WSW,253,4.0,4.0,32,0.00,,---,0.00,VWS V14.01,2013-12-16 20:59:00,
2013-12-16 16:00:00,58.6,28.9,30.14,SE,132,4.0,5.0,32,0.00,,---,0.00,VWS V14.01,2013-12-16 21:00:00,
2013-12-16 16:01:00,58.6,29.6,30.14,SW,228,2.0,2.0,33,0.00,,---,0.00,VWS V14.01,2013-12-16 21:01:00,
2013-12-16 16:02:00,58.6,29.6,30.14,West,276,2.0,3.0,33,0.00,,---,0.00,VWS V14.01,2013-12-16 21:02:00,
2013-12-16 16:03:00,58.6,28.9,30.14,WSW,238,3.0,5.0,32,0.00,,---,0.00,VWS V14.01,2013-12-16 21:03:00,
2013-12-16 16:04:00,58.6,28.9,30.14,SW,214,2.0,4.0,32,0.00,,---,0.00,VWS V14.01,2013-12-16 21:04:00,
2013-12-16 16:05:00,58.6,29.6,30.14,SW,228,2.0,2.0,33,0.00,,---,0.00,VWS V14.01,2013-12-16 21:05:00,
2013-12-16 16:06:00,58.6,28.9,30.14,SSW,202,2.0,5.0,32,0.00,,---,0.00,VWS V14.01,2013-12-16 21:06:00,
2013-12-16 16:07:00,58.6,28.9,30.14,SW,222,3.0,6.0,32,0.00,,---,0.00,VWS V14.01,2013-12-16 21:07:00,
2013-12-16 16:08:00,58.6,29.6,30.14,SW,218,0.0,3.0,33,0.00,,---,0.00,VWS V14.01,2013-12-16 21:08:00,
2013-12-16 16:09:00,58.6,29.6,30.14,SSW,207,3.0,3.0,33,0.00,,---,0.00,VWS V14.01,2013-12-16 21:09:00,
2013-12-16 16:10:00,58.6,28.9,30.14,SSW,202,2.0,5.0,32,0.00,,---,0.00,VWS V14.01,2013-12-16 21:10:00,
2013-12-16 16:11:00,58.2,28.5,30.15,WSW,238,3.0,5.0,32,0.00,,---,0.00,VWS V14.01,2013-12-16 21:11:00,
2013-12-16 16:12:00,58.4,28.7,30.15,South,169,3.0,5.0,32,0.00,,---,0.00,VWS V14.01,2013-12-16 21:12:00,
2013-12-16 16:13:00,58.4,29.4,30.15,South,174,4.0,7.0,33,0.00,,---,0.00,VWS V14.01,2013-12-16 21:13:00,
2013-12-16 16:14:00,58.3,29.3,30.15,SSW,207,2.0,6.0,33,0.00,,---,0.00,VWS V14.01,2013-12-16 21:14:00,
2013-12-16 16:15:00,58.2,28.5,30.15,SW,221,2.0,5.0,32,0.00,,---,0.00,VWS V14.01,2013-12-16 21:15:00,
2013-12-16 16:16:00,58.1,29.9,30.15,SW,222,1.0,1.0,34,0.00,,---,0.00,VWS V14.01,2013-12-16 21:16:00,
2013-12-16 16:17:00,58.2,29.3,30.15,West,259,3.0,3.0,33,0.00,,---,0.00,VWS V14.01,2013-12-16 21:17:00,
2013-12-16 16:18:00,58.1,29.2,30.15,SW,215,1.0,3.0,33,0.00,,---,0.00,VWS V14.01,2013-12-16 21:18:00,
2013-12-16 16:19:00,58.1,29.9,30.15,SW,229,0.0,1.0,34,0.00,,---,0.00,VWS V14.01,2013-12-16 21:19:00,
2013-12-16 16:20:00,58.1,29.9,30.15,SW,222,1.0,1.0,34,0.00,,---,0.00,VWS V14.01,2013-12-16 21:20:00,
2013-12-16 16:21:00,58.2,29.3,30.15,South,190,1.0,2.0,33,0.00,,---,0.00,VWS V14.01,2013-12-16 21:21:00,
2013-12-16 16:22:00,58.2,29.3,30.15,WSW,237,2.0,2.0,33,0.00,,---,0.00,VWS V14.01,2013-12-16 21:22:00,
2013-12-16 16:23:00,58.2,30.0,30.15,West,261,1.0,2.0,34,0.00,,---,0.00,VWS V14.01,2013-12-16 21:23:00,
2013-12-16 16:24:00,58.2,30.0,30.15,West,267,1.0,3.0,34,0.00,,---,0.00,VWS V14.01,2013-12-16 21:24:00,
2013-12-16 16:25:00,58.2,29.3,30.15,South,190,1.0,2.0,33,0.00,,---,0.00,VWS V14.01,2013-12-16 21:25:00,
2013-12-16 16:26:00,58.0,29.1,30.15,SSW,205,2.0,5.0,33,0.00,,---,0.00,VWS V14.01,2013-12-16 21:26:00,
2013-12-16 16:27:00,58.2,30.0,30.15,SSW,198,1.0,3.0,34,0.00,,---,0.00,VWS V14.01,2013-12-16 21:27:00,
2013-12-16 16:28:00,58.1,29.2,30.15,SW,218,1.0,5.0,33,0.00,,---,0.00,VWS V14.01,2013-12-16 21:28:00,
2013-12-16 16:29:00,58.0,29.1,30.15,SSW,203,3.0,3.0,33,0.00,,---,0.00,VWS V14.01,2013-12-16 21:29:00,
2013-12-16 16:30:00,58.0,29.1,30.15,SSW,205,2.0,5.0,33,0.00,,---,0.00,VWS V14.01,2013-12-16 21:30:00,
2013-12-16 16:31:00,57.8,28.9,30.15,South,174,2.0,3.0,33,0.00,,---,0.00,VWS V14.01,2013-12-16 21:31:00,
2013-12-16 16:32:00,57.9,29.0,30.15,SW,231,1.0,5.0,33,0.00,,---,0.00,VWS V14.01,2013-12-16 21:32:00,
2013-12-16 16:33:00,57.9,29.0,30.15,SSW,204,3.0,5.0,33,0.00,,---,0.00,VWS V14.01,2013-12-16 21:33:00,
2013-12-16 16:34:00,57.8,28.9,30.15,South,186,3.0,5.0,33,0.00,,---,0.00,VWS V14.01,2013-12-16 21:34:00,
2013-12-16 16:35:00,57.8,28.9,30.15,South,174,2.0,3.0,33,0.00,,---,0.00,VWS V14.01,2013-12-16 21:35:00,
2013-12-16 16:36:00,57.6,28.7,30.15,SSE,148,1.0,2.0,33,0.00,,---,0.00,VWS V14.01,2013-12-16 21:36:00,
2013-12-16 16:37:00,57.7,28.8,30.15,SSE,149,3.0,4.0,33,0.00,,---,0.00,VWS V14.01,2013-12-16 21:37:00,
2013-12-16 16:38:00,57.7,28.8,30.15,WSW,256,1.0,3.0,33,0.00,,---,0.00,VWS V14.01,2013-12-16 21:38:00,
2013-12-16 16:39:00,57.6,28.7,30.15,SSW,195,2.0,3.0,33,0.00,,---,0.00,VWS V14.01,2013-12-16 21:39:00,
2013-12-16 16:40:00,57.6,28.7,30.15,SSE,148,1.0,2.0,33,0.00,,---,0.00,VWS V14.01,2013-12-16 21:40:00,
2013-12-16 16:41:00,57.4,29.3,30.15,SSW,205,1.0,3.0,34,0.00,,---,0.00,VWS V14.01,2013-12-16 21:41:00,
2013-12-16 16:42:00,57.5,28.6,30.15,South,188,3.0,4.0,33,0.00,,---,0.00,VWS V14.01,2013-12-16 21:42:00,
2013-12-16 16:43:00,57.5,28.6,30.15,South,180,1.0,3.0,33,0.00,,---,0.00,VWS V14.01,2013-12-16 21:43:00,
2013-12-16 16:44:00,57.4,28.5,30.15,SSW,194,2.0,3.0,33,0.00,,---,0.00,VWS V14.01,2013-12-16 21:44:00,
2013-12-16 16:45:00,57.4,29.3,30.15,SSW,205,1.0,3.0,34,0.00,,---,0.00,VWS V14.01,2013-12-16 21:45:00,
2013-12-16 16:46:00,57.1,29.0,30.15,SW,217,1.0,1.0,34,0.00,,---,0.00,VWS V14.01,2013-12-16 21:46:00,
2013-12-16 16:47:00,57.3,28.5,30.15,SE,136,2.0,4.0,33,0.00,,---,0.00,VWS V14.01,2013-12-16 21:47:00,
2013-12-16 16:48:00,57.3,29.9,30.15,SW,219,0.0,2.0,35,0.00,,---,0.00,VWS V14.01,2013-12-16 21:48:00,
2013-12-16 16:49:00,57.2,29.1,30.15,SW,219,1.0,1.0,34,0.00,,---,0.00,VWS V14.01,2013-12-16 21:49:00,
2013-12-16 16:50:00,57.1,29.0,30.15,SW,217,1.0,1.0,34,0.00,,---,0.00,VWS V14.01,2013-12-16 21:50:00,
2013-12-16 16:51:00,56.7,29.4,30.15,SSE,160,0.0,0.0,35,0.00,,---,0.00,VWS V14.01,2013-12-16 21:51:00,
2013-12-16 16:52:00,57.0,28.9,30.15,WSW,238,0.0,0.0,34,0.00,,---,0.00,VWS V14.01,2013-12-16 21:52:00,
2013-12-16 16:53:00,56.9,28.8,30.15,WSW,238,0.0,0.0,34,0.00,,---,0.00,VWS V14.01,2013-12-16 21:53:00,
2013-12-16 16:54:00,56.8,28.8,30.15,SSE,160,0.0,0.0,34,0.00,,---,0.00,VWS V14.01,2013-12-16 21:54:00,
2013-12-16 16:55:00,56.7,29.4,30.15,SSE,160,0.0,0.0,35,0.00,,---,0.00,VWS V14.01,2013-12-16 21:55:00,
2013-12-16 16:56:00,56.3,30.4,30.15,SSE,161,0.0,0.0,37,0.00,,---,0.00,VWS V14.01,2013-12-16 21:56:00,
2013-12-16 16:57:00,56.6,29.3,30.15,SSE,160,0.0,0.0,35,0.00,,---,0.00,VWS V14.01,2013-12-16 21:57:00,
2013-12-16 16:58:00,56.5,29.2,30.15,SSE,160,0.0,0.0,35,0.00,,---,0.00,VWS V14.01,2013-12-16 21:58:00,
2013-12-16 16:59:00,56.4,29.1,30.15,SSE,160,0.0,0.0,35,0.00,,---,0.00,VWS V14.01,2013-12-16 21:59:00,
2013-12-16 17:00:00,56.3,30.4,30.15,SSE,160,0.0,0.0,37,0.00,,---,0.00,VWS V14.01,2013-12-16 22:00:00,
2013-12-16 17:01:00,55.3,32.0,30.15,SSE,162,0.0,0.0,41,0.00,,---,0.00,VWS V14.01,2013-12-16 22:01:00,
2013-12-16 17:02:00,55.8,30.6,30.15,SSE,162,0.0,0.0,38,0.00,,---,0.00,VWS V14.01,2013-12-16 22:02:00,
2013-12-16 17:03:00,55.7,30.5,30.15,SSE,162,0.0,0.0,38,0.00,,---,0.00,VWS V14.01,2013-12-16 22:03:00,
2013-12-16 17:04:00,55.5,31.6,30.15,SSE,162,0.0,0.0,40,0.00,,---,0.00,VWS V14.01,2013-12-16 22:04:00,
2013-12-16 17:05:00,55.3,32.0,30.15,SSE,162,0.0,0.0,41,0.00,,---,0.00,VWS V14.01,2013-12-16 22:05:00,
2013-12-16 17:06:00,54.2,32.2,30.15,SSE,162,0.0,0.0,43,0.00,,---,0.00,VWS V14.01,2013-12-16 22:06:00,
2013-12-16 17:07:00,54.9,31.7,30.15,SSE,162,0.0,0.0,41,0.00,,---,0.00,VWS V14.01,2013-12-16 22:07:00,
2013-12-16 17:08:00,54.6,32.0,30.15,SSE,162,0.0,0.0,42,0.00,,---,0.00,VWS V14.01,2013-12-16 22:08:00,
2013-12-16 17:09:00,54.4,31.8,30.15,SSE,162,0.0,0.0,42,0.00,,---,0.00,VWS V14.01,2013-12-16 22:09:00,
2013-12-16 17:10:00,54.2,32.2,30.15,SSE,160,0.0,0.0,43,0.00,,---,0.00,VWS V14.01,2013-12-16 22:10:00,
2013-12-16 17:11:00,53.0,32.2,30.15,SSE,167,1.0,1.0,45,0.00,,---,0.00,VWS V14.01,2013-12-16 22:11:00,
2013-12-16 17:12:00,53.8,32.4,30.15,SSE,162,0.0,0.0,44,0.00,,---,0.00,VWS V14.01,2013-12-16 22:12:00,
2013-12-16 17:13:00,53.6,32.2,30.15,SSE,162,0.0,0.0,44,0.00,,---,0.00,VWS V14.01,2013-12-16 22:13:00,
2013-12-16 17:14:00,53.3,32.5,30.15,SSE,162,0.0,0.0,45,0.00,,---,0.00,VWS V14.01,2013-12-16 22:14:00,
2013-12-16 17:15:00,53.0,32.2,30.15,South,181,1.0,1.0,45,0.00,,---,0.00,VWS V14.01,2013-12-16 22:15:00,
2013-12-16 17:16:00,52.3,30.5,30.15,WSW,249,4.0,5.0,43,0.00,,---,0.00,VWS V14.01,2013-12-16 22:16:00,
2013-12-16 17:17:00,52.5,31.2,30.15,SSW,207,1.0,1.0,44,0.00,,---,0.00,VWS V14.01,2013-12-16 22:17:00,
2013-12-16 17:18:00,52.3,31.0,30.15,SSE,150,2.0,6.0,44,0.00,,---,0.00,VWS V14.01,2013-12-16 22:18:00,
2013-12-16 17:19:00,52.3,30.5,30.15,South,173,3.0,4.0,43,0.00,,---,0.00,VWS V14.01,2013-12-16 22:19:00,
2013-12-16 17:20:00,52.3,30.5,30.15,WSW,249,4.0,5.0,43,0.00,,---,0.00,VWS V14.01,2013-12-16 22:20:00,
2013-12-16 17:21:00,52.6,31.3,30.15,SW,231,1.0,2.0,44,0.00,,---,0.00,VWS V14.01,2013-12-16 22:21:00,
2013-12-16 17:22:00,52.5,31.2,30.15,South,189,1.0,3.0,44,0.00,,---,0.00,VWS V14.01,2013-12-16 22:22:00,
2013-12-16 17:23:00,52.6,31.3,30.15,West,264,1.0,2.0,44,0.00,,---,0.00,VWS V14.01,2013-12-16 22:23:00,
2013-12-16 17:24:00,52.6,31.3,30.15,South,186,2.0,2.0,44,0.00,,---,0.00,VWS V14.01,2013-12-16 22:24:00,
2013-12-16 17:25:00,52.6,31.3,30.15,SW,231,1.0,2.0,44,0.00,,---,0.00,VWS V14.01,2013-12-16 22:25:00,
2013-12-16 17:26:00,52.4,31.7,30.16,SE,129,0.0,1.0,45,0.00,,---,0.00,VWS V14.01,2013-12-16 22:26:00,
2013-12-16 17:27:00,52.6,31.9,30.15,SSE,158,1.0,2.0,45,0.00,,---,0.00,VWS V14.01,2013-12-16 22:27:00,
2013-12-16 17:28:00,52.5,31.8,30.16,SSE,160,2.0,2.0,45,0.00,,---,0.00,VWS V14.01,2013-12-16 22:28:00,
2013-12-16 17:29:00,52.4,31.1,30.16,SSE,154,1.0,2.0,44,0.00,,---,0.00,VWS V14.01,2013-12-16 22:29:00,
2013-12-16 17:30:00,52.4,31.7,30.15,SE,139,1.0,1.0,45,0.00,,---,0.00,VWS V14.01,2013-12-16 22:30:00,
2013-12-16 17:31:00,51.9,31.8,30.15,SSW,195,1.0,1.0,46,0.00,,---,0.00,VWS V14.01,2013-12-16 22:31:00,
2013-12-16 17:32:00,52.2,32.1,30.16,SE,142,2.0,2.0,46,0.00,,---,0.00,VWS V14.01,2013-12-16 22:32:00,
2013-12-16 17:33:00,52.1,32.0,30.16,SSE,163,1.0,4.0,46,0.00,,---,0.00,VWS V14.01,2013-12-16 22:33:00,
2013-12-16 17:34:00,52.0,32.4,30.15,SSW,201,1.0,1.0,47,0.00,,---,0.00,VWS V14.01,2013-12-16 22:34:00,
2013-12-16 17:35:00,51.9,31.8,30.16,SW,232,2.0,2.0,46,0.00,,---,0.00,VWS V14.01,2013-12-16 22:35:00,
2013-12-16 17:36:00,51.5,32.5,30.15,South,186,0.0,1.0,48,0.00,,---,0.00,VWS V14.01,2013-12-16 22:36:00,
2013-12-16 17:37:00,51.7,32.7,30.15,SSE,150,0.0,1.0,48,0.00,,---,0.00,VWS V14.01,2013-12-16 22:37:00,
2013-12-16 17:38:00,51.6,32.0,30.15,South,190,1.0,3.0,47,0.00,,---,0.00,VWS V14.01,2013-12-16 22:38:00,
2013-12-16 17:39:00,51.6,32.0,30.15,South,190,1.0,1.0,47,0.00,,---,0.00,VWS V14.01,2013-12-16 22:39:00,
2013-12-16 17:40:00,51.5,32.5,30.15,South,176,1.0,1.0,48,0.00,,---,0.00,VWS V14.01,2013-12-16 22:40:00,
2013-12-16 17:41:00,51.2,32.2,30.15,WSW,252,1.0,3.0,48,0.00,,---,0.00,VWS V14.01,2013-12-16 22:41:00,
2013-12-16 17:42:00,51.3,31.8,30.15,South,181,3.0,3.0,47,0.00,,---,0.00,VWS V14.01,2013-12-16 22:42:00,
2013-12-16 17:43:00,51.3,31.8,30.15,South,170,1.0,3.0,47,0.00,,---,0.00,VWS V14.01,2013-12-16 22:43:00,
2013-12-16 17:44:00,51.2,32.2,30.15,South,172,3.0,3.0,48,0.00,,---,0.00,VWS V14.01,2013-12-16 22:44:00,
2013-12-16 17:45:00,51.2,32.2,30.15,WSW,245,1.0,3.0,48,0.00,,---,0.00,VWS V14.01,2013-12-16 22:45:00,
2013-12-16 17:46:00,51.1,32.1,30.16,WSW,250,2.0,2.0,48,0.00,,---,0.00,VWS V14.01,2013-12-16 22:46:00,
2013-12-16 17:47:00,51.1,32.1,30.15,SW,215,1.0,4.0,48,0.00,,---,0.00,VWS V14.01,2013-12-16 22:47:00,
2013-12-16 17:48:00,51.1,32.1,30.15,SW,221,3.0,3.0,48,0.00,,---,0.00,VWS V14.01,2013-12-16 22:48:00,
2013-12-16 17:49:00,51.1,32.1,30.16,SW,219,2.0,3.0,48,0.00,,---,0.00,VWS V14.01,2013-12-16 22:49:00,
2013-12-16 17:50:00,51.1,32.1,30.16,SW,215,2.0,2.0,48,0.00,,---,0.00,VWS V14.01,2013-12-16 22:50:00,
2013-12-16 17:51:00,51.0,32.0,30.16,SSE,167,1.0,2.0,48,0.00,,---,0.00,VWS V14.01,2013-12-16 22:51:00,
2013-12-16 17:52:00,51.1,32.1,30.16,SW,226,0.0,1.0,48,0.00,,---,0.00,VWS V14.01,2013-12-16 22:52:00,
2013-12-16 17:53:00,51.0,32.0,30.16,SW,226,0.0,0.0,48,0.00,,---,0.00,VWS V14.01,2013-12-16 22:53:00,
2013-12-16 17:54:00,51.0,32.0,30.16,SW,226,0.0,0.0,48,0.00,,---,0.00,VWS V14.01,2013-12-16 22:54:00,
2013-12-16 17:55:00,51.0,32.0,30.16,South,169,1.0,2.0,48,0.00,,---,0.00,VWS V14.01,2013-12-16 22:55:00,
2013-12-16 17:56:00,50.7,32.8,30.16,SE,146,0.0,0.0,50,0.00,,---,0.00,VWS V14.01,2013-12-16 22:56:00,
2013-12-16 17:57:00,50.9,32.4,30.16,SSE,147,0.0,1.0,49,0.00,,---,0.00,VWS V14.01,2013-12-16 22:57:00,
2013-12-16 17:58:00,50.9,32.4,30.16,SSE,147,0.0,0.0,49,0.00,,---,0.00,VWS V14.01,2013-12-16 22:58:00,
2013-12-16 17:59:00,50.8,32.8,30.16,SSE,147,0.0,0.0,50,0.00,,---,0.00,VWS V14.01,2013-12-16 22:59:00,
2013-12-16 18:00:00,50.7,32.8,30.16,SE,146,0.0,0.0,50,0.00,,---,0.00,VWS V14.01,2013-12-16 23:00:00,
2013-12-16 18:01:00,50.2,32.8,30.16,SSE,153,0.0,1.0,51,0.00,,---,0.00,VWS V14.01,2013-12-16 23:01:00,
2013-12-16 18:02:00,50.5,32.1,30.16,SSE,155,0.0,1.0,49,0.00,,---,0.00,VWS V14.01,2013-12-16 23:02:00,
2013-12-16 18:03:00,50.4,32.5,30.16,SSE,155,1.0,1.0,50,0.00,,---,0.00,VWS V14.01,2013-12-16 23:03:00,
2013-12-16 18:04:00,50.3,32.9,30.16,SSE,153,0.0,1.0,51,0.00,,---,0.00,VWS V14.01,2013-12-16 23:04:00,
2013-12-16 18:05:00,50.2,32.8,30.16,SSE,153,0.0,1.0,51,0.00,,---,0.00,VWS V14.01,2013-12-16 23:05:00,
2013-12-16 18:06:00,49.8,31.9,30.16,SE,142,0.0,1.0,50,0.00,,---,0.00,VWS V14.01,2013-12-16 23:06:00,
2013-12-16 18:07:00,50.0,32.6,30.16,SSE,153,0.0,1.0,51,0.00,,---,0.00,VWS V14.01,2013-12-16 23:07:00,
2013-12-16 18:08:00,49.9,32.5,30.16,SE,142,1.0,1.0,51,0.00,,---,0.00,VWS V14.01,2013-12-16 23:08:00,
2013-12-16 18:09:00,49.8,32.4,30.16,SE,142,1.0,1.0,51,0.00,,---,0.00,VWS V14.01,2013-12-16 23:09:00,
2013-12-16 18:10:00,49.8,31.9,30.16,SE,143,0.0,1.0,50,0.00,,---,0.00,VWS V14.01,2013-12-16 23:10:00,
2013-12-16 18:11:00,49.2,33.7,30.16,SE,142,0.0,0.0,55,0.00,,---,0.00,VWS V14.01,2013-12-16 23:11:00,
2013-12-16 18:12:00,49.7,32.8,30.16,SE,142,0.0,0.0,52,0.00,,---,0.00,VWS V14.01,2013-12-16 23:12:00,
2013-12-16 18:14:00,49.4,33.9,30.16,SE,143,0.0,0.0,55,0.00,,---,0.00,VWS V14.01,2013-12-16 23:14:00,
2013-12-16 18:16:00,48.5,33.1,30.16,SE,142,1.0,1.0,55,0.00,,---,0.00,VWS V14.01,2013-12-16 23:16:00,
2013-12-16 18:17:00,48.8,33.4,30.16,SE,143,0.0,0.0,55,0.00,,---,0.00,VWS V14.01,2013-12-16 23:17:00,
2013-12-16 18:18:00,48.7,33.3,30.16,SE,142,0.0,1.0,55,0.00,,---,0.00,VWS V14.01,2013-12-16 23:18:00,
2013-12-16 18:19:00,48.5,33.1,30.16,SE,142,0.0,0.0,55,0.00,,---,0.00,VWS V14.01,2013-12-16 23:19:00,
2013-12-16 18:20:00,48.5,33.1,30.16,SE,142,1.0,1.0,55,0.00,,---,0.00,VWS V14.01,2013-12-16 23:20:00,
2013-12-16 18:21:00,48.3,34.2,30.16,SE,143,0.0,1.0,58,0.00,,---,0.00,VWS V14.01,2013-12-16 23:21:00,
2013-12-16 18:25:00,48.3,34.2,30.16,SE,143,0.0,1.0,58,0.00,,---,0.00,VWS V14.01,2013-12-16 23:25:00,
2013-12-16 18:26:00,47.8,33.8,30.16,SE,142,0.0,0.0,58,0.00,,---,0.00,VWS V14.01,2013-12-16 23:26:00,
2013-12-16 18:28:00,48.0,33.9,30.16,SE,142,0.0,0.0,58,0.00,,---,0.00,VWS V14.01,2013-12-16 23:28:00,
2013-12-16 18:29:00,47.9,33.8,30.16,SE,143,0.0,0.0,58,0.00,,---,0.00,VWS V14.01,2013-12-16 23:29:00,
2013-12-16 18:30:00,47.8,33.8,30.16,SE,142,0.0,0.0,58,0.00,,---,0.00,VWS V14.01,2013-12-16 23:30:00,
2013-12-16 18:31:00,47.2,34.0,30.16,SE,143,0.0,0.0,60,0.00,,---,0.00,VWS V14.01,2013-12-16 23:31:00,
2013-12-16 18:32:00,47.6,34.0,30.16,SE,142,0.0,0.0,59,0.00,,---,0.00,VWS V14.01,2013-12-16 23:32:00,
2013-12-16 18:33:00,47.5,33.9,30.16,SE,142,0.0,0.0,59,0.00,,---,0.00,VWS V14.01,2013-12-16 23:33:00,
2013-12-16 18:34:00,47.3,33.7,30.16,SE,142,0.0,0.0,59,0.00,,---,0.00,VWS V14.01,2013-12-16 23:34:00,
2013-12-16 18:35:00,47.2,34.0,30.16,SE,143,0.0,0.0,60,0.00,,---,0.00,VWS V14.01,2013-12-16 23:35:00,
2013-12-16 18:36:00,46.4,33.7,30.16,SE,142,0.0,0.0,61,0.00,,---,0.00,VWS V14.01,2013-12-16 23:36:00,
2013-12-16 18:37:00,46.9,33.8,30.16,SE,142,0.0,0.0,60,0.00,,---,0.00,VWS V14.01,2013-12-16 23:37:00,
2013-12-16 18:38:00,46.7,33.6,30.16,SE,143,0.0,0.0,60,0.00,,---,0.00,VWS V14.01,2013-12-16 23:38:00,
2013-12-16 18:39:00,46.6,33.9,30.16,SE,143,0.0,0.0,61,0.00,,---,0.00,VWS V14.01,2013-12-16 23:39:00,
2013-12-16 18:40:00,46.4,33.7,30.16,SE,142,0.0,0.0,61,0.00,,---,0.00,VWS V14.01,2013-12-16 23:40:00,
2013-12-16 18:41:00,45.8,33.9,30.16,SE,142,0.0,0.0,63,0.00,,---,0.00,VWS V14.01,2013-12-16 23:41:00,
2013-12-16 18:42:00,46.2,33.9,30.16,SE,142,0.0,0.0,62,0.00,,---,0.00,VWS V14.01,2013-12-16 23:42:00,
2013-12-16 18:43:00,46.1,33.8,30.16,SE,142,0.0,0.0,62,0.00,,---,0.00,VWS V14.01,2013-12-16 23:43:00,
2013-12-16 18:44:00,45.9,33.6,30.16,SE,142,0.0,0.0,62,0.00,,---,0.00,VWS V14.01,2013-12-16 23:44:00,
2013-12-16 18:45:00,45.8,33.9,30.16,SE,142,0.0,0.0,63,0.00,,---,0.00,VWS V14.01,2013-12-16 23:45:00,
2013-12-16 18:46:00,45.2,34.2,30.17,SE,142,0.0,0.0,65,0.00,,---,0.00,VWS V14.01,2013-12-16 23:46:00,
2013-12-16 18:47:00,45.5,34.0,30.17,SE,143,0.0,0.0,64,0.00,,---,0.00,VWS V14.01,2013-12-16 23:47:00,
2013-12-16 18:48:00,45.5,34.0,30.17,SE,142,0.0,0.0,64,0.00,,---,0.00,VWS V14.01,2013-12-16 23:48:00,
2013-12-16 18:49:00,45.3,33.8,30.17,SE,142,0.0,0.0,64,0.00,,---,0.00,VWS V14.01,2013-12-16 23:49:00,
2013-12-16 18:50:00,45.2,34.2,30.17,SE,142,0.0,0.0,65,0.00,,---,0.00,VWS V14.01,2013-12-16 23:50:00,
2013-12-16 18:51:00,44.9,33.5,30.17,SE,142,0.0,0.0,64,0.00,,---,0.00,VWS V14.01,2013-12-16 23:51:00,
2013-12-16 18:52:00,45.0,33.6,30.16,SE,142,0.0,0.0,64,0.00,,---,0.00,VWS V14.01,2013-12-16 23:52:00,
2013-12-16 18:53:00,44.9,33.5,30.17,SE,142,1.0,1.0,64,0.00,,---,0.00,VWS V14.01,2013-12-16 23:53:00,
2013-12-16 18:54:00,44.9,33.5,30.16,SE,142,0.0,1.0,64,0.00,,---,0.00,VWS V14.01,2013-12-16 23:54:00,
2013-12-16 18:55:00,44.9,33.5,30.17,SE,142,0.0,0.0,64,0.00,,---,0.00,VWS V14.01,2013-12-16 23:55:00,
2013-12-16 18:56:00,44.6,33.2,30.17,SE,142,0.0,0.0,64,0.00,,---,0.00,VWS V14.01,2013-12-16 23:56:00,
2013-12-16 18:57:00,44.8,33.4,30.16,SE,142,0.0,0.0,64,0.00,,---,0.00,VWS V14.01,2013-12-16 23:57:00,
2013-12-16 18:58:00,44.7,33.3,30.16,SE,143,0.0,0.0,64,0.00,,---,0.00,VWS V14.01,2013-12-16 23:58:00,
2013-12-16 18:59:00,44.7,33.3,30.17,SE,142,0.0,0.0,64,0.00,,---,0.00,VWS V14.01,2013-12-16 23:59:00,
2013-12-16 19:00:00,44.6,33.2,30.17,SE,142,0.0,0.0,64,0.00,,---,0.00,VWS V14.01,2013-12-17 00:00:00,
2013-12-16 19:01:00,44.1,33.1,30.17,SE,142,0.0,1.0,65,0.00,,---,0.00,VWS V14.01,2013-12-17 00:01:00,
2013-12-16 19:02:00,44.4,33.0,30.17,SE,142,0.0,0.0,64,0.00,,---,0.00,VWS V14.01,2013-12-17 00:02:00,
2013-12-16 19:03:00,44.3,33.3,30.17,SE,142,0.0,0.0,65,0.00,,---,0.00,VWS V14.01,2013-12-17 00:03:00,
2013-12-16 19:04:00,44.2,33.2,30.17,SE,142,0.0,0.0,65,0.00,,---,0.00,VWS V14.01,2013-12-17 00:04:00,
2013-12-16 19:05:00,44.1,33.1,30.17,SE,142,0.0,1.0,65,0.00,,---,0.00,VWS V14.01,2013-12-17 00:05:00,
2013-12-16 19:06:00,43.7,33.1,30.17,SE,142,0.0,0.0,66,0.00,,---,0.00,VWS V14.01,2013-12-17 00:06:00,
2013-12-16 19:07:00,43.9,33.3,30.17,SE,142,0.0,0.0,66,0.00,,---,0.00,VWS V14.01,2013-12-17 00:07:00,
2013-12-16 19:08:00,43.8,33.2,30.17,SE,142,0.0,0.0,66,0.00,,---,0.00,VWS V14.01,2013-12-17 00:08:00,
2013-12-16 19:09:00,43.8,33.2,30.17,SE,142,0.0,0.0,66,0.00,,---,0.00,VWS V14.01,2013-12-17 00:09:00,
2013-12-16 19:10:00,43.7,33.1,30.17,SE,143,0.0,0.0,66,0.00,,---,0.00,VWS V14.01,2013-12-17 00:10:00,
2013-12-16 19:11:00,43.1,32.9,30.17,SE,142,0.0,0.0,67,0.00,,---,0.00,VWS V14.01,2013-12-17 00:11:00,
2013-12-16 19:12:00,43.5,32.9,30.17,SE,141,0.0,0.0,66,0.00,,---,0.00,VWS V14.01,2013-12-17 00:12:00,
2013-12-16 19:13:00,43.4,32.8,30.17,SE,142,0.0,0.0,66,0.00,,---,0.00,VWS V14.01,2013-12-17 00:13:00,
2013-12-16 19:14:00,43.3,32.7,30.17,SE,142,0.0,0.0,66,0.00,,---,0.00,VWS V14.01,2013-12-17 00:14:00,
2013-12-16 19:15:00,43.1,32.9,30.17,SE,142,0.0,0.0,67,0.00,,---,0.00,VWS V14.01,2013-12-17 00:15:00,
2013-12-16 19:16:00,42.5,33.4,30.17,SE,142,0.0,0.0,70,0.00,,---,0.00,VWS V14.01,2013-12-17 00:16:00,
2013-12-16 19:17:00,42.9,33.1,30.17,SE,142,0.0,0.0,68,0.00,,---,0.00,VWS V14.01,2013-12-17 00:17:00,
2013-12-16 19:18:00,42.8,33.3,30.17,SE,142,0.0,0.0,69,0.00,,---,0.00,VWS V14.01,2013-12-17 00:18:00,
2013-12-16 19:19:00,42.7,33.2,30.17,SE,142,0.0,0.0,69,0.00,,---,0.00,VWS V14.01,2013-12-17 00:19:00,
2013-12-16 19:20:00,42.5,33.4,30.17,SE,142,0.0,0.0,70,0.00,,---,0.00,VWS V14.01,2013-12-17 00:20:00,
2013-12-16 19:21:00,41.9,33.2,30.17,SE,142,0.0,0.0,71,0.00,,---,0.00,VWS V14.01,2013-12-17 00:21:00,
2013-12-16 19:22:00,42.3,33.2,30.17,SE,142,0.0,0.0,70,0.00,,---,0.00,VWS V14.01,2013-12-17 00:22:00,
2013-12-16 19:23:00,42.2,33.5,30.17,SE,142,0.0,0.0,71,0.00,,---,0.00,VWS V14.01,2013-12-17 00:23:00,
2013-12-16 19:24:00,42.1,33.4,30.17,SE,142,0.0,0.0,71,0.00,,---,0.00,VWS V14.01,2013-12-17 00:24:00,
2013-12-16 19:25:00,41.9,33.2,30.17,SE,142,0.0,0.0,71,0.00,,---,0.00,VWS V14.01,2013-12-17 00:25:00,
2013-12-16 19:26:00,41.3,33.0,30.18,SE,142,0.0,0.0,72,0.00,,---,0.00,VWS V14.01,2013-12-17 00:26:00,
2013-12-16 19:27:00,41.7,33.0,30.17,SE,142,0.0,0.0,71,0.00,,---,0.00,VWS V14.01,2013-12-17 00:27:00,
2013-12-16 19:28:00,41.5,33.2,30.17,SE,142,0.0,0.0,72,0.00,,---,0.00,VWS V14.01,2013-12-17 00:28:00,
2013-12-16 19:29:00,41.4,33.1,30.17,SE,142,0.0,1.0,72,0.00,,---,0.00,VWS V14.01,2013-12-17 00:29:00,
2013-12-16 19:30:00,41.3,33.0,30.18,SE,142,0.0,0.0,72,0.00,,---,0.00,VWS V14.01,2013-12-17 00:30:00,
2013-12-16 19:31:00,40.8,33.2,30.17,SE,142,0.0,0.0,74,0.00,,---,0.00,VWS V14.01,2013-12-17 00:31:00,
2013-12-16 19:32:00,41.1,33.1,30.17,SE,142,0.0,1.0,73,0.00,,---,0.00,VWS V14.01,2013-12-17 00:32:00,
2013-12-16 19:33:00,41.0,33.4,30.17,SE,142,0.0,1.0,74,0.00,,---,0.00,VWS V14.01,2013-12-17 00:33:00,
2013-12-16 19:34:00,40.9,33.3,30.17,SE,143,0.0,0.0,74,0.00,,---,0.00,VWS V14.01,2013-12-17 00:34:00,
2013-12-16 19:35:00,40.8,33.2,30.17,SE,142,0.0,0.0,74,0.00,,---,0.00,VWS V14.01,2013-12-17 00:35:00,
2013-12-16 19:36:00,40.5,32.9,30.17,SE,142,0.0,0.0,74,0.00,,---,0.00,VWS V14.01,2013-12-17 00:36:00,
2013-12-16 19:37:00,40.7,33.1,30.17,SE,142,0.0,0.0,74,0.00,,---,0.00,VWS V14.01,2013-12-17 00:37:00,
2013-12-16 19:38:00,40.6,33.0,30.17,SE,142,0.0,0.0,74,0.00,,---,0.00,VWS V14.01,2013-12-17 00:38:00,
2013-12-16 19:39:00,40.6,33.0,30.17,SE,142,0.0,0.0,74,0.00,,---,0.00,VWS V14.01,2013-12-17 00:39:00,
2013-12-16 19:40:00,40.5,32.9,30.17,SE,142,0.0,0.0,74,0.00,,---,0.00,VWS V14.01,2013-12-17 00:40:00,
2013-12-16 19:41:00,40.1,33.2,30.17,SE,142,0.0,0.0,76,0.00,,---,0.00,VWS V14.01,2013-12-17 00:41:00,
2013-12-16 19:42:00,40.3,32.7,30.17,SE,142,0.0,1.0,74,0.00,,---,0.00,VWS V14.01,2013-12-17 00:42:00,
2013-12-16 19:43:00,40.2,32.6,30.17,SE,142,0.0,0.0,74,0.00,,---,0.00,VWS V14.01,2013-12-17 00:43:00,
2013-12-16 19:44:00,40.1,32.8,30.17,SE,142,0.0,1.0,75,0.00,,---,0.00,VWS V14.01,2013-12-17 00:44:00,
2013-12-16 19:45:00,40.1,33.2,30.17,SE,142,0.0,0.0,76,0.00,,---,0.00,VWS V14.01,2013-12-17 00:45:00,
2013-12-16 19:46:00,39.6,32.7,30.17,SE,142,0.0,1.0,76,0.00,,---,0.00,VWS V14.01,2013-12-17 00:46:00,
2013-12-16 19:47:00,39.8,32.9,30.17,SE,142,0.0,0.0,76,0.00,,---,0.00,VWS V14.01,2013-12-17 00:47:00,
2013-12-16 19:48:00,39.7,32.8,30.17,SE,142,0.0,0.0,76,0.00,,---,0.00,VWS V14.01,2013-12-17 00:48:00,
2013-12-16 19:49:00,39.7,32.8,30.17,SE,142,0.0,0.0,76,0.00,,---,0.00,VWS V14.01,2013-12-17 00:49:00,
2013-12-16 19:50:00,39.6,32.7,30.17,SE,142,0.0,1.0,76,0.00,,---,0.00,VWS V14.01,2013-12-17 00:50:00,
2013-12-16 19:51:00,39.1,32.5,30.17,SE,142,0.0,0.0,77,0.00,,---,0.00,VWS V14.01,2013-12-17 00:51:00,
2013-12-16 19:52:00,39.4,32.5,30.17,SE,142,0.0,0.0,76,0.00,,---,0.00,VWS V14.01,2013-12-17 00:52:00,
2013-12-16 19:53:00,39.3,32.4,30.17,SE,142,0.0,0.0,76,0.00,,---,0.00,VWS V14.01,2013-12-17 00:53:00,
2013-12-16 19:54:00,39.2,32.3,30.17,SE,142,0.0,0.0,76,0.00,,---,0.00,VWS V14.01,2013-12-17 00:54:00,
2013-12-16 19:55:00,39.1,32.5,30.17,SE,142,0.0,0.0,77,0.00,,---,0.00,VWS V14.01,2013-12-17 00:55:00,
2013-12-16 19:56:00,38.7,32.4,30.17,SE,143,0.0,0.0,78,0.00,,---,0.00,VWS V14.01,2013-12-17 00:56:00,
2013-12-16 19:57:00,38.9,32.3,30.17,SE,142,0.0,1.0,77,0.00,,---,0.00,VWS V14.01,2013-12-17 00:57:00,
2013-12-16 19:58:00,38.9,32.6,30.17,SE,142,0.0,0.0,78,0.00,,---,0.00,VWS V14.01,2013-12-17 00:58:00,
2013-12-16 19:59:00,38.8,32.5,30.17,SE,142,0.0,0.0,78,0.00,,---,0.00,VWS V14.01,2013-12-17 00:59:00,
2013-12-16 20:00:00,38.7,32.4,30.17,SE,142,0.0,0.0,78,0.00,,---,0.00,VWS V14.01,2013-12-17 01:00:00,
2013-12-16 20:01:00,38.4,32.5,30.17,SE,142,0.0,0.0,79,0.00,,---,0.00,VWS V14.01,2013-12-17 01:01:00,
2013-12-16 20:02:00,38.6,32.3,30.17,SE,142,0.0,0.0,78,0.00,,---,0.00,VWS V14.01,2013-12-17 01:02:00,
2013-12-16 20:03:00,38.5,32.6,30.17,SE,142,0.0,0.0,79,0.00,,---,0.00,VWS V14.01,2013-12-17 01:03:00,
2013-12-16 20:04:00,38.5,32.6,30.17,SE,142,0.0,0.0,79,0.00,,---,0.00,VWS V14.01,2013-12-17 01:04:00,
2013-12-16 20:05:00,38.4,32.5,30.17,SE,142,0.0,0.0,79,0.00,,---,0.00,VWS V14.01,2013-12-17 01:05:00,
2013-12-16 20:06:00,37.9,32.3,30.17,SE,142,0.0,0.0,80,0.00,,---,0.00,VWS V14.01,2013-12-17 01:06:00,
2013-12-16 20:07:00,38.2,32.3,30.17,SE,142,0.0,1.0,79,0.00,,---,0.00,VWS V14.01,2013-12-17 01:07:00,
2013-12-16 20:08:00,38.1,32.5,30.17,SE,142,0.0,0.0,80,0.00,,---,0.00,VWS V14.01,2013-12-17 01:08:00,
2013-12-16 20:09:00,38.0,32.4,30.17,SE,142,0.0,0.0,80,0.00,,---,0.00,VWS V14.01,2013-12-17 01:09:00,
2013-12-16 20:10:00,37.9,32.3,30.17,SE,142,0.0,0.0,80,0.00,,---,0.00,VWS V14.01,2013-12-17 01:10:00,
2013-12-16 20:11:00,37.5,31.9,30.17,SE,142,0.0,0.0,80,0.00,,---,0.00,VWS V14.01,2013-12-17 01:11:00,
2013-12-16 20:12:00,37.7,32.1,30.17,SE,142,0.0,0.0,80,0.00,,---,0.00,VWS V14.01,2013-12-17 01:12:00,
2013-12-16 20:13:00,37.6,32.0,30.17,SE,142,0.0,0.0,80,0.00,,---,0.00,VWS V14.01,2013-12-17 01:13:00,
2013-12-16 20:14:00,37.5,31.9,30.17,SE,142,0.0,0.0,80,0.00,,---,0.00,VWS V14.01,2013-12-17 01:14:00,
2013-12-16 20:15:00,37.5,31.9,30.17,SE,142,0.0,0.0,80,0.00,,---,0.00,VWS V14.01,2013-12-17 01:15:00,
2013-12-16 20:16:00,36.9,31.6,30.17,SE,142,0.0,0.0,81,0.00,,---,0.00,VWS V14.01,2013-12-17 01:16:00,
2013-12-16 20:17:00,37.3,31.7,30.17,SE,142,0.0,0.0,80,0.00,,---,0.00,VWS V14.01,2013-12-17 01:17:00,
2013-12-16 20:18:00,37.2,31.9,30.17,SE,142,0.0,0.0,81,0.00,,---,0.00,VWS V14.01,2013-12-17 01:18:00,
2013-12-16 20:19:00,37.1,31.8,30.17,SE,141,0.0,0.0,81,0.00,,---,0.00,VWS V14.01,2013-12-17 01:19:00,
2013-12-16 20:20:00,36.9,31.6,30.17,SE,142,0.0,0.0,81,0.00,,---,0.00,VWS V14.01,2013-12-17 01:20:00,
2013-12-16 20:21:00,36.6,31.6,30.17,SE,142,0.0,0.0,82,0.00,,---,0.00,VWS V14.01,2013-12-17 01:21:00,
2013-12-16 20:22:00,36.8,31.5,30.17,SE,142,0.0,0.0,81,0.00,,---,0.00,VWS V14.01,2013-12-17 01:22:00,
2013-12-16 20:23:00,36.7,31.7,30.17,SE,142,0.0,0.0,82,0.00,,---,0.00,VWS V14.01,2013-12-17 01:23:00,
2013-12-16 20:24:00,36.7,31.7,30.17,SE,142,0.0,0.0,82,0.00,,---,0.00,VWS V14.01,2013-12-17 01:24:00,
2013-12-16 20:25:00,36.3,31.6,30.17,SE,142,0.0,0.0,83,0.00,,---,0.00,VWS V14.01,2013-12-17 01:25:00,
2013-12-16 20:26:00,36.5,31.8,30.17,SE,142,0.0,0.0,83,0.00,,---,0.00,VWS V14.01,2013-12-17 01:26:00,
2013-12-16 20:27:00,36.4,31.7,30.17,SE,142,0.0,0.0,83,0.00,,---,0.00,VWS V14.01,2013-12-17 01:27:00,
2013-12-16 20:28:00,36.3,31.6,30.17,SE,142,0.0,0.0,83,0.00,,---,0.00,VWS V14.01,2013-12-17 01:28:00,
2013-12-16 20:29:00,36.3,31.6,30.17,SE,142,0.0,0.0,83,0.00,,---,0.00,VWS V14.01,2013-12-17 01:29:00,
2013-12-16 20:30:00,36.0,31.6,30.17,SE,142,0.0,0.0,84,0.00,,---,0.00,VWS V14.01,2013-12-17 01:30:00,
2013-12-16 20:31:00,36.1,31.5,30.17,SE,142,0.0,0.0,83,0.00,,---,0.00,VWS V14.01,2013-12-17 01:31:00,
2013-12-16 20:32:00,36.1,31.5,30.17,SE,142,0.0,0.0,83,0.00,,---,0.00,VWS V14.01,2013-12-17 01:32:00,
2013-12-16 20:33:00,36.0,31.6,30.17,SE,141,0.0,0.0,84,0.00,,---,0.00,VWS V14.01,2013-12-17 01:33:00,
2013-12-16 20:34:00,36.0,31.6,30.17,SE,142,0.0,0.0,84,0.00,,---,0.00,VWS V14.01,2013-12-17 01:34:00,
2013-12-16 20:35:00,35.9,31.5,30.17,SE,142,0.0,0.0,84,0.00,,---,0.00,VWS V14.01,2013-12-17 01:35:00,
2013-12-16 20:36:00,35.9,31.5,30.17,SE,142,0.0,0.0,84,0.00,,---,0.00,VWS V14.01,2013-12-17 01:36:00,
2013-12-16 20:37:00,35.9,31.5,30.17,SE,143,0.0,0.0,84,0.00,,---,0.00,VWS V14.01,2013-12-17 01:37:00,
2013-12-16 20:38:00,35.9,31.5,30.17,SE,142,0.0,1.0,84,0.00,,---,0.00,VWS V14.01,2013-12-17 01:38:00,
2013-12-16 20:39:00,35.9,31.5,30.17,SE,142,0.0,0.0,84,0.00,,---,0.00,VWS V14.01,2013-12-17 01:39:00,
2013-12-16 20:40:00,35.8,31.5,30.17,SE,142,0.0,0.0,84,0.00,,---,0.00,VWS V14.01,2013-12-17 01:40:00,
2013-12-16 20:41:00,35.8,31.5,30.17,SE,142,0.0,1.0,84,0.00,,---,0.00,VWS V14.01,2013-12-17 01:41:00,
2013-12-16 20:42:00,35.8,31.5,30.17,SE,141,0.0,0.0,84,0.00,,---,0.00,VWS V14.01,2013-12-17 01:42:00,
2013-12-16 20:43:00,35.8,31.5,30.17,SE,142,0.0,0.0,84,0.00,,---,0.00,VWS V14.01,2013-12-17 01:43:00,
2013-12-16 20:44:00,35.8,31.5,30.17,SE,142,0.0,0.0,84,0.00,,---,0.00,VWS V14.01,2013-12-17 01:44:00,
2013-12-16 20:45:00,35.6,31.2,30.17,SE,142,0.0,0.0,84,0.00,,---,0.00,VWS V14.01,2013-12-17 01:45:00,
2013-12-16 20:46:00,35.7,31.4,30.17,SE,142,0.0,0.0,84,0.00,,---,0.00,VWS V14.01,2013-12-17 01:46:00,
2013-12-16 20:47:00,35.6,31.2,30.17,SE,142,0.0,0.0,84,0.00,,---,0.00,VWS V14.01,2013-12-17 01:47:00,
2013-12-16 20:48:00,35.6,31.2,30.17,SE,142,0.0,0.0,84,0.00,,---,0.00,VWS V14.01,2013-12-17 01:48:00,
2013-12-16 20:49:00,35.5,31.1,30.17,SE,142,0.0,0.0,84,0.00,,---,0.00,VWS V14.01,2013-12-17 01:49:00,
2013-12-16 20:50:00,35.3,31.2,30.17,SE,142,0.0,0.0,85,0.00,,---,0.00,VWS V14.01,2013-12-17 01:50:00,
2013-12-16 20:51:00,35.5,31.1,30.17,SE,142,0.0,0.0,84,0.00,,---,0.00,VWS V14.01,2013-12-17 01:51:00,
2013-12-16 20:52:00,35.4,31.4,30.17,SE,142,0.0,0.0,85,0.00,,---,0.00,VWS V14.01,2013-12-17 01:52:00,
2013-12-16 20:53:00,35.3,31.2,30.17,SE,142,0.0,0.0,85,0.00,,---,0.00,VWS V14.01,2013-12-17 01:53:00,
2013-12-16 20:54:00,35.3,31.2,30.17,SE,142,0.0,0.0,85,0.00,,---,0.00,VWS V14.01,2013-12-17 01:54:00,
2013-12-16 20:55:00,35.1,31.0,30.17,SE,142,0.0,0.0,85,0.00,,---,0.00,VWS V14.01,2013-12-17 01:55:00,
2013-12-16 20:56:00,35.2,31.1,30.17,SE,142,0.0,0.0,85,0.00,,---,0.00,VWS V14.01,2013-12-17 01:56:00,
2013-12-16 20:57:00,35.1,31.0,30.17,SE,142,0.0,0.0,85,0.00,,---,0.00,VWS V14.01,2013-12-17 01:57:00,
2013-12-16 20:58:00,35.0,31.0,30.17,SE,142,0.0,0.0,85,0.00,,---,0.00,VWS V14.01,2013-12-17 01:58:00,
2013-12-16 20:59:00,35.0,31.0,30.17,SE,142,0.0,0.0,85,0.00,,---,0.00,VWS V14.01,2013-12-17 01:59:00,
2013-12-16 21:00:00,34.9,31.1,30.18,SE,142,0.0,0.0,86,0.00,,---,0.00,VWS V14.01,2013-12-17 02:00:00,
2013-12-16 21:01:00,34.9,30.9,30.17,SE,142,0.0,0.0,85,0.00,,---,0.00,VWS V14.01,2013-12-17 02:01:00,
2013-12-16 21:02:00,34.9,31.1,30.17,SE,142,0.0,0.0,86,0.00,,---,0.00,VWS V14.01,2013-12-17 02:02:00,
2013-12-16 21:03:00,34.8,31.0,30.17,SE,141,0.0,0.0,86,0.00,,---,0.00,VWS V14.01,2013-12-17 02:03:00,
2013-12-16 21:04:00,34.8,31.0,30.18,SE,142,0.0,0.0,86,0.00,,---,0.00,VWS V14.01,2013-12-17 02:04:00,
2013-12-16 21:05:00,34.5,30.8,30.17,SE,142,0.0,0.0,86,0.00,,---,0.00,VWS V14.01,2013-12-17 02:05:00,
2013-12-16 21:06:00,34.7,31.0,30.17,SE,142,0.0,0.0,86,0.00,,---,0.00,VWS V14.01,2013-12-17 02:06:00,
2013-12-16 21:07:00,34.7,31.0,30.17,SE,142,0.0,0.0,86,0.00,,---,0.00,VWS V14.01,2013-12-17 02:07:00,
2013-12-16 21:08:00,34.6,30.9,30.17,SE,142,0.0,0.0,86,0.00,,---,0.00,VWS V14.01,2013-12-17 02:08:00,
2013-12-16 21:09:00,34.5,30.8,30.17,SE,141,0.0,0.0,86,0.00,,---,0.00,VWS V14.01,2013-12-17 02:09:00,
2013-12-16 21:10:00,34.2,30.5,30.17,SE,142,0.0,0.0,86,0.00,,---,0.00,VWS V14.01,2013-12-17 02:10:00,
2013-12-16 21:11:00,34.4,30.6,30.18,SE,142,0.0,0.0,86,0.00,,---,0.00,VWS V14.01,2013-12-17 02:11:00,
2013-12-16 21:12:00,34.3,30.6,30.17,SE,142,0.0,0.0,86,0.00,,---,0.00,VWS V14.01,2013-12-17 02:12:00,
2013-12-16 21:13:00,34.3,30.6,30.17,SE,142,0.0,0.0,86,0.00,,---,0.00,VWS V14.01,2013-12-17 02:13:00,
2013-12-16 21:14:00,34.2,30.5,30.17,SE,142,0.0,0.0,86,0.00,,---,0.00,VWS V14.01,2013-12-17 02:14:00,
2013-12-16 21:15:00,34.0,30.5,30.17,SE,142,0.0,0.0,87,0.00,,---,0.00,VWS V14.01,2013-12-17 02:15:00,
2013-12-16 21:16:00,34.1,30.4,30.17,SE,142,0.0,0.0,86,0.00,,---,0.00,VWS V14.01,2013-12-17 02:16:00,
2013-12-16 21:17:00,34.0,30.5,30.17,SE,142,0.0,0.0,87,0.00,,---,0.00,VWS V14.01,2013-12-17 02:17:00,
2013-12-16 21:18:00,34.0,30.5,30.17,SE,142,0.0,0.0,87,0.00,,---,0.00,VWS V14.01,2013-12-17 02:18:00,
2013-12-16 21:19:00,33.9,30.5,30.17,SE,142,0.0,0.0,87,0.00,,---,0.00,VWS V14.01,2013-12-17 02:19:00,
2013-12-16 21:20:00,33.7,30.2,30.17,SE,142,0.0,0.0,87,0.00,,---,0.00,VWS V14.01,2013-12-17 02:20:00,
2013-12-16 21:21:00,33.8,30.4,30.17,SE,142,0.0,0.0,87,0.00,,---,0.00,VWS V14.01,2013-12-17 02:21:00,
2013-12-16 21:22:00,33.8,30.4,30.17,SE,142,0.0,0.0,87,0.00,,---,0.00,VWS V14.01,2013-12-17 02:22:00,
2013-12-16 21:23:00,33.7,30.2,30.17,SE,141,0.0,0.0,87,0.00,,---,0.00,VWS V14.01,2013-12-17 02:23:00,
2013-12-16 21:24:00,33.7,30.2,30.17,SE,142,0.0,0.0,87,0.00,,---,0.00,VWS V14.01,2013-12-17 02:24:00,
2013-12-16 21:25:00,33.4,30.2,30.17,SE,142,0.0,0.0,88,0.00,,---,0.00,VWS V14.01,2013-12-17 02:25:00,
2013-12-16 21:26:00,33.6,30.1,30.18,SE,142,0.0,0.0,87,0.00,,---,0.00,VWS V14.01,2013-12-17 02:26:00,
2013-12-16 21:27:00,33.5,30.0,30.17,SE,142,0.0,0.0,87,0.00,,---,0.00,VWS V14.01,2013-12-17 02:27:00,
2013-12-16 21:28:00,33.5,30.3,30.18,SE,142,0.0,0.0,88,0.00,,---,0.00,VWS V14.01,2013-12-17 02:28:00,
2013-12-16 21:29:00,33.4,30.2,30.17,SE,142,0.0,0.0,88,0.00,,---,0.00,VWS V14.01,2013-12-17 02:29:00,
2013-12-16 21:30:00,33.2,30.0,30.17,SE,142,0.0,0.0,88,0.00,,---,0.00,VWS V14.01,2013-12-17 02:30:00,
2013-12-16 21:31:00,33.3,30.1,30.17,SE,142,0.0,0.0,88,0.00,,---,0.00,VWS V14.01,2013-12-17 02:31:00,
2013-12-16 21:32:00,33.2,30.0,30.17,SE,142,0.0,0.0,88,0.00,,---,0.00,VWS V14.01,2013-12-17 02:32:00,
2013-12-16 21:33:00,33.2,30.0,30.17,SE,142,0.0,0.0,88,0.00,,---,0.00,VWS V14.01,2013-12-17 02:33:00,
2013-12-16 21:34:00,33.1,29.9,30.17,SE,141,0.0,0.0,88,0.00,,---,0.00,VWS V14.01,2013-12-17 02:34:00,
2013-12-16 21:35:00,33.0,30.1,30.17,SE,142,0.0,0.0,89,0.00,,---,0.00,VWS V14.01,2013-12-17 02:35:00,
2013-12-16 21:36:00,33.1,29.9,30.17,SE,141,0.0,0.0,88,0.00,,---,0.00,VWS V14.01,2013-12-17 02:36:00,
2013-12-16 21:37:00,33.0,30.1,30.18,SE,142,0.0,0.0,89,0.00,,---,0.00,VWS V14.01,2013-12-17 02:37:00,
2013-12-16 21:38:00,33.0,30.1,30.18,SE,142,0.0,0.0,89,0.00,,---,0.00,VWS V14.01,2013-12-17 02:38:00,
2013-12-16 21:39:00,32.9,30.0,30.17,SE,142,0.0,0.0,89,0.00,,---,0.00,VWS V14.01,2013-12-17 02:39:00,
2013-12-16 21:40:00,32.8,29.9,30.17,SSE,168,0.0,0.0,89,0.00,,---,0.00,VWS V14.01,2013-12-17 02:40:00,
2013-12-16 21:41:00,32.9,30.0,30.17,SE,142,0.0,1.0,89,0.00,,---,0.00,VWS V14.01,2013-12-17 02:41:00,
2013-12-16 21:42:00,32.9,30.0,30.17,SE,142,0.0,0.0,89,0.00,,---,0.00,VWS V14.01,2013-12-17 02:42:00,
2013-12-16 21:43:00,32.9,30.0,30.17,SSE,168,0.0,0.0,89,0.00,,---,0.00,VWS V14.01,2013-12-17 02:43:00,
2013-12-16 21:44:00,32.8,29.9,30.17,SSE,168,0.0,0.0,89,0.00,,---,0.00,VWS V14.01,2013-12-17 02:44:00,
2013-12-16 21:45:00,32.6,29.7,30.17,SSE,167,0.0,1.0,89,0.00,,---,0.00,VWS V14.01,2013-12-17 02:45:00,
2013-12-16 21:46:00,32.7,29.8,30.17,SSE,168,0.0,0.0,89,0.00,,---,0.00,VWS V14.01,2013-12-17 02:46:00,
2013-12-16 21:47:00,32.7,29.8,30.17,SSE,167,0.0,0.0,89,0.00,,---,0.00,VWS V14.01,2013-12-17 02:47:00,
2013-12-16 21:48:00,32.6,29.7,30.17,SSE,168,1.0,1.0,89,0.00,,---,0.00,VWS V14.01,2013-12-17 02:48:00,
2013-12-16 21:49:00,32.6,29.7,30.17,SSE,167,0.0,1.0,89,0.00,,---,0.00,VWS V14.01,2013-12-17 02:49:00,
2013-12-16 21:50:00,32.5,29.6,30.17,SSE,167,0.0,0.0,89,0.00,,---,0.00,VWS V14.01,2013-12-17 02:50:00,
2013-12-16 21:51:00,32.5,29.6,30.17,SSE,167,0.0,0.0,89,0.00,,---,0.00,VWS V14.01,2013-12-17 02:51:00,
2013-12-16 21:52:00,32.5,29.6,30.17,SSE,166,1.0,1.0,89,0.00,,---,0.00,VWS V14.01,2013-12-17 02:52:00,
2013-12-16 21:53:00,32.5,29.6,30.17,SSE,166,0.0,1.0,89,0.00,,---,0.00,VWS V14.01,2013-12-17 02:53:00,
2013-12-16 21:54:00,32.5,29.9,30.17,SSE,166,0.0,0.0,90,0.00,,---,0.00,VWS V14.01,2013-12-17 02:54:00,
2013-12-16 21:55:00,32.4,29.8,30.17,SSE,167,0.0,0.0,90,0.00,,---,0.00,VWS V14.01,2013-12-17 02:55:00,
2013-12-16 21:56:00,32.4,29.8,30.17,SSE,166,0.0,0.0,90,0.00,,---,0.00,VWS V14.01,2013-12-17 02:56:00,
2013-12-16 21:57:00,32.4,29.8,30.17,SSE,166,0.0,0.0,90,0.00,,---,0.00,VWS V14.01,2013-12-17 02:57:00,
2013-12-16 21:58:00,32.3,29.7,30.17,SSE,166,0.0,0.0,90,0.00,,---,0.00,VWS V14.01,2013-12-17 02:58:00,
2013-12-16 21:59:00,32.3,29.7,30.17,SSE,167,0.0,0.0,90,0.00,,---,0.00,VWS V14.01,2013-12-17 02:59:00,
2013-12-16 22:00:00,32.1,29.5,30.18,SSE,166,0.0,0.0,90,0.00,,---,0.00,VWS V14.01,2013-12-17 03:00:00,
2013-12-16 22:01:00,32.2,29.6,30.17,SSE,167,0.0,0.0,90,0.00,,---,0.00,VWS V14.01,2013-12-17 03:01:00,
2013-12-16 22:02:00,32.2,29.6,30.17,SSE,166,0.0,0.0,90,0.00,,---,0.00,VWS V14.01,2013-12-17 03:02:00,
2013-12-16 22:03:00,32.1,29.5,30.17,SSE,166,0.0,0.0,90,0.00,,---,0.00,VWS V14.01,2013-12-17 03:03:00,
2013-12-16 22:04:00,32.1,29.5,30.18,SSE,166,0.0,0.0,90,0.00,,---,0.00,VWS V14.01,2013-12-17 03:04:00,
2013-12-16 22:05:00,31.9,29.3,30.18,SSE,166,0.0,0.0,90,0.00,,---,0.00,VWS V14.01,2013-12-17 03:05:00,
2013-12-16 22:06:00,32.0,29.4,30.17,SSE,166,0.0,0.0,90,0.00,,---,0.00,VWS V14.01,2013-12-17 03:06:00,
2013-12-16 22:07:00,32.0,29.4,30.18,SSE,166,0.0,0.0,90,0.00,,---,0.00,VWS V14.01,2013-12-17 03:07:00,
2013-12-16 22:08:00,31.9,29.3,30.18,SSE,166,0.0,0.0,90,0.00,,---,0.00,VWS V14.01,2013-12-17 03:08:00,
2013-12-16 22:09:00,31.9,29.3,30.18,SSE,166,0.0,0.0,90,0.00,,---,0.00,VWS V14.01,2013-12-17 03:09:00,
2013-12-16 22:10:00,31.7,29.1,30.17,SSE,166,0.0,0.0,90,0.00,,---,0.00,VWS V14.01,2013-12-17 03:10:00,
2013-12-16 22:11:00,31.8,29.2,30.17,SSE,166,0.0,0.0,90,0.00,,---,0.00,VWS V14.01,2013-12-17 03:11:00,
2013-12-16 22:12:00,31.7,29.1,30.17,SSE,167,0.0,0.0,90,0.00,,---,0.00,VWS V14.01,2013-12-17 03:12:00,
2013-12-16 22:13:00,31.7,29.1,30.17,SSE,166,0.0,0.0,90,0.00,,---,0.00,VWS V14.01,2013-12-17 03:13:00,
2013-12-16 22:14:00,31.7,29.1,30.17,SSE,166,0.0,0.0,90,0.00,,---,0.00,VWS V14.01,2013-12-17 03:14:00,
2013-12-16 22:15:00,31.5,28.9,30.17,SSE,167,0.0,0.0,90,0.00,,---,0.00,VWS V14.01,2013-12-17 03:15:00,
2013-12-16 22:16:00,31.6,29.0,30.17,SSE,167,0.0,0.0,90,0.00,,---,0.00,VWS V14.01,2013-12-17 03:16:00,
2013-12-16 22:17:00,31.6,29.0,30.17,SSE,166,0.0,0.0,90,0.00,,---,0.00,VWS V14.01,2013-12-17 03:17:00,
2013-12-16 22:18:00,31.5,28.9,30.17,SSE,166,0.0,1.0,90,0.00,,---,0.00,VWS V14.01,2013-12-17 03:18:00,
2013-12-16 22:19:00,31.5,28.9,30.17,SSE,166,0.0,0.0,90,0.00,,---,0.00,VWS V14.01,2013-12-17 03:19:00,
2013-12-16 22:20:00,31.4,29.1,30.17,South,180,0.0,0.0,91,0.00,,---,0.00,VWS V14.01,2013-12-17 03:20:00,
2013-12-16 22:21:00,31.5,28.9,30.17,SSE,166,0.0,0.0,90,0.00,,---,0.00,VWS V14.01,2013-12-17 03:21:00,
2013-12-16 22:22:00,31.4,29.1,30.18,South,179,0.0,0.0,91,0.00,,---,0.00,VWS V14.01,2013-12-17 03:22:00,
2013-12-16 22:23:00,31.4,29.1,30.17,South,179,0.0,0.0,91,0.00,,---,0.00,VWS V14.01,2013-12-17 03:23:00,
2013-12-16 22:24:00,31.4,29.1,30.17,South,177,0.0,0.0,91,0.00,,---,0.00,VWS V14.01,2013-12-17 03:24:00,
2013-12-16 22:25:00,31.3,29.0,30.18,SE,134,0.0,0.0,91,0.00,,---,0.00,VWS V14.01,2013-12-17 03:25:00,
2013-12-16 22:26:00,31.3,29.0,30.18,South,179,0.0,0.0,91,0.00,,---,0.00,VWS V14.01,2013-12-17 03:26:00,
2013-12-16 22:27:00,31.3,29.0,30.18,South,176,0.0,0.0,91,0.00,,---,0.00,VWS V14.01,2013-12-17 03:27:00,
2013-12-16 22:28:00,31.3,29.0,30.18,SE,134,0.0,1.0,91,0.00,,---,0.00,VWS V14.01,2013-12-17 03:28:00,
2013-12-16 22:29:00,31.3,29.0,30.18,SE,134,0.0,0.0,91,0.00,,---,0.00,VWS V14.01,2013-12-17 03:29:00,
2013-12-16 22:30:00,31.2,28.9,30.18,South,173,0.0,0.0,91,0.00,,---,0.00,VWS V14.01,2013-12-17 03:30:00,
2013-12-16 22:31:00,31.3,29.0,30.18,WSW,238,0.0,1.0,91,0.00,,---,0.00,VWS V14.01,2013-12-17 03:31:00,
2013-12-16 22:32:00,31.2,28.9,30.18,South,173,0.0,0.0,91,0.00,,---,0.00,VWS V14.01,2013-12-17 03:32:00,
2013-12-16 22:33:00,31.2,28.9,30.17,South,173,0.0,1.0,91,0.00,,---,0.00,VWS V14.01,2013-12-17 03:33:00,
2013-12-16 22:34:00,31.2,28.9,30.18,SSW,209,1.0,1.0,91,0.00,,---,0.00,VWS V14.01,2013-12-17 03:34:00,
2013-12-16 22:35:00,31.1,28.8,30.18,WSW,238,2.0,3.0,91,0.00,,---,0.00,VWS V14.01,2013-12-17 03:35:00,
2013-12-16 22:36:00,31.1,28.8,30.18,SSW,211,0.0,0.0,91,0.00,,---,0.00,VWS V14.01,2013-12-17 03:36:00,
2013-12-16 22:37:00,31.1,28.8,30.18,SSW,211,1.0,1.0,91,0.00,,---,0.00,VWS V14.01,2013-12-17 03:37:00,
2013-12-16 22:38:00,31.1,28.8,30.18,SW,226,2.0,2.0,91,0.00,,---,0.00,VWS V14.01,2013-12-17 03:38:00,
2013-12-16 22:39:00,31.0,28.7,30.18,East,82,2.0,3.0,91,0.00,,---,0.00,VWS V14.01,2013-12-17 03:39:00,
2013-12-16 22:40:00,31.1,28.8,30.18,ENE,69,0.0,0.0,91,0.00,,---,0.00,VWS V14.01,2013-12-17 03:40:00,
2013-12-16 22:41:00,31.1,28.8,30.18,ENE,68,0.0,1.0,91,0.00,,---,0.00,VWS V14.01,2013-12-17 03:41:00,
2013-12-16 22:42:00,31.0,28.7,30.19,ENE,70,1.0,1.0,91,0.00,,---,0.00,VWS V14.01,2013-12-17 03:42:00,
2013-12-16 22:43:00,31.0,28.7,30.19,ENE,70,0.0,1.0,91,0.00,,---,0.00,VWS V14.01,2013-12-17 03:43:00,
2013-12-16 22:44:00,31.0,28.7,30.18,ENE,70,0.0,0.0,91,0.00,,---,0.00,VWS V14.01,2013-12-17 03:44:00,
2013-12-16 22:45:00,30.9,28.6,30.19,ENE,70,0.0,0.0,91,0.00,,---,0.00,VWS V14.01,2013-12-17 03:45:00,
2013-12-16 22:46:00,31.0,28.7,30.19,ENE,69,0.0,1.0,91,0.00,,---,0.00,VWS V14.01,2013-12-17 03:46:00,
2013-12-16 22:47:00,31.0,28.7,30.19,ENE,70,0.0,0.0,91,0.00,,---,0.00,VWS V14.01,2013-12-17 03:47:00,
2013-12-16 22:48:00,30.9,28.6,30.19,ENE,70,0.0,0.0,91,0.00,,---,0.00,VWS V14.01,2013-12-17 03:48:00,
2013-12-16 22:49:00,30.9,28.6,30.19,ENE,70,0.0,1.0,91,0.00,,---,0.00,VWS V14.01,2013-12-17 03:49:00,
2013-12-16 22:50:00,30.8,28.5,30.19,ENE,69,0.0,0.0,91,0.00,,---,0.00,VWS V14.01,2013-12-17 03:50:00,
2013-12-16 22:51:00,30.9,28.6,30.19,ENE,69,0.0,1.0,91,0.00,,---,0.00,VWS V14.01,2013-12-17 03:51:00,
2013-12-16 22:52:00,30.8,28.5,30.19,ENE,69,0.0,0.0,91,0.00,,---,0.00,VWS V14.01,2013-12-17 03:52:00,
2013-12-16 22:53:00,30.8,28.5,30.19,ENE,69,0.0,0.0,91,0.00,,---,0.00,VWS V14.01,2013-12-17 03:53:00,
2013-12-16 22:54:00,30.8,28.5,30.19,ENE,70,0.0,0.0,91,0.00,,---,0.00,VWS V14.01,2013-12-17 03:54:00,
2013-12-16 22:55:00,30.7,28.4,30.19,SSE,168,0.0,0.0,91,0.00,,---,0.00,VWS V14.01,2013-12-17 03:55:00,
2013-12-16 22:56:00,30.7,28.4,30.19,ENE,70,0.0,1.0,91,0.00,,---,0.00,VWS V14.01,2013-12-17 03:56:00,
2013-12-16 22:57:00,30.7,28.4,30.19,ENE,70,0.0,0.0,91,0.00,,---,0.00,VWS V14.01,2013-12-17 03:57:00,
2013-12-16 22:58:00,30.7,28.4,30.19,SSE,168,0.0,1.0,91,0.00,,---,0.00,VWS V14.01,2013-12-17 03:58:00,
2013-12-16 22:59:00,30.6,28.3,30.19,SSE,167,0.0,0.0,91,0.00,,---,0.00,VWS V14.01,2013-12-17 03:59:00,
2013-12-16 23:00:00,30.5,28.2,30.18,SSE,168,0.0,0.0,91,0.00,,---,0.00,VWS V14.01,2013-12-17 04:00:00,
2013-12-16 23:02:00,30.5,28.2,30.18,SSE,168,0.0,0.0,91,0.00,,---,0.00,VWS V14.01,2013-12-17 04:02:00,
2013-12-16 23:04:00,30.4,28.1,30.18,SSE,168,0.0,0.0,91,0.00,,---,0.00,VWS V14.01,2013-12-17 04:04:00,
2013-12-16 23:05:00,30.2,27.9,30.18,SSE,167,0.0,0.0,91,0.00,,---,0.00,VWS V14.01,2013-12-17 04:05:00,
2013-12-16 23:06:00,30.3,28.0,30.18,SSE,167,0.0,0.0,91,0.00,,---,0.00,VWS V14.01,2013-12-17 04:06:00,
2013-12-16 23:07:00,30.3,28.0,30.18,SSE,168,0.0,0.0,91,0.00,,---,0.00,VWS V14.01,2013-12-17 04:07:00,
2013-12-16 23:08:00,30.2,27.9,30.18,South,169,0.0,0.0,91,0.00,,---,0.00,VWS V14.01,2013-12-17 04:08:00,
2013-12-16 23:09:00,30.2,27.9,30.18,SSE,168,0.0,0.0,91,0.00,,---,0.00,VWS V14.01,2013-12-17 04:09:00,
2013-12-16 23:10:00,30.0,28.0,30.18,South,169,0.0,0.0,92,0.00,,---,0.00,VWS V14.01,2013-12-17 04:10:00,
2013-12-16 23:11:00,30.1,28.1,30.18,South,169,0.0,0.0,92,0.00,,---,0.00,VWS V14.01,2013-12-17 04:11:00,
2013-12-16 23:12:00,30.1,27.8,30.18,SSE,167,0.0,0.0,91,0.00,,---,0.00,VWS V14.01,2013-12-17 04:12:00,
2013-12-16 23:13:00,30.0,28.0,30.18,SSE,167,0.0,0.0,92,0.00,,---,0.00,VWS V14.01,2013-12-17 04:13:00,
2013-12-16 23:14:00,30.0,28.0,30.18,SSE,167,0.0,0.0,92,0.00,,---,0.00,VWS V14.01,2013-12-17 04:14:00,
2013-12-16 23:15:00,29.8,27.8,30.18,SSE,167,0.0,0.0,92,0.00,,---,0.00,VWS V14.01,2013-12-17 04:15:00,
2013-12-16 23:16:00,29.9,27.9,30.18,SSE,168,0.0,0.0,92,0.00,,---,0.00,VWS V14.01,2013-12-17 04:16:00,
2013-12-16 23:17:00,29.8,27.8,30.18,SSE,167,0.0,0.0,92,0.00,,---,0.00,VWS V14.01,2013-12-17 04:17:00,
2013-12-16 23:18:00,29.8,27.8,30.18,SSE,167,0.0,0.0,92,0.00,,---,0.00,VWS V14.01,2013-12-17 04:18:00,
2013-12-16 23:19:00,29.8,27.8,30.18,SSE,168,0.0,0.0,92,0.00,,---,0.00,VWS V14.01,2013-12-17 04:19:00,
2013-12-16 23:20:00,29.6,27.6,30.18,SSE,168,0.0,0.0,92,0.00,,---,0.00,VWS V14.01,2013-12-17 04:20:00,
2013-12-16 23:21:00,29.7,27.7,30.18,SSE,168,0.0,0.0,92,0.00,,---,0.00,VWS V14.01,2013-12-17 04:21:00,
2013-12-16 23:22:00,29.7,27.7,30.18,SSE,168,0.0,0.0,92,0.00,,---,0.00,VWS V14.01,2013-12-17 04:22:00,
2013-12-16 23:23:00,29.6,27.6,30.18,SSE,167,0.0,0.0,92,0.00,,---,0.00,VWS V14.01,2013-12-17 04:23:00,
2013-12-16 23:24:00,29.6,27.6,30.18,SSW,198,0.0,0.0,92,0.00,,---,0.00,VWS V14.01,2013-12-17 04:24:00,
2013-12-16 23:25:00,29.6,27.6,30.18,South,173,1.0,1.0,92,0.00,,---,0.00,VWS V14.01,2013-12-17 04:25:00,
2013-12-16 23:26:00,29.6,27.6,30.18,ENE,68,3.0,3.0,92,0.00,,---,0.00,VWS V14.01,2013-12-17 04:26:00,
2013-12-16 23:27:00,29.6,27.6,30.18,ENE,78,0.0,3.0,92,0.00,,---,0.00,VWS V14.01,2013-12-17 04:27:00,
2013-12-16 23:28:00,29.6,27.6,30.18,South,169,1.0,1.0,92,0.00,,---,0.00,VWS V14.01,2013-12-17 04:28:00,
2013-12-16 23:29:00,29.6,27.6,30.18,South,186,0.0,2.0,92,0.00,,---,0.00,VWS V14.01,2013-12-17 04:29:00,
2013-12-16 23:30:00,29.6,27.6,30.18,WSW,251,0.0,1.0,92,0.00,,---,0.00,VWS V14.01,2013-12-17 04:30:00,
2013-12-16 23:31:00,29.6,27.6,30.18,SSW,206,1.0,1.0,92,0.00,,---,0.00,VWS V14.01,2013-12-17 04:31:00,
2013-12-16 23:32:00,29.6,27.6,30.19,WSW,253,1.0,1.0,92,0.00,,---,0.00,VWS V14.01,2013-12-17 04:32:00,
2013-12-16 23:33:00,29.6,27.6,30.19,WSW,253,0.0,1.0,92,0.00,,---,0.00,VWS V14.01,2013-12-17 04:33:00,
2013-12-16 23:34:00,29.6,27.6,30.18,WSW,251,1.0,1.0,92,0.00,,---,0.00,VWS V14.01,2013-12-17 04:34:00,
2013-12-16 23:35:00,29.6,27.6,30.18,ESE,115,0.0,0.0,92,0.00,,---,0.00,VWS V14.01,2013-12-17 04:35:00,
2013-12-16 23:36:00,29.6,27.6,30.18,ESE,115,0.0,0.0,92,0.00,,---,0.00,VWS V14.01,2013-12-17 04:36:00,
2013-12-16 23:37:00,29.6,27.6,30.18,ESE,115,0.0,0.0,92,0.00,,---,0.00,VWS V14.01,2013-12-17 04:37:00,
2013-12-16 23:38:00,29.6,27.6,30.18,ESE,115,0.0,0.0,92,0.00,,---,0.00,VWS V14.01,2013-12-17 04:38:00,
2013-12-16 23:39:00,29.5,27.5,30.18,ESE,115,0.0,1.0,92,0.00,,---,0.00,VWS V14.01,2013-12-17 04:39:00,
2013-12-16 23:40:00,29.5,27.7,30.18,ESE,120,0.0,0.0,93,0.00,,---,0.00,VWS V14.01,2013-12-17 04:40:00,
2013-12-16 23:41:00,29.5,27.5,30.18,ESE,120,0.0,1.0,92,0.00,,---,0.00,VWS V14.01,2013-12-17 04:41:00,
2013-12-16 23:42:00,29.6,27.8,30.18,ESE,120,0.0,1.0,93,0.00,,---,0.00,VWS V14.01,2013-12-17 04:42:00,
2013-12-16 23:43:00,29.6,27.8,30.18,ESE,120,0.0,1.0,93,0.00,,---,0.00,VWS V14.01,2013-12-17 04:43:00,
2013-12-16 23:44:00,29.6,27.8,30.18,ESE,120,0.0,1.0,93,0.00,,---,0.00,VWS V14.01,2013-12-17 04:44:00,
2013-12-16 23:45:00,29.4,27.6,30.18,ESE,120,0.0,0.0,93,0.00,,---,0.00,VWS V14.01,2013-12-17 04:45:00,
2013-12-16 23:46:00,29.5,27.7,30.18,ESE,120,0.0,0.0,93,0.00,,---,0.00,VWS V14.01,2013-12-17 04:46:00,
2013-12-16 23:47:00,29.5,27.7,30.18,ESE,120,0.0,0.0,93,0.00,,---,0.00,VWS V14.01,2013-12-17 04:47:00,
2013-12-16 23:48:00,29.5,27.7,30.18,ESE,120,0.0,0.0,93,0.00,,---,0.00,VWS V14.01,2013-12-17 04:48:00,
2013-12-16 23:49:00,29.4,27.6,30.18,ESE,120,0.0,1.0,93,0.00,,---,0.00,VWS V14.01,2013-12-17 04:49:00,
2013-12-16 23:50:00,29.4,27.6,30.19,ESE,120,0.0,0.0,93,0.00,,---,0.00,VWS V14.01,2013-12-17 04:50:00,
2013-12-16 23:51:00,29.5,27.7,30.19,ESE,120,0.0,1.0,93,0.00,,---,0.00,VWS V14.01,2013-12-17 04:51:00,
2013-12-16 23:52:00,29.5,27.7,30.19,ESE,120,1.0,1.0,93,0.00,,---,0.00,VWS V14.01,2013-12-17 04:52:00,
2013-12-16 23:53:00,29.4,27.6,30.19,ESE,120,0.0,1.0,93,0.00,,---,0.00,VWS V14.01,2013-12-17 04:53:00,
2013-12-16 23:54:00,29.4,27.6,30.19,ESE,120,0.0,0.0,93,0.00,,---,0.00,VWS V14.01,2013-12-17 04:54:00,
2013-12-16 23:55:00,29.4,27.6,30.18,SSE,156,0.0,0.0,93,0.00,,---,0.00,VWS V14.01,2013-12-17 04:55:00,
2013-12-16 23:56:00,29.4,27.6,30.18,ESE,120,0.0,0.0,93,0.00,,---,0.00,VWS V14.01,2013-12-17 04:56:00,
2013-12-16 23:57:00,29.4,27.6,30.18,SSE,156,0.0,0.0,93,0.00,,---,0.00,VWS V14.01,2013-12-17 04:57:00,
2013-12-16 23:58:00,29.4,27.6,30.18,SSE,156,0.0,0.0,93,0.00,,---,0.00,VWS V14.01,2013-12-17 04:58:00,
2013-12-16 23:59:00,29.4,27.6,30.18,SSE,156,0.0,0.0,93,0.00,,---,0.00,VWS V14.01,2013-12-17 04:59:00,